[[{"header":{"parameterUnit":"m.s-1","parameterCategory":1,"la1":30.6,"la2":29.2853,"lo1":-89.7004,"lo2":-87.6739,"dy":0.0162,"dx":0.0183,"nx":112,"ny":82,"refTime":"2023-03-26T06:00:00:Z","depth":0,"parameterNumber":2,"parameterNumberName":"U-component_of_WINDS"},"data":[0.0,0.0,0.0,0.0,0.0,0.0,0.0,0.0,0.0,0.0,0.0,0.0,0.0,0.0,0.0,0.0,0.0,0.0,0.0,0.0,0.0,0.0,0.0,0.0,0.0,0.0,0.0,0.0,0.0,0.0,0.0,0.0,0.0,0.0,0.0,0.0,0.0,0.0,0.0,0.0,0.0,0.0,0.0,0.0,0.0,0.0,0.0,0.0,0.0,0.0,0.0,0.0,0.0,0.0,0.0,0.0,0.0,0.0,0.0,0.0,0.0,0.0,0.0,0.0,0.0,0.0,0.0,0.0,0.0,0.0,0.0,0.0,0.0,0.0,0.0,0.0,0.0,0.0,0.0,0.0,0.0,0.0,0.0,0.0,0.0,0.0,0.0,0.0,0.0,0.0,-3.7933,-3.7994,-3.8023,-3.8023,-3.8023,-3.7994,-3.7764,-3.7298,0.0,0.0,0.0,0.0,0.0,0.0,0.0,0.0,0.0,0.0,0.0,0.0,0.0,0.0,0.0,0.0,0.0,0.0,0.0,0.0,0.0,0.0,0.0,0.0,0.0,0.0,0.0,0.0,0.0,0.0,0.0,0.0,0.0,0.0,0.0,0.0,0.0,0.0,0.0,0.0,0.0,0.0,0.0,0.0,0.0,0.0,0.0,0.0,0.0,0.0,0.0,0.0,0.0,0.0,0.0,0.0,0.0,0.0,0.0,0.0,0.0,0.0,0.0,0.0,0.0,0.0,0.0,0.0,0.0,0.0,0.0,0.0,0.0,0.0,0.0,0.0,0.0,0.0,0.0,0.0,0.0,0.0,0.0,0.0,0.0,0.0,0.0,0.0,0.0,0.0,0.0,0.0,0.0,0.0,0.0,0.0,0.0,0.0,0.0,0.0,0.0,0.0,0.0,0.0,-3.7328,-3.6815,-3.6785,-3.6785,-3.6785,-3.6631,-3.6569,-3.6631,0.0,0.0,0.0,0.0,0.0,0.0,0.0,0.0,0.0,0.0,0.0,0.0,0.0,0.0,0.0,0.0,0.0,0.0,0.0,0.0,0.0,0.0,0.0,0.0,0.0,0.0,0.0,0.0,0.0,0.0,0.0,0.0,0.0,0.0,0.0,0.0,0.0,0.0,0.0,0.0,0.0,0.0,0.0,0.0,0.0,0.0,0.0,0.0,0.0,0.0,0.0,0.0,0.0,0.0,0.0,0.0,0.0,0.0,0.0,0.0,0.0,0.0,0.0,0.0,0.0,0.0,0.0,0.0,0.0,0.0,0.0,0.0,0.0,0.0,0.0,0.0,0.0,0.0,0.0,0.0,0.0,0.0,0.0,0.0,0.0,0.0,0.0,0.0,0.0,0.0,0.0,0.0,0.0,0.0,0.0,0.0,0.0,0.0,0.0,0.0,0.0,0.0,0.0,-3.6936,-3.6816,-3.6507,-3.6507,-3.6507,-3.6507,-3.632,-3.6227,-3.6352,-3.6784,0.0,0.0,0.0,0.0,0.0,0.0,0.0,0.0,0.0,0.0,0.0,0.0,0.0,0.0,0.0,0.0,0.0,0.0,0.0,0.0,0.0,0.0,0.0,0.0,0.0,0.0,0.0,0.0,0.0,0.0,0.0,0.0,0.0,0.0,0.0,0.0,0.0,0.0,0.0,0.0,0.0,0.0,0.0,0.0,0.0,0.0,0.0,0.0,0.0,0.0,0.0,0.0,0.0,0.0,0.0,0.0,0.0,0.0,0.0,0.0,0.0,0.0,0.0,0.0,0.0,0.0,0.0,0.0,0.0,0.0,0.0,0.0,0.0,0.0,0.0,0.0,0.0,0.0,0.0,0.0,0.0,0.0,0.0,0.0,0.0,0.0,0.0,0.0,0.0,0.0,0.0,0.0,0.0,0.0,0.0,0.0,0.0,0.0,0.0,0.0,0.0,0.0,-3.6289,-3.6383,-3.6383,-3.6383,-3.6383,-3.6383,-3.6195,-3.6101,-3.6133,-3.5973,0.0,0.0,0.0,0.0,0.0,0.0,0.0,0.0,0.0,0.0,0.0,0.0,0.0,0.0,0.0,0.0,0.0,0.0,0.0,0.0,0.0,0.0,0.0,0.0,0.0,0.0,0.0,0.0,0.0,0.0,0.0,0.0,0.0,0.0,0.0,0.0,0.0,0.0,0.0,0.0,0.0,0.0,0.0,0.0,0.0,0.0,0.0,0.0,0.0,0.0,0.0,0.0,0.0,0.0,0.0,0.0,0.0,0.0,0.0,0.0,0.0,0.0,0.0,0.0,0.0,0.0,0.0,0.0,0.0,0.0,0.0,0.0,0.0,0.0,0.0,0.0,0.0,0.0,0.0,0.0,0.0,0.0,0.0,0.0,0.0,0.0,0.0,0.0,0.0,0.0,0.0,0.0,0.0,0.0,0.0,0.0,0.0,0.0,0.0,0.0,0.0,0.0,-3.6037,-3.6037,-3.6037,-3.6037,-3.6037,-3.6037,-3.5847,-3.5816,-3.6005,-3.5716,0.0,0.0,0.0,0.0,0.0,0.0,0.0,0.0,0.0,0.0,0.0,0.0,0.0,0.0,0.0,0.0,0.0,0.0,0.0,0.0,0.0,0.0,0.0,0.0,0.0,0.0,0.0,0.0,0.0,0.0,0.0,0.0,0.0,0.0,0.0,0.0,0.0,0.0,0.0,0.0,0.0,0.0,0.0,0.0,0.0,0.0,0.0,0.0,0.0,0.0,0.0,0.0,0.0,0.0,0.0,0.0,0.0,0.0,0.0,0.0,0.0,0.0,0.0,0.0,0.0,0.0,0.0,0.0,0.0,0.0,0.0,0.0,0.0,0.0,0.0,0.0,0.0,0.0,0.0,0.0,0.0,0.0,0.0,0.0,0.0,0.0,0.0,0.0,0.0,0.0,0.0,0.0,0.0,0.0,0.0,0.0,0.0,0.0,0.0,0.0,0.0,0.0,-3.6005,-3.6005,-3.6005,-3.6005,-3.6005,-3.6005,-3.5816,-3.572,-3.5816,0.0,0.0,0.0,0.0,0.0,0.0,0.0,0.0,0.0,0.0,0.0,0.0,0.0,0.0,0.0,0.0,0.0,0.0,0.0,0.0,0.0,0.0,0.0,0.0,0.0,0.0,0.0,0.0,0.0,0.0,0.0,0.0,0.0,0.0,0.0,0.0,0.0,0.0,0.0,0.0,0.0,0.0,0.0,0.0,0.0,0.0,0.0,0.0,0.0,0.0,0.0,0.0,0.0,0.0,0.0,0.0,0.0,0.0,0.0,0.0,0.0,0.0,0.0,0.0,0.0,0.0,0.0,0.0,0.0,0.0,0.0,0.0,0.0,0.0,0.0,0.0,0.0,0.0,0.0,0.0,0.0,0.0,0.0,0.0,0.0,0.0,0.0,0.0,0.0,0.0,0.0,0.0,0.0,0.0,0.0,0.0,0.0,0.0,0.0,0.0,0.0,0.0,-3.6449,-3.6449,-3.6358,-3.6209,-3.6146,-3.6056,-3.5844,-3.5494,-3.5335,-3.5621,0.0,0.0,0.0,0.0,0.0,0.0,0.0,0.0,0.0,0.0,0.0,0.0,0.0,0.0,0.0,0.0,0.0,0.0,0.0,0.0,0.0,0.0,0.0,0.0,0.0,0.0,0.0,0.0,0.0,0.0,0.0,0.0,0.0,0.0,0.0,0.0,0.0,0.0,0.0,0.0,0.0,0.0,0.0,0.0,0.0,0.0,0.0,0.0,0.0,0.0,0.0,0.0,0.0,0.0,0.0,0.0,0.0,0.0,0.0,0.0,0.0,0.0,0.0,0.0,0.0,0.0,0.0,0.0,0.0,0.0,0.0,0.0,0.0,0.0,0.0,0.0,0.0,0.0,0.0,0.0,0.0,0.0,0.0,0.0,0.0,0.0,0.0,0.0,0.0,0.0,0.0,0.0,0.0,0.0,0.0,0.0,0.0,0.0,0.0,0.0,0.0,0.0,-3.737,-3.737,-3.7131,-3.6567,-3.6507,-3.6204,-3.5547,-3.4773,-3.461,0.0,0.0,0.0,0.0,0.0,0.0,0.0,0.0,0.0,0.0,0.0,0.0,0.0,0.0,0.0,0.0,0.0,0.0,0.0,0.0,0.0,0.0,0.0,0.0,0.0,0.0,0.0,0.0,0.0,0.0,0.0,0.0,0.0,0.0,0.0,0.0,0.0,0.0,0.0,0.0,0.0,0.0,0.0,0.0,0.0,0.0,0.0,0.0,0.0,0.0,0.0,0.0,0.0,0.0,0.0,0.0,0.0,0.0,0.0,0.0,0.0,0.0,0.0,0.0,0.0,0.0,0.0,0.0,0.0,0.0,0.0,0.0,0.0,0.0,0.0,0.0,0.0,0.0,0.0,0.0,0.0,0.0,0.0,0.0,0.0,0.0,0.0,0.0,0.0,0.0,0.0,0.0,0.0,0.0,0.0,0.0,0.0,0.0,0.0,0.0,0.0,0.0,0.0,-3.5625,-3.5625,-3.5568,-3.5396,-3.5368,-3.5139,-3.4581,-3.4285,-3.4079,-3.3894,0.0,0.0,0.0,0.0,0.0,0.0,0.0,0.0,0.0,0.0,0.0,0.0,0.0,0.0,0.0,0.0,0.0,0.0,0.0,0.0,0.0,0.0,0.0,0.0,0.0,0.0,0.0,0.0,0.0,0.0,0.0,0.0,0.0,0.0,0.0,0.0,0.0,0.0,0.0,0.0,0.0,0.0,0.0,0.0,0.0,0.0,0.0,0.0,0.0,0.0,0.0,0.0,0.0,0.0,0.0,0.0,0.0,0.0,0.0,0.0,0.0,0.0,0.0,0.0,0.0,0.0,0.0,0.0,0.0,0.0,0.0,0.0,0.0,0.0,0.0,0.0,0.0,0.0,0.0,0.0,0.0,0.0,0.0,0.0,0.0,0.0,0.0,0.0,0.0,0.0,0.0,0.0,0.0,0.0,0.0,0.0,0.0,0.0,0.0,0.0,0.0,0.0,-3.5695,-3.5619,-3.546,-3.5208,-3.5105,-3.4817,-3.4233,-3.3698,-3.3358,-3.3259,0.0,0.0,0.0,0.0,0.0,0.0,0.0,0.0,0.0,0.0,0.0,0.0,0.0,0.0,0.0,0.0,0.0,0.0,0.0,0.0,0.0,0.0,0.0,0.0,0.0,0.0,0.0,0.0,0.0,0.0,0.0,0.0,0.0,0.0,0.0,0.0,0.0,0.0,0.0,0.0,0.0,0.0,0.0,0.0,0.0,0.0,0.0,0.0,0.0,0.0,0.0,0.0,0.0,0.0,0.0,0.0,0.0,0.0,0.0,0.0,0.0,0.0,0.0,0.0,0.0,0.0,0.0,0.0,0.0,0.0,0.0,0.0,0.0,0.0,0.0,0.0,0.0,0.0,0.0,0.0,0.0,0.0,0.0,0.0,0.0,0.0,0.0,0.0,0.0,0.0,0.0,0.0,0.0,0.0,0.0,0.0,0.0,0.0,0.0,0.0,0.0,0.0,-3.6554,-3.6436,-3.6124,-3.5493,-3.5244,-3.4881,-3.4203,-3.3078,-3.2589,-3.3137,0.0,0.0,0.0,0.0,0.0,0.0,0.0,0.0,0.0,0.0,0.0,0.0,0.0,0.0,0.0,0.0,0.0,0.0,0.0,0.0,0.0,0.0,0.0,0.0,0.0,0.0,0.0,0.0,0.0,0.0,0.0,0.0,0.0,0.0,0.0,0.0,0.0,0.0,0.0,0.0,0.0,0.0,0.0,0.0,0.0,0.0,0.0,0.0,0.0,0.0,0.0,0.0,0.0,0.0,0.0,0.0,0.0,0.0,0.0,0.0,-3.2766,-3.3111,0.0,0.0,0.0,0.0,0.0,0.0,0.0,0.0,0.0,0.0,0.0,0.0,0.0,0.0,0.0,0.0,0.0,0.0,0.0,0.0,0.0,0.0,0.0,0.0,0.0,0.0,0.0,0.0,0.0,0.0,0.0,0.0,0.0,0.0,0.0,0.0,0.0,0.0,0.0,0.0,-3.4387,-3.4345,-3.4251,-3.4105,-3.4038,-3.3788,-3.3242,-3.2924,-3.2484,-3.1746,-3.141,0.0,0.0,0.0,0.0,0.0,0.0,0.0,0.0,0.0,0.0,0.0,0.0,0.0,0.0,0.0,0.0,0.0,0.0,0.0,0.0,0.0,0.0,0.0,0.0,0.0,0.0,0.0,0.0,0.0,0.0,0.0,0.0,0.0,0.0,0.0,0.0,0.0,0.0,0.0,0.0,0.0,0.0,0.0,0.0,0.0,0.0,0.0,0.0,0.0,0.0,0.0,0.0,0.0,0.0,0.0,0.0,0.0,0.0,0.0,-3.1845,-3.2568,0.0,0.0,0.0,0.0,0.0,0.0,0.0,0.0,0.0,0.0,0.0,0.0,0.0,0.0,0.0,0.0,0.0,0.0,0.0,0.0,0.0,0.0,0.0,0.0,0.0,0.0,0.0,0.0,0.0,0.0,0.0,0.0,0.0,0.0,0.0,0.0,0.0,0.0,0.0,0.0,-3.3683,-3.3641,-3.3556,-3.3556,-3.3471,-3.3284,-3.3005,-3.2726,-3.232,-3.1737,-3.1432,0.0,0.0,0.0,0.0,0.0,0.0,0.0,0.0,0.0,0.0,0.0,0.0,0.0,0.0,0.0,0.0,0.0,0.0,0.0,0.0,0.0,0.0,0.0,0.0,0.0,0.0,0.0,0.0,0.0,0.0,0.0,0.0,0.0,0.0,0.0,0.0,0.0,0.0,0.0,0.0,0.0,0.0,0.0,0.0,0.0,0.0,0.0,0.0,0.0,0.0,0.0,0.0,0.0,-3.0716,-3.0672,-3.0559,-2.9941,-2.9526,-2.9433,-3.0603,-3.1475,-3.2064,-3.1492,0.0,0.0,0.0,0.0,0.0,0.0,0.0,0.0,0.0,0.0,0.0,0.0,0.0,0.0,0.0,0.0,0.0,0.0,0.0,0.0,0.0,0.0,-3.2356,-3.2356,-3.2356,-3.2531,-3.2896,0.0,0.0,0.0,0.0,0.0,0.0,0.0,0.0,0.0,0.0,0.0,-3.3556,-3.3428,-3.3368,-3.3368,-3.3197,-3.3111,-3.3111,-3.2641,-3.2315,-3.2215,-3.1788,-3.1311,0.0,0.0,0.0,0.0,0.0,0.0,0.0,0.0,0.0,0.0,0.0,0.0,0.0,0.0,0.0,0.0,0.0,0.0,0.0,0.0,0.0,0.0,0.0,0.0,0.0,0.0,0.0,0.0,0.0,0.0,0.0,0.0,-3.2233,-3.2169,0.0,0.0,0.0,0.0,0.0,0.0,0.0,0.0,0.0,0.0,0.0,0.0,0.0,-2.9396,-2.9396,-2.928,-2.9527,-3.0117,-2.9952,-2.9723,-2.9461,-3.0193,-3.0071,-2.9244,-2.9058,0.0,-2.9829,-2.9738,0.0,0.0,0.0,0.0,0.0,0.0,0.0,0.0,0.0,0.0,0.0,0.0,0.0,0.0,0.0,0.0,0.0,0.0,0.0,0.0,0.0,0.0,-3.2025,-3.2025,-3.2225,-3.2444,-3.2487,-3.2636,-3.2766,-3.2766,-3.2939,-3.3111,0.0,0.0,0.0,0.0,0.0,0.0,-3.3197,-3.3154,-3.3154,-3.3154,-3.3111,-3.3111,-3.3111,-3.3061,-3.2742,-3.224,-3.2139,-3.1863,-3.1311,-3.0859,0.0,0.0,0.0,0.0,0.0,0.0,0.0,0.0,0.0,0.0,0.0,0.0,0.0,0.0,0.0,0.0,0.0,0.0,0.0,0.0,0.0,0.0,0.0,0.0,0.0,0.0,0.0,0.0,0.0,-3.071,-3.0472,-3.0275,-2.9639,-2.9365,0.0,0.0,0.0,0.0,0.0,0.0,0.0,0.0,0.0,-2.8458,-2.8188,-2.8063,-2.8063,-2.8501,-2.8876,-2.9186,-2.9089,-2.8972,-2.8815,-2.8666,-2.8366,-2.7935,-2.7783,-2.7807,-2.807,-2.843,-2.9074,-2.9829,0.0,0.0,0.0,0.0,-2.9966,-2.9784,-2.9326,-2.9096,-2.9096,-2.951,0.0,0.0,0.0,0.0,0.0,0.0,0.0,-3.0396,-3.0869,-3.1003,-3.1137,-3.1717,-3.1937,-3.2025,-3.2025,-3.2157,-3.2332,-3.2506,-3.2723,-3.2896,-3.2896,-3.2896,0.0,0.0,0.0,-3.3111,-3.3111,-3.3111,-3.3111,-3.3111,-3.3111,-3.3111,-3.3111,-3.3111,-3.3011,-3.2717,-3.2692,-3.2441,-3.1863,-3.1514,-3.1032,0.0,0.0,0.0,0.0,0.0,0.0,0.0,0.0,0.0,0.0,0.0,0.0,0.0,0.0,0.0,0.0,0.0,0.0,0.0,0.0,0.0,0.0,0.0,0.0,0.0,0.0,0.0,0.0,-2.9628,-2.9356,-2.9082,-2.8809,-2.8574,0.0,0.0,0.0,0.0,0.0,0.0,-2.8144,-2.7832,-2.7669,-2.75,-2.7187,-2.707,-2.7187,-2.7914,-2.8391,-2.8594,-2.8594,-2.8655,-2.8777,-2.8021,-2.7598,-2.75,-2.7383,-2.7285,-2.7212,-2.7541,-2.8153,-2.8911,-2.9099,-2.9333,-2.9498,-2.9154,-2.8877,-2.8668,-2.8305,-2.8075,-2.7981,-2.8215,-2.8495,-2.8727,-2.8866,0.0,0.0,0.0,0.0,-2.905,-2.9647,-2.9897,-3.0171,-3.0921,-3.1174,-3.1268,-3.1268,-3.1404,-3.1693,-3.223,-3.2463,-3.2636,-3.2636,-3.2636,0.0,-3.2939,-3.2982,-3.3025,-3.3068,-3.3111,-3.3111,-3.3111,-3.3025,-3.2982,-3.2982,-3.2939,-3.2896,-3.2896,-3.2896,-3.2721,-3.2297,-3.1978,-3.1422,-3.0629,0.0,0.0,0.0,0.0,0.0,0.0,0.0,0.0,0.0,0.0,0.0,0.0,0.0,0.0,0.0,0.0,0.0,0.0,0.0,0.0,0.0,0.0,0.0,0.0,0.0,0.0,0.0,0.0,0.0,-2.9587,-2.9567,0.0,0.0,0.0,0.0,-2.832,-2.8301,-2.8125,-2.7767,-2.7728,-2.748,-2.707,-2.7031,-2.7207,-2.7689,-2.7741,-2.8133,-2.8883,-2.8883,-2.9098,-2.9545,-2.9489,-2.9219,-2.8809,-2.8398,-2.8008,-2.765,-2.7231,-2.7643,-2.8504,-2.8554,-2.9148,-2.9818,-2.8467,-2.798,-2.7772,-2.6346,-2.5868,-2.6014,-2.6962,-2.7934,-2.868,-2.8727,-2.8727,0.0,0.0,-2.8727,-2.8727,-2.8773,-2.9077,-2.9332,-2.9427,-2.9729,-3.0078,-3.0078,-3.0251,-3.0728,-3.1821,-3.2201,-3.2444,-3.2444,0.0,-3.2463,-3.268,-3.2723,-3.281,-3.3068,-3.3111,-3.3111,-3.3111,-3.2853,-3.2723,-3.2723,-3.255,-3.2444,-3.2444,-3.2444,-3.2419,-3.2394,-3.1835,-3.1473,-3.1424,-3.0933,0.0,0.0,0.0,0.0,0.0,0.0,0.0,0.0,0.0,0.0,0.0,0.0,0.0,0.0,0.0,0.0,0.0,0.0,0.0,0.0,0.0,0.0,0.0,0.0,0.0,0.0,0.0,0.0,-2.875,-2.875,0.0,-2.8535,-2.8516,-2.8457,-2.8301,-2.8301,-2.834,-2.8457,-2.8476,-2.8535,-2.8652,-2.8652,-2.873,-2.8941,-2.8941,-2.9043,-2.9336,-2.9336,-2.9414,-2.9626,-2.9626,-2.9492,-2.9336,-2.918,-2.8867,-2.8457,-2.8301,-2.7963,-2.7551,-2.7551,-2.7753,-2.8015,-2.7523,-2.7332,-2.7262,-2.6702,-2.6562,-2.6613,-2.6923,-2.7321,-2.7598,-2.7598,-2.7598,-2.7598,-2.7598,-2.7598,-2.7746,-2.8432,-2.8705,-2.8978,-2.9591,-2.9889,-2.9998,-2.9998,-3.0046,-3.0229,-3.0661,-3.1228,-3.1743,-3.2098,-3.2113,-3.2323,-3.2931,-3.3049,-3.3173,-3.3608,-3.3702,-3.3702,-3.3702,-3.3291,-3.3049,-3.3049,-3.2641,-3.24,-3.24,-3.24,-3.24,-3.24,-3.203,-3.165,-3.1327,-3.0986,-3.0537,0.0,0.0,0.0,0.0,0.0,0.0,0.0,0.0,0.0,0.0,0.0,0.0,0.0,0.0,0.0,0.0,0.0,0.0,0.0,0.0,0.0,0.0,0.0,0.0,0.0,-2.8301,-2.8301,-2.8301,-2.8301,-2.8301,-2.8301,-2.8418,-2.8496,-2.8496,-2.8633,-2.8848,-2.9121,-2.9141,-2.9277,-2.9607,-2.9626,-2.9704,-2.9785,-2.9785,-2.9863,-3.0019,-3.0019,-3.0019,-3.0019,-3.0019,-2.9922,-2.9785,-2.9785,-2.9531,-2.9141,-2.9141,-2.8633,-2.7851,-2.7559,-2.7441,-2.7422,-2.7285,-2.7226,-2.7207,-2.707,-2.7012,-2.7012,-2.7012,-2.7012,-2.7012,-2.7012,-2.7012,-2.7012,-2.7012,-2.7012,-2.7165,-2.7804,-2.8107,-2.8431,-2.9065,-2.9321,-2.9446,-2.9446,-2.9446,-2.9484,-2.9686,-3.057,-3.146,-3.1798,-3.2157,-3.2661,-3.3228,-3.3322,-3.3514,-3.3949,-3.3998,-3.3998,-3.3998,-3.3588,-3.3322,-3.3322,-3.2575,-3.2219,-3.2406,-3.1735,-3.1618,-3.2138,-3.1649,-3.1216,-3.0878,-3.0232,-3.006,-3.035,0.0,0.0,0.0,0.0,0.0,0.0,0.0,0.0,0.0,0.0,0.0,0.0,0.0,0.0,0.0,0.0,0.0,0.0,0.0,0.0,0.0,0.0,0.0,-2.8301,-2.8301,-2.8301,-2.832,-2.832,-2.832,-2.834,-2.8691,-2.8891,-2.8891,-2.9336,-2.957,-2.959,-2.959,-2.959,-2.9609,-2.9609,-2.9805,-3.0215,-3.0215,-3.0449,-3.0898,-3.0898,-3.0898,-3.0898,-3.0898,-3.0644,-3.0215,-3.0215,-2.998,-2.9646,-2.9646,-2.9646,-2.9548,-2.8652,-2.832,-2.8262,-2.7851,-2.7748,-2.7669,-2.7207,-2.7051,-2.7051,-2.7051,-2.7051,-2.7051,-2.7051,-2.7051,-2.7051,-2.7051,-2.7051,-2.7051,-2.7051,-2.7363,-2.7728,-2.7728,-2.7988,-2.8301,-2.8301,-2.8301,-2.8483,-2.8941,-3.0395,-3.154,-3.1565,-3.2441,-3.3284,-3.3516,-3.3562,0.0,-3.4001,-3.4001,-3.4001,-3.4001,-3.3771,-3.3562,-3.3608,-3.2441,-3.1879,-3.2517,-3.0553,-3.0118,-3.1632,-3.0758,-3.0193,-3.017,-2.8676,-2.888,-3.0769,0.0,0.0,0.0,0.0,0.0,0.0,0.0,0.0,0.0,0.0,0.0,0.0,0.0,0.0,0.0,0.0,0.0,0.0,0.0,0.0,0.0,-2.8301,-2.8301,-2.8301,-2.8301,-2.8398,-2.8711,-2.875,-2.8758,-2.8868,-2.9003,-2.9061,-2.9061,-2.9176,-2.937,-2.9755,-2.9774,-2.9795,-2.9813,-2.9813,-2.9871,-2.9985,-2.9985,-3.0043,-3.0157,-3.0157,-3.0157,-3.0157,-3.0157,-3.0217,-3.0335,-3.0335,-3.0257,-3.0019,-3.0019,-2.9844,-2.9607,-2.9372,-2.9023,-2.873,-2.8613,-2.8379,-2.8105,-2.7988,-2.7949,-2.7949,-2.7949,-2.7949,-2.7949,-2.7949,-2.7949,-2.7949,-2.7949,-2.7949,-2.7949,-2.7949,-2.8027,-2.8125,-2.8125,-2.8203,-2.8301,-2.8301,-2.8301,-2.8368,-2.8496,-2.9539,-3.0399,-3.0422,-3.0678,-3.1343,-3.2528,-3.2742,-3.317,-3.4438,-3.3884,-3.3739,-3.4486,-3.3457,-3.3029,-3.3813,-3.3242,-3.2886,-3.3092,-3.2534,-3.202,-3.1623,-3.1067,-3.0238,-2.9143,-2.8688,-2.8538,0.0,0.0,0.0,0.0,0.0,0.0,0.0,0.0,0.0,0.0,0.0,0.0,0.0,0.0,0.0,0.0,0.0,0.0,0.0,0.0,0.0,0.0,-2.8061,-2.8176,-2.8176,-2.8393,-2.8657,-2.892,-2.8978,-2.8964,-2.8878,-2.9069,-2.9165,-2.9165,-2.9336,-2.9527,-2.9852,-2.9852,-2.9851,-2.9922,-2.9922,-2.9922,-2.9922,-2.9922,-2.9922,-2.9922,-2.9922,-2.9922,-2.9922,-2.9922,-2.9981,-3.0216,-3.0216,-3.014,-3.0065,-3.0065,-2.993,-2.9736,0.0,0.0,0.0,0.0,-2.9043,-2.8828,-2.8828,-2.8828,-2.8828,-2.8828,-2.8828,-2.8828,-2.8828,-2.8828,-2.8828,-2.8828,-2.8828,-2.8828,-2.8828,-2.8828,-2.8828,-2.8828,-2.8828,-2.8828,-2.8828,-2.8828,-2.8828,-2.8828,-2.9351,0.0,-2.9808,-3.0312,-3.0992,-3.1928,-3.2072,-3.2411,-3.3327,-3.2901,-3.275,-3.34,-3.2628,-3.232,-3.2912,-3.2293,0.0,0.0,0.0,-3.0754,-3.029,-3.0075,0.0,0.0,0.0,-2.7925,-2.822,-2.7807,0.0,0.0,-2.9659,-2.9305,0.0,0.0,0.0,0.0,0.0,0.0,0.0,0.0,0.0,0.0,0.0,0.0,0.0,0.0,0.0,0.0,-2.7784,-2.8067,-2.8124,-2.8622,-2.8998,-2.9104,-2.9143,-2.8993,-2.871,-2.9107,-2.9334,-2.9334,-2.9655,-2.9863,-2.9863,-2.9863,0.0,0.0,0.0,-2.9804,-2.9804,-2.9804,-2.9804,-2.9804,-2.9804,-2.9804,-2.9804,-2.9804,-2.9804,-2.9863,-2.9863,-2.9863,-2.9922,-2.9922,-2.9922,-2.9905,-2.9677,-2.9648,-2.9629,-2.959,-2.9514,-2.9514,-2.9514,0.0,0.0,-2.9514,-2.9514,-2.9514,-2.9514,-2.9514,-2.9514,-2.9514,-2.957,-2.9626,-2.9626,-2.9626,-2.9626,-2.9626,-2.9626,-2.9626,-2.9626,-2.9626,-2.9626,-2.9626,-2.9626,-2.9626,-2.9626,-3.0562,-3.143,-3.1533,-3.1533,-3.1584,-3.1738,-3.1636,-3.1584,-3.1738,-3.1592,0.0,-3.1651,-3.0681,-3.0315,-3.0874,-2.9044,-2.8141,-2.859,-2.8469,-2.859,-2.9031,-2.7369,-2.7166,-2.8528,-2.763,-2.8062,-2.9783,-2.9098,-2.8792,0.0,0.0,0.0,0.0,0.0,0.0,0.0,0.0,0.0,0.0,0.0,0.0,0.0,0.0,0.0,-2.7859,-2.8219,-2.8634,-2.9032,-2.9127,-2.9222,-2.9241,-2.926,-2.9258,-2.9287,-2.9399,-2.9456,-2.9456,-2.9512,-2.9568,-2.9568,-2.9568,-2.945,-2.9153,-2.9153,-2.9153,-2.9153,-2.9153,-2.9153,-2.9153,-2.9153,0.0,-2.9153,-2.9153,-2.9331,-2.9568,-2.9568,-2.9686,-2.9922,-2.9922,-2.9922,-2.9884,-2.9776,-2.9927,-3.0039,-2.9426,-2.9178,-2.9178,-2.8916,-2.8785,-2.8785,-2.8785,-2.8785,-2.8785,-2.8785,-2.8954,0.0,-2.9178,-2.9402,-2.9626,-2.9626,-2.9626,-2.9626,-2.9626,-2.9626,-2.9626,-2.9626,-2.9626,-2.9626,-2.9626,-2.9626,-2.9626,-2.9626,-2.9802,-3.0287,-3.1117,-3.1279,-3.1602,-3.2509,-3.187,-3.1655,-3.2563,-3.1551,-3.1159,-3.1976,-3.1576,-3.1338,-3.1455,-3.0202,-2.9394,-2.9145,-2.8296,-2.7736,-2.7432,-2.7097,-2.7038,-2.7342,-2.7141,-2.7063,-2.7195,-2.9004,-3.0064,0.0,0.0,0.0,0.0,0.0,0.0,0.0,0.0,0.0,0.0,0.0,-2.7606,-2.7488,0.0,-2.7846,-2.7865,-2.8218,-2.8553,-2.8834,-2.9021,-2.921,-2.9385,-2.9385,-2.9343,-2.9253,-2.9272,-2.9272,-2.9272,-2.9272,-2.9272,-2.9272,-2.9272,-2.9153,-2.8993,-2.8975,-2.8975,-2.8975,-2.8975,-2.8975,-2.8975,-2.8975,-2.8975,-2.8975,-2.8975,-2.9094,-2.9272,-2.9272,-2.9331,-2.945,-2.945,-2.9568,-2.9726,-2.9636,-2.9774,-2.9988,-2.9661,-2.947,-2.947,-2.9316,-2.9239,-2.9239,-2.9239,-2.9239,-2.9239,-2.9239,-2.9354,-2.947,-2.947,-2.9757,-2.9986,-2.9986,-3.0101,-3.0234,-3.0234,-3.0234,-3.0234,-3.0234,-3.0234,-3.0234,-3.0234,-3.0234,-3.0234,-3.0234,-3.0234,-3.0305,-3.0389,-3.0419,-3.0585,-3.1189,-3.075,-3.064,-3.1189,-3.0547,-3.0316,-3.0838,-3.0686,-3.0512,-3.0284,-2.97,-2.9232,-2.881,-2.8285,-2.7773,-2.7344,-2.7169,-2.702,-2.6807,-2.6654,-2.6793,-2.7262,-2.857,-2.9382,0.0,0.0,0.0,0.0,0.0,0.0,0.0,-2.7584,-2.7406,-2.7373,-2.7392,-2.7469,-2.7605,-2.7698,-2.7808,-2.7895,-2.8242,-2.8517,-2.8517,-2.8792,-2.9094,-2.939,-2.939,-2.9272,-2.9035,-2.8975,-2.8975,-2.8975,-2.8975,-2.8975,-2.8975,-2.8975,-2.8975,-2.8975,-2.8975,-2.8975,-2.8975,-2.8975,-2.8975,-2.8975,-2.8975,-2.8975,-2.8975,-2.8975,-2.8975,-2.8975,-2.8975,-2.8975,-2.8975,-2.8975,-2.9153,-2.939,-2.939,-2.9509,-2.9745,-2.9804,-2.9804,-2.9804,-2.9745,-2.9745,-2.9745,-2.9745,-2.9745,-2.9745,-2.9745,-2.9745,-2.9804,-2.9804,-3.0039,-3.0333,-3.0333,-3.0528,-3.0704,-3.0762,-3.082,-3.082,-3.082,-3.082,-3.0762,-3.0704,-3.0704,-3.0704,-3.0704,-3.0704,-3.0529,-2.9941,-2.9824,-2.9824,-2.9824,-2.9824,-2.9824,-2.9824,-2.9746,-2.9668,-2.9626,-2.9514,-2.9358,-2.8953,-2.8878,-2.8703,-2.833,-2.8257,-2.8062,-2.774,-2.7405,-2.7075,-2.673,-2.6489,-2.6879,-2.7854,-2.7854,-2.8235,-2.8301,-2.8121,-2.7853,-2.7584,-2.7476,-2.7368,0.0,-2.726,-2.7373,-2.7253,-2.7382,-2.7623,-2.7731,-2.8061,-2.8336,-2.8315,-2.8663,-2.892,-2.892,-2.8957,-2.8975,-2.9035,-2.9035,-2.9035,-2.8975,-2.8975,-2.8975,-2.8975,-2.8975,-2.8975,-2.8975,-2.8975,-2.8975,-2.8975,-2.8975,-2.8975,-2.8975,-2.8975,-2.8975,-2.8975,-2.8975,-2.8975,-2.8975,-2.8975,-2.8975,-2.8975,-2.8975,-2.8975,-2.8975,-2.8975,-2.9035,-2.9035,-2.9035,-2.9035,-2.9153,-2.945,-2.9568,-2.9509,-2.9213,-2.9094,-2.9094,-2.9094,-2.9094,-2.9094,-2.9094,-2.9331,-2.9568,-2.9568,-2.9745,-2.9981,-2.9981,-2.9981,-3.0098,-3.0392,-3.045,-3.045,-3.045,-3.045,-3.0392,-3.0039,-2.9981,-2.9981,-2.9981,-2.9981,-3.0197,-3.0704,-3.0742,-3.0742,-3.0742,-3.0742,-3.0742,-3.0742,-3.0371,-2.998,-2.9609,-2.9346,-2.9103,-2.9064,-2.8784,-2.8593,-2.8449,-2.8191,-2.8,-2.7902,-2.7561,-2.7327,-2.7289,-2.7289,-2.7153,-2.695,-2.695,-2.8004,-2.7799,-2.7691,-2.7584,-2.7422,-2.726,-2.7227,-2.7306,-2.7307,-2.7308,-2.7491,-2.7639,-2.7825,-2.8116,-2.8278,-2.8462,-2.87,-2.8883,-2.8975,-2.8975,-2.8975,-2.8975,-2.8975,-2.8975,-2.8975,-2.8975,-2.8975,-2.8975,-2.8975,-2.8975,-2.8975,-2.8975,-2.8975,-2.8975,-2.8975,-2.8975,-2.8975,-2.8975,-2.8975,-2.8975,-2.8975,-2.8975,-2.8975,-2.8975,-2.8975,-2.8975,-2.8975,-2.8975,-2.8975,-2.8975,-2.8975,-2.8975,-2.8975,-2.8975,-2.8975,-2.9035,-2.9153,-2.9213,-2.9213,-2.9035,-2.8975,-2.8975,-2.8975,-2.8975,-2.8975,-2.8975,-2.9094,-2.9213,-2.9213,-2.945,-2.9686,-2.9686,-2.9804,-2.9922,-3.0098,-3.0098,-3.0098,-3.0098,-3.0098,-3.0098,-2.9922,-2.9922,-2.9922,-2.9922,-2.9922,-2.9981,-3.0294,-3.0352,-3.0352,-3.0352,-3.0352,-3.0352,-3.0352,-3.0121,-2.993,-2.9757,-2.9642,-2.947,-2.9241,-2.9108,-2.8861,-2.8557,-2.8426,-2.8331,-2.8327,-2.7804,-2.7527,-2.7527,-2.712,-2.6915,-2.6908,-2.6908,-2.7487,-2.7368,-2.726,-2.7298,-2.7356,-2.7212,-2.7159,-2.7586,-2.7511,-2.7453,-2.7856,-2.8005,-2.8058,-2.848,-2.8553,-2.8645,-2.8938,-2.8975,-2.8975,-2.8975,-2.8975,-2.8975,-2.8975,-2.8975,-2.8975,-2.8975,-2.8975,-2.8975,-2.8975,-2.8975,-2.8975,-2.8975,-2.8975,-2.8975,-2.8975,-2.8975,-2.8975,-2.8975,-2.8975,-2.8975,-2.8975,-2.8975,-2.8975,-2.8975,-2.8975,-2.8975,-2.8975,-2.8975,-2.8975,-2.8975,-2.8975,-2.8975,-2.8975,-2.8975,-2.8975,-2.8975,-2.8975,-2.8975,-2.8975,-2.8975,-2.8975,-2.8975,-2.8975,-2.8975,-2.8975,-2.8975,-2.8975,-2.8975,-2.8975,-2.9153,-2.939,-2.939,-2.9509,-2.9686,-2.9745,-2.9804,-2.9804,-2.9804,-2.9804,-2.9745,-2.9686,-2.9627,-2.9627,-2.9627,-2.9627,-2.9627,-2.9627,-2.9627,-2.9686,-2.9863,-2.9922,-2.9922,-2.9922,-2.9922,-2.9922,-2.9922,-2.9804,-2.9691,-2.9389,-2.9254,-2.9066,-2.8691,-2.8577,-2.8521,-2.8521,-2.794,-2.7679,-2.7623,-2.716,-2.7013,-2.7215,-2.7215,-2.7269,-2.7098,-2.6989,-2.7028,-2.716,-2.7215,-2.7326,-2.7711,-2.7803,-2.7932,-2.8297,-2.837,-2.8498,-2.8902,-2.8975,-2.8975,-2.8975,-2.8975,-2.8975,-2.8975,-2.8975,-2.8975,-2.8975,-2.8975,-2.8975,-2.8975,-2.8975,-2.8975,-2.8975,-2.8975,-2.8975,-2.8975,-2.8975,-2.8975,-2.8975,-2.8975,-2.8975,-2.8975,-2.8975,-2.8975,-2.8975,-2.8975,-2.8975,-2.8975,-2.8975,-2.8975,-2.8975,-2.8975,-2.8975,-2.8975,-2.8975,-2.8975,-2.8975,-2.8975,-2.8975,-2.8975,-2.8975,-2.8975,-2.8975,-2.8975,-2.8975,-2.8975,-2.8975,-2.8975,-2.8975,-2.8975,-2.8975,-2.8975,-2.8975,-2.8993,-2.9035,-2.9035,-2.9035,-2.9094,-2.945,-2.9509,-2.9509,-2.9509,-2.9509,-2.945,-2.9094,-2.9035,-2.9035,-2.9035,-2.9035,-2.9035,-2.9035,-2.9035,-2.9213,-2.9804,-2.9922,-2.9922,-2.9922,-2.9922,-2.9922,-2.9922,-2.9686,-2.949,-2.949,-2.9194,-2.895,-2.8816,-2.8544,-2.836,-2.8238,-2.7917,-2.7803,-2.7803,-2.7785,-2.7785,-2.7785,-2.7785,-2.7583,-2.705,-2.7124,-2.7234,-2.7528,-2.762,-2.7673,-2.8095,-2.8187,-2.8297,-2.87,-2.8792,-2.8828,-2.8957,-2.8975,-2.8975,-2.8975,-2.8975,-2.8975,-2.8975,-2.8975,-2.8975,-2.8975,-2.8975,-2.8975,-2.8975,-2.8975,-2.8975,-2.8975,-2.8975,-2.8975,-2.8975,-2.8975,-2.8975,-2.8975,-2.8975,-2.8975,-2.8975,-2.8975,-2.8975,-2.8975,-2.8975,-2.8975,-2.8975,-2.8975,-2.8975,-2.8975,-2.8975,-2.8975,-2.8975,-2.8975,-2.8975,-2.8975,-2.8975,-2.8975,-2.8975,-2.8975,-2.8975,-2.8975,-2.8975,-2.8975,-2.8975,-2.8975,-2.8975,-2.8975,-2.8975,-2.8975,-2.8975,-2.8975,-2.8975,-2.8975,-2.8975,-2.8975,-2.9035,-2.9153,-2.9153,-2.9153,-2.9153,-2.9153,-2.9153,-2.9035,-2.8975,-2.8975,-2.8975,-2.8975,-2.8975,-2.8975,-2.8975,-2.9035,-2.9272,-2.9272,-2.9272,-2.9272,-2.9272,-2.9272,-2.9272,-2.9213,-2.9153,-2.9153,-2.9035,-2.8979,-2.895,-2.8832,-2.8777,-2.8747,-2.8373,-2.8187,-2.8187,-2.7893,-2.7822,-2.7822,-2.7822,-2.7748,-2.7105,-2.727,-2.749,-2.7893,-2.7985,-2.8095,-2.8517,-2.8608,-2.8682,-2.8938,-2.8975,-2.8975,-2.8975,-2.8975,-2.8975,-2.8975,-2.8975,-2.8975,-2.8975,-2.8975,-2.8975,-2.8975,-2.8975,-2.8975,-2.8975,-2.8975,-2.8975,-2.8975,-2.8975,-2.8975,-2.8975,-2.8975,-2.8975,-2.8975,-2.8975,-2.8975,-2.8975,-2.8975,-2.8975,-2.8975,-2.8975,-2.8975,-2.8975,-2.8975,-2.8975,-2.8975,-2.8975,-2.8975,-2.8975,-2.8975,-2.8975,-2.8975,-2.8975,-2.8975,-2.8975,-2.8975,-2.8975,-2.8975,-2.8975,-2.8975,-2.8975,-2.8975,-2.8975,-2.8975,-2.8975,-2.8975,-2.8975,-2.8975,-2.8975,-2.8975,-2.8975,-2.8975,-2.8975,-2.8975,-2.8975,-2.8975,-2.8975,-2.8975,-2.8975,-2.8975,-2.8975,-2.8975,-2.8975,-2.8975,-2.8975,-2.8975,-2.8975,-2.8975,-2.8975,-2.8975,-2.8975,-2.8975,-2.8975,-2.8975,-2.8975,-2.8975,-2.8975,-2.8975,-2.8975,-2.8975,-2.8975,-2.8975,-2.8975,-2.8975,-2.8737,-2.8608,-2.8608,-2.8333,-2.8263,-2.8263,-2.8263,-2.8132,-2.7233,-2.7508,-2.795,-2.8315,-2.8425,-2.8517,-2.8902,-2.8975,-2.8975,-2.8975,-2.8975,-2.8975,-2.8975,-2.8975,-2.8975,-2.8975,-2.8975,-2.8975,-2.8975,-2.8975,-2.8975,-2.8975,-2.8975,-2.8975,-2.8975,-2.8975,-2.8975,-2.8975,-2.8975,-2.8975,-2.8975,-2.8975,-2.8975,-2.8975,-2.8975,-2.8975,-2.8975,-2.8975,-2.8975,-2.8975,-2.8975,-2.8975,-2.8975,-2.8975,-2.8975,-2.8975,-2.8975,-2.8975,-2.8975,-2.8975,-2.8975,-2.8975,-2.8975,-2.8975,-2.8975,-2.8975,-2.8975,-2.8975,-2.8975,-2.8975,-2.8975,-2.8975,-2.8975,-2.8975,-2.8975,-2.8975,-2.8975,-2.8975,-2.8975,-2.8975,-2.8975,-2.8975,-2.8975,-2.8975,-2.8975,-2.8975,-2.8975,-2.8975,-2.8975,-2.8975,-2.8975,-2.8975,-2.8975,-2.8975,-2.8975,-2.8975,-2.8975,-2.8975,-2.8975,-2.8975,-2.8975,-2.8975,-2.8975,-2.8975,-2.8975,-2.8975,-2.8975,-2.8975,-2.8975,-2.8975,-2.8975,-2.8975,-2.8975,-2.8975,-2.8975,-2.8975,-2.8975,-2.8975,-2.8975,-2.8975,-2.8975,-2.8792,-2.7911,-2.815,-2.8333,-2.8737,-2.8828,-2.8865,-2.8957,-2.8975,-2.8975,-2.8975,-2.8975,-2.8975,-2.8975,-2.8975,-2.8975,-2.8975,-2.8975,-2.8975,-2.8975,-2.8975,-2.8975,-2.8975,-2.8975,-2.8975,-2.8975,-2.8975,-2.8975,-2.8975,-2.8975,-2.8975,-2.8975,-2.8975,-2.8975,-2.8975,-2.8975,-2.8975,-2.8975,-2.8975,-2.8975,-2.8975,-2.8975,-2.8975,-2.8975,-2.8975,-2.8975,-2.8975,-2.8975,-2.8975,-2.8975,-2.8975,-2.8975,-2.8975,-2.8975,-2.8975,-2.8975,-2.8975,-2.8975,-2.8975,-2.8975,-2.8975,-2.8975,-2.8975,-2.8975,-2.8975,-2.8975,-2.8975,-2.8975,-2.8975,-2.8975,-2.8975,-2.8975,-2.8975,-2.8975,-2.8975,-2.8975,-2.8975,-2.8975,-2.8975,-2.8975,-2.8975,-2.8975,-2.8975,-2.8975,-2.8975,-2.8975,-2.8975,-2.8975,-2.8975,-2.8975,-2.8975,-2.8975,-2.8975,-2.8975,-2.8975,-2.8975,-2.8975,-2.8975,-2.8975,-2.8975,-2.8975,-2.8975,-2.8975,-2.8975,-2.8975,-2.8975,-2.8975,-2.8975,-2.8975,-2.8975,-2.8975,-2.8975,-2.8938,-2.8223,-2.8517,-2.87,-2.892,-2.8975,-2.8975,-2.8975,-2.8975,-2.8975,-2.8975,-2.8975,-2.8975,-2.8975,-2.8975,-2.8975,-2.8975,-2.8975,-2.8975,-2.8975,-2.8975,-2.8975,-2.8975,-2.8975,-2.8975,-2.8975,-2.8975,-2.8975,-2.8975,-2.8975,-2.8975,-2.8975,-2.8975,-2.8975,-2.8975,-2.8975,-2.8975,-2.8975,-2.8975,-2.8975,-2.8975,-2.8975,-2.8975,-2.8975,-2.8975,-2.8975,-2.8975,-2.8975,-2.8975,-2.8975,-2.8975,-2.8975,-2.8975,-2.8975,-2.8975,-2.8975,-2.8975,-2.8975,-2.8975,-2.8975,-2.8975,-2.8975,-2.8975,-2.8975,-2.8975,-2.8975,-2.8975,-2.8975,-2.8975,-2.8975,-2.8975,-2.8975,-2.8975,-2.8975,-2.8975,-2.8975,-2.8975,-2.8975,-2.8975,-2.8975,-2.8975,-2.8975,-2.8975,-2.8975,-2.8975,-2.8975,-2.8975,-2.8975,-2.8975,-2.8975,-2.8975,-2.8975,-2.8975,-2.8975,-2.8975,-2.8975,-2.8975,-2.8975,-2.8975,-2.8975,-2.8975,-2.8975,-2.8975,-2.8975,-2.8975,-2.8975,-2.8975,-2.8975,-2.8975,-2.8975,-2.8975,-2.8975,-2.8975,-2.8352,-2.8718,-2.8975,-2.8975,-2.8975,-2.8975,-2.8975,-2.8975,-2.8975,-2.8975,-2.8975,-2.8975,-2.8975,-2.8975,-2.8975,-2.8975,-2.8975,-2.8975,-2.8975,-2.8975,-2.8975,-2.8975,-2.8975,-2.8975,-2.8975,-2.8975,-2.8975,-2.8975,-2.8975,-2.8975,-2.8975,-2.8975,-2.8975,-2.8975,-2.8975,-2.8975,-2.8975,-2.8975,-2.8975,-2.8975,-2.8975,-2.8975,-2.8975,-2.8975,-2.8975,-2.8975,-2.8975,-2.8975,-2.8975,-2.8975,-2.8975,-2.8975,-2.8975,-2.8975,-2.8975,-2.8975,-2.8975,-2.8975,-2.8975,-2.8975,-2.8975,-2.8975,-2.8975,-2.8975,-2.8975,-2.8975,-2.8975,-2.8975,-2.8975,-2.8975,-2.8975,-2.8975,-2.8975,-2.8975,-2.8975,-2.8975,-2.8975,-2.8975,-2.8975,-2.8975,-2.8975,-2.8975,-2.8975,-2.8975,-2.8975,-2.8975,-2.8975,-2.8975,-2.8975,-2.8975,-2.8975,-2.8975,-2.8975,-2.8975,-2.8975,-2.8975,-2.8975,-2.8975,-2.8975,-2.8975,-2.8975,-2.8975,-2.8975,-2.8975,-2.8975,-2.8975,-2.8975,-2.8975,-2.8975,-2.8975,-2.8975,-2.8975,-2.8682,-2.8938,-2.8975,-2.8975,-2.8975,-2.8975,-2.8975,-2.8975,-2.8975,-2.8975,-2.8975,-2.8975,-2.8975,-2.8975,-2.8975,-2.8975,-2.8975,-2.8975,-2.8975,-2.8975,-2.8975,-2.8975,-2.8975,-2.8975,-2.8975,-2.8975,-2.8975,-2.8975,-2.8975,-2.8975,-2.8975,-2.8975,-2.8975,-2.8975,-2.8975,-2.8975,-2.8975,-2.8975,-2.8975,-2.8975,-2.8975,-2.8975,-2.8975,-2.8975,-2.8975,-2.8975,-2.8975,-2.8975,-2.8975,-2.8975,-2.8975,-2.8975,-2.8975,-2.8975,-2.8975,-2.8975,-2.8975,-2.8975,-2.8975,-2.8975,-2.8975,-2.8975,-2.8975,-2.8975,-2.8975,-2.8975,-2.8975,-2.8975,-2.8975,-2.8975,-2.8975,-2.8975,-2.8975,-2.8975,-2.8975,-2.8975,-2.8975,-2.8975,-2.8975,-2.8975,-2.8975,-2.8975,-2.8975,-2.8975,-2.8975,-2.8975,-2.8975,-2.8975,-2.8975,-2.8975,-2.8975,-2.8975,-2.8975,-2.8975,-2.8975,-2.8975,-2.8975,-2.8975,-2.8975,-2.8975,-2.8975,-2.8975,-2.8975,-2.8975,-2.8975,-2.8975,-2.8975,-2.8975,-2.8975,-2.8975,-2.8975,-2.8975,-2.8755,-2.8975,-2.8975,-2.8975,-2.8975,-2.8975,-2.8975,-2.8975,-2.892,-2.8718,-2.8847,-2.892,-2.8718,-2.8847,-2.8975,-2.8975,-2.8975,-2.8975,-2.8975,-2.8975,-2.8975,-2.8975,-2.8975,-2.8975,-2.8975,-2.8975,-2.8975,-2.8975,-2.8975,-2.8975,-2.8975,-2.8975,-2.8975,-2.8975,-2.8975,-2.8975,-2.8975,-2.8975,-2.8975,-2.8975,-2.8975,-2.9085,-2.9287,-2.9287,-2.9415,-2.9617,-2.9617,-2.9617,-2.9599,-2.9379,-2.9287,-2.9269,-2.9067,-2.8975,-2.8975,-2.8975,-2.8975,-2.8975,-2.8975,-2.8975,-2.9012,-2.9214,-2.914,-2.8975,-2.8975,-2.8975,-2.8975,-2.8975,-2.8975,-2.8975,-2.8975,-2.8975,-2.8975,-2.8975,-2.8975,-2.8975,-2.8975,-2.8975,-2.8975,-2.8975,-2.8975,-2.8975,-2.8975,-2.8975,-2.8975,-2.8975,-2.8975,-2.8975,-2.8975,-2.8975,-2.8975,-2.8975,-2.8975,-2.8975,-2.8975,-2.8975,-2.8975,-2.8975,-2.8975,-2.8975,-2.8975,-2.8975,-2.8975,-2.8975,-2.8975,-2.8975,-2.8975,-2.8975,-2.8975,-2.8975,-2.8975,-2.8975,-2.8663,-2.892,-2.8975,-2.8975,-2.8975,-2.8975,-2.8975,-2.892,-2.8773,-2.8462,-2.8572,-2.8645,-2.8443,-2.8645,-2.8883,-2.8975,-2.8975,-2.8975,-2.8975,-2.8975,-2.8975,-2.8975,-2.8975,-2.8975,-2.8975,-2.8975,-2.8975,-2.8975,-2.8975,-2.8975,-2.8975,-2.8975,-2.8975,-2.8975,-2.8975,-2.8975,-2.8975,-2.8975,-2.903,-2.9104,-2.9104,-2.9324,-2.9709,-2.9709,-2.9892,-3.0204,-3.0204,-3.0204,-3.0167,-2.9837,-2.9709,-2.9672,-2.936,-2.925,-2.925,-2.925,-2.925,-2.925,-2.925,-2.925,-2.9287,-2.9599,-2.9434,-2.9122,-2.9214,-2.925,-2.925,-2.925,-2.925,-2.925,-2.925,-2.925,-2.925,-2.925,-2.925,-2.925,-2.925,-2.925,-2.9214,-2.9122,-2.9104,-2.9085,-2.8993,-2.8975,-2.8975,-2.8975,-2.8975,-2.8975,-2.8975,-2.8975,-2.8975,-2.8975,-2.8975,-2.8975,-2.8975,-2.8975,-2.8975,-2.8975,-2.8975,-2.8975,-2.8975,-2.8975,-2.8975,-2.8975,-2.8975,-2.8975,-2.8975,-2.8975,-2.8975,-2.8975,-2.8975,-2.8975,-2.8315,-2.8718,-2.8975,-2.8975,-2.8975,-2.8975,-2.8975,-2.87,-2.8443,-2.8407,-2.8113,-2.7985,-2.8333,-2.8425,-2.8572,-2.892,-2.8975,-2.8975,-2.8975,-2.8975,-2.8975,-2.8975,-2.8975,-2.8975,-2.8975,-2.8975,-2.8975,-2.8975,-2.8975,-2.8975,-2.8975,-2.8975,-2.8975,-2.8975,-2.8975,-2.8975,-2.8975,-2.8975,-2.9159,-2.9525,-2.9525,-2.9745,-3.0149,-3.0149,-3.0167,-3.0204,-3.0204,-3.0204,-3.0204,-3.0167,-3.0149,-3.013,-3.0112,-3.0094,-3.0094,-3.0094,-3.0094,-3.0094,-3.0094,-3.0094,-3.0094,-3.013,-2.9855,-2.9599,-2.9965,-3.0094,-3.0094,-3.0094,-3.0094,-3.0094,-3.0094,-3.0094,-3.0094,-3.0094,-3.0094,-3.0094,-3.0094,-3.0094,-2.9965,-2.9599,-2.9525,-2.9397,-2.9048,-2.8975,-2.8975,-2.8975,-2.8975,-2.8975,-2.8975,-2.8975,-2.8975,-2.8975,-2.8975,-2.8975,-2.8975,-2.8975,-2.8975,-2.8975,-2.8975,-2.8975,-2.8975,-2.8975,-2.8975,-2.8975,-2.8975,-2.8975,-2.8975,-2.8975,-2.8975,-2.8975,-2.8975,-2.8975,-2.8223,-2.8517,-2.8682,-2.892,-2.8975,-2.892,-2.8682,-2.8498,-2.826,-2.7765,-2.771,-2.7877,-2.7985,-2.8223,-2.8517,-2.892,-2.8975,-2.8975,-2.8975,-2.8975,-2.8975,-2.8975,-2.8975,-2.8975,-2.8975,-2.8975,-2.8975,-2.8975,-2.8975,-2.8975,-2.8975,-2.8975,-2.8975,-2.8975,-2.8975,-2.8975,-2.8975,-2.9214,-2.9415,-2.958,-2.9837,-3.0167,-3.0552,-3.0552,-3.0681,-3.0901,-3.0901,-3.0901,-3.0882,-3.0662,-3.0552,-3.0534,-3.0296,-3.0204,-3.0204,-3.0204,-3.0204,-3.0204,-3.0204,-3.0204,-3.0241,-3.0479,-3.0442,-3.0296,-3.0222,-3.0204,-3.0204,-3.0204,-3.0204,-3.0204,-3.0204,-3.0204,-3.0204,-3.0204,-3.0204,-3.0204,-3.0204,-3.0204,-3.0149,-2.9984,-2.9947,-2.9892,-2.9745,-2.9709,-2.9709,-2.9709,-2.9709,-2.9709,-2.9709,-2.9709,-2.9617,-2.936,-2.9122,-2.8975,-2.8975,-2.8975,-2.8975,-2.8975,-2.8975,-2.8975,-2.8975,-2.8975,-2.8975,-2.8975,-2.8975,-2.8975,-2.8975,-2.8975,-2.8975,-2.8975,-2.8975,-2.8975,-2.7875,-2.8113,-2.8278,-2.8553,-2.8627,-2.8553,-2.8278,-2.8113,-2.7875,-2.7288,-2.7306,-2.7546,-2.7785,-2.8003,-2.837,-2.8902,-2.8975,-2.8975,-2.8975,-2.8975,-2.8975,-2.8975,-2.8975,-2.8975,-2.8975,-2.8975,-2.8975,-2.8975,-2.8975,-2.8975,-2.8975,-2.8975,-2.8975,-2.8975,-2.8975,-2.903,-2.9159,-2.9434,-2.969,-2.9929,-3.0222,-3.0589,-3.0974,-3.0974,-3.1121,-3.1377,-3.1377,-3.1377,-3.1359,-3.1084,-3.0974,-3.0937,-3.0662,-3.0552,-3.0552,-3.0552,-3.0552,-3.0552,-3.0552,-3.0552,-3.0589,-3.0882,-3.0974,-3.0919,-3.0626,-3.0552,-3.0552,-3.0552,-3.0552,-3.0552,-3.0552,-3.0552,-3.0552,-3.0552,-3.0552,-3.0552,-3.0552,-3.0552,-3.0516,-3.0406,-3.0369,-3.0332,-3.0222,-3.0204,-3.0204,-3.0204,-3.0204,-3.0204,-3.0204,-3.0204,-3.0094,-2.98,-2.9507,-2.925,-2.9012,-2.8975,-2.8975,-2.8975,-2.8975,-2.8975,-2.8975,-2.8975,-2.8975,-2.8975,-2.8975,-2.8975,-2.8975,-2.8975,-2.8975,-2.8975,-2.8975,-2.8975,-2.7196,-2.7471,-2.7822,-2.784,-2.784,-2.784,-2.7822,-2.7528,-2.7196,-2.7178,-2.6866,-2.6848,-2.7675,-2.7822,-2.8097,-2.8847,-2.8975,-2.8975,-2.8975,-2.8975,-2.8975,-2.8975,-2.8975,-2.8975,-2.8975,-2.8975,-2.8975,-2.8975,-2.8975,-2.8975,-2.8975,-2.8975,-2.8975,-2.8975,-2.8975,-2.9177,-2.9562,-2.9562,-2.9984,-3.0772,-3.0772,-3.0992,-3.1377,-3.1377,-3.1377,-3.1377,-3.1377,-3.1377,-3.1377,-3.1377,-3.1377,-3.1377,-3.1359,-3.1359,-3.1359,-3.1359,-3.1359,-3.1359,-3.1359,-3.1359,-3.1359,-3.1377,-3.1377,-3.1377,-3.1359,-3.1359,-3.1359,-3.1359,-3.1359,-3.1359,-3.1359,-3.1359,-3.1359,-3.1359,-3.1359,-3.1359,-3.1359,-3.1359,-3.1249,-3.0864,-3.0791,-3.0662,-3.0277,-3.0204,-3.0204,-3.0204,-3.0204,-3.0204,-3.0204,-3.0204,-3.0204,-3.0185,-3.0185,-2.9855,-2.9048,-2.8975,-2.8975,-2.8975,-2.8975,-2.8975,-2.8975,-2.8975,-2.8975,-2.8975,-2.8975,-2.8975,-2.8975,-2.8975,-2.8975,-2.8975,-2.8975,-2.8975,-2.7105,-2.727,-2.7491,-2.7748,-2.7822,-2.7748,-2.7416,-2.727,-2.7105,-2.683,-2.6683,-2.683,-2.7675,-2.7822,-2.8079,-2.8847,-2.8975,-2.8975,-2.8975,-2.8975,-2.8975,-2.8975,-2.8975,-2.8975,-2.8975,-2.8975,-2.8975,-2.8975,-2.8975,-2.8975,-2.8975,-2.8975,-2.8975,-2.8975,-2.925,-2.9452,-2.9562,-3.013,-3.0534,-3.0791,-3.1066,-3.1249,-3.1377,-3.1377,-3.1377,-3.1377,-3.1377,-3.1377,-3.1377,-3.1377,-3.1377,-3.1377,-3.1377,-3.1377,-3.1377,-3.1377,-3.1377,-3.1377,-3.1377,-3.1377,-3.1377,-3.1377,-3.1377,-3.1377,-3.1377,-3.1377,-3.1377,-3.1377,-3.1377,-3.1377,-3.1377,-3.1377,-3.1377,-3.1377,-3.1377,-3.1377,-3.1377,-3.1377,-3.1341,-3.1212,-3.1194,-3.1157,-3.1029,-3.1011,-3.1011,-3.1011,-3.1011,-3.1011,-3.1011,-3.1011,-3.0901,-3.0626,-3.0607,-3.0387,-2.9855,-2.9544,-2.9379,-2.9379,-2.914,-2.8975,-2.8975,-2.8975,-2.8975,-2.8975,-2.8975,-2.8975,-2.8975,-2.8975,-2.8975,-2.8975,-2.8975,-2.8975,-2.6885,-2.6958,-2.7013,-2.727,-2.7381,-2.7251,-2.7013,-2.6958,-2.6885,-2.6628,-2.6591,-2.683,-2.7675,-2.7822,-2.8079,-2.8847,-2.8975,-2.8975,-2.8975,-2.8975,-2.8975,-2.8975,-2.8975,-2.8975,-2.8975,-2.8975,-2.8975,-2.8975,-2.8975,-2.8975,-2.8975,-2.8975,-2.9048,-2.9195,-2.9452,-2.9727,-3.002,-3.0534,-3.0864,-3.1011,-3.1267,-3.1377,-3.1377,-3.1377,-3.1377,-3.1377,-3.1377,-3.1377,0.0,-3.1377,-3.1377,-3.1377,-3.1377,-3.1377,-3.1377,-3.1377,-3.1377,-3.1377,-3.1377,-3.1377,-3.1377,-3.1377,-3.1377,-3.1377,-3.1377,-3.1377,-3.1377,-3.1377,-3.1377,-3.1377,-3.1377,-3.1377,-3.1377,-3.1377,-3.1377,-3.1377,-3.1377,-3.1377,-3.1377,-3.1377,-3.1377,-3.1377,-3.1377,-3.1377,-3.1377,-3.1377,-3.1377,-3.1377,-3.1377,-3.1377,-3.1286,-3.1029,-3.1011,-3.0919,-3.0662,-3.013,-2.98,-2.98,-2.958,-2.936,-2.9214,-2.9214,-2.914,-2.8993,-2.8975,-2.8975,-2.8975,-2.8975,-2.8975,-2.8975,-2.8975,-2.8975,0.0,-2.6537,-2.6591,-2.6591,-2.6537,-2.6482,-2.6482,-2.6482,0.0,-2.6482,-2.6537,-2.683,-2.7675,-2.7822,-2.8079,-2.8847,-2.8975,-2.8975,-2.8975,-2.8975,-2.8975,-2.8975,-2.8975,-2.8975,-2.8975,-2.8975,-2.8975,-2.8975,-2.8975,-2.8975,-2.8975,-2.8975,-2.9177,-2.9599,-2.9617,-3.0002,-3.0791,-3.0809,-3.1011,-3.1377,-3.1377,-3.1377,-3.1377,-3.1377,-3.1377,-3.1377,-3.1377,-3.1377,-3.1377,-3.1377,-3.1377,-3.1377,-3.1377,-3.1377,-3.1377,-3.1377,-3.1377,-3.1377,-3.1377,-3.1377,-3.1377,-3.1377,-3.1377,-3.1377,-3.1377,-3.1377,-3.1377,-3.1377,-3.1377,-3.1377,-3.1377,-3.1377,-3.1377,-3.1377,-3.1377,-3.1377,-3.1377,-3.1377,-3.1377,-3.1377,-3.1377,-3.1377,-3.1377,-3.1377,-3.1377,-3.1377,-3.1377,-3.1377,-3.1377,-3.1377,-3.1377,-3.1377,-3.1377,-3.1377,-3.1377,-3.0681,-3.0241,-3.0241,-3.0222,-3.002,-2.9635,-2.9617,-2.9434,-2.903,-2.8993,-2.8975,-2.8975,-2.8975,-2.8975,-2.8975,-2.8975,-2.8975,-2.5238,0.0,-2.6591,-2.6591,-2.5916,-2.5238,0.0,-2.5238,-2.5238,-2.5238,-2.5971,-2.683,-2.7675,-2.7822,-2.8079,-2.8847,-2.8975,-2.8975,-2.8975,-2.8975,-2.8975,-2.8975,-2.8975,-2.8975,-2.8975,-2.8975,-2.8975,-2.8975,-2.8975,-2.8975,-2.8975,-2.8975,-2.9305,-3.0039,-3.0057,-3.0296,-3.0791,-3.1084,-3.1286,-3.1377,-3.1377,-3.1377,-3.1377,-3.1377,-3.1377,-3.1377,-3.1377,-3.1377,-3.1377,-3.1377,-3.1377,-3.1377,-3.1377,-3.1377,-3.1377,-3.1377,-3.1377,-3.1377,-3.1377,-3.1377,-3.1377,-3.1377,-3.1377,-3.1377,-3.1377,-3.1377,-3.1377,-3.1377,-3.1377,-3.1377,-3.1377,-3.1377,-3.1377,-3.1377,-3.1377,-3.1377,-3.1377,-3.1377,-3.1377,-3.1377,-3.1377,-3.1377,-3.1377,-3.1377,-3.1377,-3.1377,-3.1377,-3.1377,-3.1377,-3.1377,-3.1377,-3.1377,-3.1377,-3.1377,-3.1377,-3.0937,-3.0644,-3.0644,-3.0369,-3.0167,-3.0057,-3.0057,-2.9855,-2.9452,-2.914,-2.8975,-2.8975,-2.8975,-2.8975,-2.8975,-2.8975,-2.8975,-2.4778,-2.5293,-2.5789,-2.5789,-2.5293,-2.4778,-2.4778,-2.4778,-2.4778,-2.4778,-2.5931,-2.705,-2.7711,-2.793,-2.826,-2.8883,-2.8975,-2.8975,-2.8975,-2.8975,-2.8975,-2.8975,-2.8975,-2.8975,-2.8975,-2.8975,-2.8975,-2.8975,-2.8975,-2.8975,-2.8975,-2.8975,-2.9269,-2.9892,-3.0094,-3.0479,-3.1047,-3.1267,-3.1377,-3.1377,-3.1377,-3.1377,-3.1377,-3.1377,-3.1377,-3.1377,-3.1377,-3.1377,-3.1377,-3.1377,-3.1377,-3.1377,-3.1377,-3.1377,-3.1377,-3.1377,-3.1377,-3.1377,-3.1377,-3.1377,-3.1377,-3.1377,-3.1377,-3.1377,-3.1377,-3.1377,-3.1377,-3.1377,-3.1377,-3.1377,-3.1377,-3.1377,-3.1377,-3.1377,-3.1377,-3.1377,-3.1377,-3.1377,-3.1377,-3.1377,-3.1377,-3.1377,-3.1377,-3.1377,-3.1377,-3.1377,-3.1377,-3.1377,-3.1377,-3.1377,-3.1377,-3.1377,-3.1377,-3.1377,-3.1377,-3.1176,-3.1066,-3.1066,-3.0864,-3.0662,-3.0479,-3.0479,-3.0277,-2.9874,-2.9654,-2.9452,-2.925,-2.925,-2.9159,-2.8975,-2.8975,-2.8975,-2.4278,-2.4278,-2.4278,-2.4501,-2.439,-2.4278,-2.4278,-2.439,-2.4462,-2.4345,-2.5681,-2.7026,-2.748,-2.7843,-2.8282,-2.892,-2.8975,-2.8975,-2.8975,-2.8975,-2.8975,-2.8975,-2.8975,-2.8975,-2.8975,-2.8975,-2.8975,-2.8975,-2.8975,-2.8975,-2.8975,-2.8975,-2.9159,-2.9562,-2.9984,-3.0552,-3.1286,-3.1341,-3.1377,-3.1377,-3.1377,-3.1377,-3.1377,-3.1377,-3.1377,-3.1377,-3.1377,-3.1377,-3.1377,-3.1377,-3.1377,-3.1377,-3.1377,-3.1377,-3.1377,-3.1377,-3.1377,-3.1377,-3.1377,-3.1377,-3.1377,-3.1377,-3.1377,-3.1377,-3.1377,-3.1377,-3.1377,-3.1377,-3.1377,-3.1377,-3.1377,-3.1377,-3.1377,-3.1377,-3.1377,-3.1377,-3.1377,-3.1377,-3.1377,-3.1377,-3.1377,-3.1377,-3.1377,-3.1377,-3.1377,-3.1377,-3.1377,-3.1377,-3.1377,-3.1377,-3.1377,-3.1377,-3.1377,-3.1377,-3.1377,-3.1377,-3.1377,-3.1377,-3.1377,-3.1231,-3.0901,-3.0827,-3.0626,-3.0296,-3.0241,-3.002,-2.9672,-2.9672,-2.9489,-2.9159,-2.9104,-2.9067,-2.1729,-2.1729,-2.2029,-2.303,-2.2523,-2.1729,-2.1729,-2.2523,-2.3054,-2.2263,-2.391,-2.572,-2.6451,-2.67,-2.7228,-2.8724,-2.8975,-2.8975,-2.8975,-2.8975,-2.8975,-2.8975,-2.8975,-2.8975,-2.8975,-2.8975,-2.8975,-2.8975,-2.8975,-2.8975,-2.8975,-2.8975,-2.9159,-2.9562,-2.9984,-3.0424,-3.0882,-3.1212,-3.1377,-3.1377,-3.1377,-3.1377,-3.1377,-3.1377,-3.1377,-3.1377,-3.1377,-3.1377,-3.1377,-3.1377,-3.1377,-3.1377,-3.1377,-3.1377,-3.1377,-3.1377,-3.1377,-3.1377,-3.1377,-3.1377,-3.1377,-3.1377,-3.1377,-3.1377,-3.1377,-3.1377,-3.1377,-3.1377,-3.1377,-3.1377,-3.1377,-3.1377,-3.1377,-3.1377,-3.1377,-3.1377,-3.1377,-3.1377,-3.1377,-3.1377,-3.1377,-3.1377,-3.1377,-3.1377,-3.1377,-3.1377,-3.1377,-3.1377,-3.1377,-3.1377,-3.1377,-3.1377,-3.1377,-3.1377,-3.1377,-3.1377,-3.1377,-3.1377,-3.1377,-3.1341,-3.1286,-3.0974,-3.0754,-3.0699,-3.0369,-3.0167,-3.0112,-3.0112,-3.0075,-3.0002,-2.9654,-2.9489,-2.1174,-2.073,-2.0385,-2.0888,-2.1631,-2.2184,-2.2184,-2.258,-2.29,-2.2613,-2.3642,-2.492,-2.6143,-2.661,-2.7235,-2.876,-2.8975,-2.8975,-2.8975,-2.8975,-2.8975,-2.8975,-2.8975,-2.8975,-2.8975,-2.8975,-2.8975,-2.8975,-2.8975,-2.8975,-2.8975,-2.8975,-2.9067,-2.925,-2.9874,-3.0296,-3.0461,-3.1066,-3.1377,-3.1377,-3.1377,-3.1377,-3.1377,-3.1377,-3.1377,-3.1377,-3.1377,-3.1377,-3.1377,-3.1377,-3.1377,-3.1377,-3.1377,-3.1377,-3.1377,-3.1377,-3.1377,-3.1377,-3.1377,-3.1377,-3.1377,-3.1377,-3.1377,-3.1377,-3.1377,-3.1377,-3.1377,-3.1377,-3.1377,-3.1377,-3.1377,-3.1377,-3.1377,-3.1377,-3.1377,-3.1377,-3.1377,-3.1377,-3.1377,-3.1377,-3.1377,-3.1377,-3.1377,-3.1377,-3.1377,-3.1377,-3.1377,-3.1377,-3.1377,-3.1377,-3.1377,-3.1377,-3.1377,-3.1377,-3.1377,-3.1377,-3.1377,-3.1377,-3.1377,-3.1377,-3.1377,-3.1194,-3.1102,-3.1102,-3.0919,-3.0736,-3.0516,-3.0516,-3.0406,-3.0204,-3.0002,-2.991,-2.0788,-2.0097,-1.943,-1.943,-2.0773,-2.2127,-2.2127,-2.2415,-2.2741,-2.3084,-2.3646,-2.4585,-2.6253,-2.7056,-2.7822,-2.8797,-2.8975,-2.8975,-2.8975,-2.8975,-2.8975,-2.8975,-2.8975,-2.8975,-2.8975,-2.8975,-2.8975,-2.8975,-2.8975,-2.8975,-2.8975,-2.8975,-2.8975,-2.8975,-2.9672,-3.0094,-3.0204,-3.0882,-3.1286,-3.1377,-3.1377,-3.1377,-3.1377,-3.1377,-3.1377,-3.1377,-3.1377,-3.1377,-3.1377,-3.1377,-3.1377,-3.1377,-3.1377,-3.1377,-3.1377,-3.1377,-3.1377,-3.1377,-3.1377,-3.1377,-3.1377,-3.1377,-3.1377,-3.1377,-3.1377,-3.1377,-3.1377,-3.1377,-3.1377,-3.1377,-3.1377,-3.1377,-3.1377,-3.1377,-3.1377,-3.1377,-3.1377,-3.1377,-3.1377,-3.1377,-3.1377,-3.1377,-3.1377,-3.1377,-3.1377,-3.1377,-3.1377,-3.1377,-3.1377,-3.1377,-3.1377,-3.1377,-3.1377,-3.1377,-3.1377,-3.1377,-3.1377,-3.1377,-3.1377,-3.1377,-3.1377,-3.1377,-3.1377,-3.1377,-3.1377,-3.1231,-3.0919,-3.0919,-3.0772,-3.0479,-3.0387,-3.0332,-1.9533,-1.9488,-1.943,-1.943,-1.9533,-1.9649,-1.9649,-2.0713,-2.1818,-2.2186,-2.3395,-2.488,-2.6661,-2.7984,-2.8856,-2.8975,-2.8975,-2.8975,-2.8975,-2.8975,-2.8975,-2.8975,-2.8975,-2.8975,-2.8975,-2.8975,-2.8975,-2.8975,-2.8975,-2.8975,-2.8975,-2.8975,-2.8975,-2.8975,-2.9397,-2.98,-3.0204,-3.0626,-3.1011,-3.1377,-3.1377,-3.1377,-3.1377,-3.1377,-3.1377,-3.1377,-3.1377,-3.1377,-3.1377,-3.1377,-3.1377,-3.1377,-3.1377,-3.1377,-3.1377,-3.1377,-3.1377,-3.1377,-3.1377,-3.1377,-3.1377,-3.1377,-3.1377,-3.1377,-3.1377,-3.1377,-3.1377,-3.1377,-3.1377,-3.1377,-3.1377,-3.1377,-3.1377,-3.1377,-3.1377,-3.1377,-3.1377,-3.1377,-3.1377,-3.1377,-3.1377,-3.1377,-3.1377,-3.1377,-3.1377,-3.1377,-3.1377,-3.1377,-3.1377,-3.1377,-3.1377,-3.1377,-3.1377,-3.1377,-3.1377,-3.1377,-3.1377,-3.1377,-3.1377,-3.1377,-3.1377,-3.1377,-3.1377,-3.1377,-3.1377,-3.1359,-3.1341,-3.1341,-3.1322,-3.1286,-3.0919,-3.0754,-1.943,-1.943,-1.943,-1.943,-1.9506,-1.9861,-2.0608,-2.1219,-2.173,-2.2255,-2.287,-2.3779,-2.5481,-2.7504,-2.8737,-2.7882,-2.848,-2.8975,-2.8975,-2.8975,-2.8975,-2.8975,-2.8975,-2.8975,-2.8975,-2.8975,-2.8975,-2.8975,-2.8975,-2.8975,-2.8975,-2.8975,-2.8975,-2.8975,-2.936,-2.9782,-3.0204,-3.0589,-3.0992,-3.1377,-3.1377,-3.1377,-3.1377,-3.1377,-3.1377,-3.1377,-3.1377,-3.1377,-3.1377,-3.1377,-3.1377,-3.1377,-3.1377,-3.1377,-3.1377,-3.1377,-3.1377,-3.1377,-3.1377,-3.1377,-3.1377,-3.1377,-3.1377,-3.1377,-3.1377,-3.1377,-3.1377,-3.1377,-3.1377,-3.1377,-3.1377,-3.1377,-3.1377,-3.1377,-3.1377,-3.1377,-3.1377,-3.1377,-3.1377,-3.1377,-3.1377,-3.1377,-3.1377,-3.1377,-3.1377,-3.1377,-3.1377,-3.1377,-3.1377,-3.1377,-3.1377,-3.1377,-3.1377,-3.1377,-3.1377,-3.1377,-3.1377,-3.1377,-3.1377,-3.1377,-3.1377,-3.1377,-3.1377,-3.1377,-3.1377,-3.1377,-3.1377,-3.1377,-3.1377,-3.1377,-3.1231,-3.1157,-1.9475,-1.9649,-1.988,-1.9488,-1.9586,-2.005,-2.0963,-2.1239,-2.1544,-2.2384,-2.2987,-2.3841,-2.5375,-2.7142,-2.8182,-2.7684,-2.8421,-2.8975,-2.8975,-2.8975,-2.8975,-2.8975,-2.8975,-2.8975,-2.8975,-2.8975,-2.8975,-2.8975,-2.8975,-2.8975,-2.8975,-2.8975,-2.8975,-2.8975,-2.925,-2.958,-3.0002,-3.0406,-3.0791,-3.1194,-3.1322,-3.1377,-3.1377,-3.1377,-3.1377,-3.1377,-3.1377,-3.1377,-3.1377,-3.1377,-3.1377,-3.1377,-3.1377,-3.1377,-3.1377,-3.1377,-3.1377,-3.1377,-3.1377,-3.1377,-3.1377,-3.1377,-3.1377,-3.1377,-3.1377,-3.1377,-3.1377,-3.1377,-3.1377,-3.1377,-3.1377,-3.1377,-3.1377,-3.1377,-3.1377,-3.1377,-3.1377,-3.1377,-3.1377,-3.1377,-3.1377,-3.1377,-3.1377,-3.1377,-3.1377,-3.1377,-3.1377,-3.1377,-3.1377,-3.1377,-3.1377,-3.1377,-3.1377,-3.1377,-3.1377,-3.1377,-3.1377,-3.1377,-3.1377,-3.1377,-3.1377,-3.1377,-3.1377,-3.1377,-3.1377,-3.1377,-3.1377,-3.1377,-3.1377,-3.1377,-3.1377,-3.1377,-1.9707,-2.027,-2.0902,-1.9707,-1.9586,-1.988,-2.01,-2.0454,-2.1039,-2.2349,-2.3887,-2.5362,-2.6702,-2.7021,-2.7444,-2.8797,-2.8975,-2.8975,-2.8975,-2.8975,-2.8975,-2.8975,-2.8975,-2.8975,-2.8975,-2.8975,-2.8975,-2.8975,-2.8975,-2.8975,-2.8975,-2.8975,-2.8975,-2.8975,-2.8975,-2.9177,-2.9623,-2.9984,-3.0406,-3.0791,-3.1194,-3.1377,-3.1377,-3.1377,-3.1377,-3.1377,-3.1377,-3.1377,-3.1377,-3.1377,-3.1377,-3.1377,-3.1377,-3.1377,-3.1377,-3.1377,-3.1377,-3.1377,-3.1377,-3.1377,-3.1377,-3.1377,-3.1377,-3.1377,-3.1377,-3.1377,-3.1377,-3.1377,-3.1377,-3.1377,-3.1377,-3.1377,-3.1377,-3.1377,-3.1377,-3.1377,-3.1377,-3.1377,-3.1377,-3.1377,-3.1377,-3.1377,-3.1377,-3.1377,-3.1377,-3.1377,-3.1377,-3.1377,-3.1377,-3.1377,-3.1377,-3.1377,-3.1377,-3.1377,-3.1377,-3.1377,-3.1377,-3.1377,-3.1377,-3.1377,-3.1377,-3.1377,-3.1377,-3.1377,-3.1377,-3.1377,-3.1377,-3.1377,-3.1377,-3.1377,-3.1377,-3.1377,-1.9488,-1.9649,-1.9822,-1.9171,-1.9378,-1.9711,-1.9607,-1.9976,-2.0784,-2.2267,-2.3189,-2.407,-2.5362,-2.6338,-2.7142,-2.7504,-2.8361,-2.8975,-2.8975,-2.8975,-2.8975,-2.8975,-2.8975,-2.8975,-2.8975,-2.8975,-2.8975,-2.8975,-2.8975,-2.8975,-2.8975,-2.8975,-2.8975,-2.8975,-2.8975,-2.9177,-2.9623,-2.9984,-3.0406,-3.0791,-3.1194,-3.1377,-3.1377,-3.1377,-3.1377,-3.1377,-3.1377,-3.1377,-3.1377,-3.1377,-3.1377,-3.1377,-3.1377,-3.1377,-3.1377,-3.1377,-3.1377,-3.1377,-3.1377,-3.1377,-3.1377,-3.1377,-3.1377,-3.1377,-3.1377,-3.1377,-3.1377,-3.1377,-3.1377,-3.1377,-3.1377,-3.1377,-3.1377,-3.1377,-3.1377,-3.1377,-3.1377,-3.1377,-3.1377,-3.1377,-3.1377,-3.1377,-3.1377,-3.1377,-3.1377,-3.1377,-3.1377,-3.1377,-3.1377,-3.1377,-3.1377,-3.1377,-3.1377,-3.1377,-3.1377,-3.1377,-3.1377,-3.1377,-3.1377,-3.1377,-3.1377,-3.1377,-3.1377,-3.1377,-3.1377,-3.1377,-3.1377,-3.1377,-3.1377,-3.1377,-3.1377,-3.1377,-2.0097,-2.0256,-2.0314,-1.8997,-1.9133,-1.9501,-1.941,-1.9912,-2.0582,-2.1434,-2.1839,-2.264,-2.4486,-2.5468,-2.6382,-2.7624,-2.8498,-2.8975,-2.8975,-2.8975,-2.8975,-2.8975,-2.8975,-2.8975,-2.8975,-2.8975,-2.8975,-2.8975,-2.8975,-2.8975,-2.8975,-2.8975,-2.8975,-2.8975,-2.8975,-2.9177,-2.9623,-2.9984,-3.0406,-3.0791,-3.1194,-3.1377,-3.1377,-3.1377,-3.1377,-3.1377,-3.1377,-3.1377,-3.1377,-3.1377,-3.1377,-3.1377,-3.1377,-3.1377,-3.1377,-3.1377,-3.1377,-3.1377,-3.1377,-3.1377,-3.1377,-3.1377,-3.1377,-3.1377,-3.1377,-3.1377,-3.1377,-3.1377,-3.1377,-3.1377,-3.1377,-3.1377,-3.1377,-3.1377,-3.1377,-3.1377,-3.1377,-3.1377,-3.1433,-3.1598,-3.1634,-3.1671,-3.1836,-3.1726,-3.1634,-3.1634,-3.1488,-3.1377,-3.1377,-3.1377,-3.1377,-3.1377,-3.1377,-3.1377,-3.1377,-3.1377,-3.1377,-3.1377,-3.1377,-3.1377,-3.1377,-3.1377,-3.1377,-3.1377,-3.1377,-3.1377,-3.1377,-3.1377,-3.1377,-3.1377,-3.1377,-3.1377,-2.1088,-2.1472,-2.1643,-1.9042,-1.8788,-1.9284,-1.9511,-2.003,-2.0412,-2.0106,-2.0297,-2.1348,-2.3977,-2.4455,-2.5513,-2.848,-2.8975,-2.8975,-2.8975,-2.8975,-2.8975,-2.8975,-2.8975,-2.8975,-2.8975,-2.8975,-2.8975,-2.8975,-2.8975,-2.8975,-2.8975,-2.8975,-2.8975,-2.8975,-2.8975,-2.9177,-2.9623,-2.9984,-3.0406,-3.0791,-3.1194,-3.1377,-3.1377,-3.1377,-3.1377,-3.1377,-3.1377,-3.1377,-3.1377,-3.1377,-3.1377,-3.1377,-3.1377,-3.1377,-3.1377,-3.1377,-3.1377,-3.1377,-3.1377,-3.1377,-3.1377,-3.1377,-3.1377,-3.1377,-3.1377,-3.1377,-3.1377,-3.1377,-3.1377,-3.1377,-3.1377,-3.1377,-3.1377,-3.1377,-3.1377,-3.1396,-3.1433,-3.1433,-3.1561,-3.1983,-3.2056,-3.2166,-3.2533,-3.2294,-3.2056,-3.2056,-3.1726,-3.1469,-3.1433,-3.1433,-3.1414,-3.1377,-3.1377,-3.1377,-3.1377,-3.1377,-3.1377,-3.1377,-3.1377,-3.1377,-3.1377,-3.1377,-3.1377,-3.1377,-3.1377,-3.1377,-3.1377,-3.1377,-3.1377,-3.1377,-3.1377,-3.1377,-2.0802,-2.0759,-2.0314,-1.8544,-1.8321,-1.8606,-1.9079,-1.952,-1.9775,-1.9711,-1.9966,-2.1032,-2.3698,-2.4348,-2.5391,-2.814,-2.8815,-2.8975,-2.8975,-2.8975,-2.8975,-2.8975,-2.8975,-2.8975,-2.8975,-2.8975,-2.8975,-2.8975,-2.8975,-2.8975,-2.8975,-2.8975,-2.8975,-2.8975,-2.8975,-2.9177,-2.9623,-2.9984,-3.0406,-3.0791,-3.1194,-3.1377,-3.1377,-3.1377,-3.1377,-3.1377,-3.1377,-3.1377,-3.1377,-3.1377,-3.1377,-3.1377,-3.1377,-3.1377,-3.1377,-3.1377,-3.1377,-3.1377,-3.1377,-3.1377,-3.1377,-3.1377,-3.1377,-3.1377,-3.1377,-3.1377,-3.1377,-3.1377,-3.1377,-3.1377,-3.1377,-3.1377,-3.1377,-3.1377,-3.1377,-3.1469,-3.1799,-3.1873,-3.1983,-3.2386,-3.2459,-3.2496,-3.2588,-3.2533,-3.2459,-3.2459,-3.2386,-3.2221,-3.1909,-3.1873,-3.1744,-3.1414,-3.1377,-3.1377,-3.1377,-3.1377,-3.1377,-3.1377,-3.1377,-3.1377,-3.1377,-3.1377,-3.1377,-3.1377,-3.1377,-3.1377,-3.1377,-3.1377,-3.1377,-3.1377,-3.1377,-3.1377,-2.2168,-2.1274,-1.9921,-1.852,-1.8216,-1.8432,-1.8951,-1.9264,-1.9392,-1.9392,-1.9647,-2.0652,-2.3325,-2.3931,-2.4978,-2.802,-2.8636,-2.8815,-2.8975,-2.8975,-2.8975,-2.8975,-2.8975,-2.8975,-2.8975,-2.8975,-2.8975,-2.8975,-2.8975,-2.8975,-2.8975,-2.8975,-2.8975,-2.8975,-2.8975,-2.9269,-2.9874,-3.0094,-3.0497,-3.1066,-3.1286,-3.1377,-3.1377,-3.1377,-3.1377,-3.1377,-3.1377,-3.1377,-3.1377,-3.1377,-3.1377,-3.1377,-3.1377,-3.1377,-3.1377,-3.1377,-3.1377,-3.1377,-3.1377,-3.1377,-3.1377,-3.1377,-3.1377,-3.1377,-3.1377,-3.1377,-3.1377,-3.1377,-3.1377,-3.1377,-3.1377,-3.1377,-3.1433,-3.1634,-3.1671,-3.1744,-3.1964,-3.2148,-3.2404,-3.2826,-3.29,-3.2955,-3.3138,-3.3028,-3.2826,-3.2625,-3.2588,-3.2514,-3.2313,-3.2294,-3.2203,-3.1983,-3.1964,-3.1964,-3.1964,-3.1781,-3.1671,-3.1671,-3.1488,-3.1377,-3.1377,-3.1377,-3.1377,-3.1377,-3.1377,-3.1377,-3.1377,-3.1377,-3.1377,-3.1377,-3.1377,-3.1377,-2.3592,-2.1941,-1.986,-1.8872,-1.8655,-1.8791,-1.9333,-1.9264,-1.9072,-1.9072,-1.952,-2.0576,-2.2999,-2.3683,-2.4855,-2.79,-2.8457,-2.8636,-2.8934,-2.8975,-2.8975,-2.8975,-2.8975,-2.8975,-2.8975,-2.8975,-2.8975,-2.8975,-2.8975,-2.8975,-2.8975,-2.8975,-2.8975,-2.8975,-2.8975,-2.9379,-3.0185,-3.0204,-3.0589,-3.1377,-3.1377,-3.1377,-3.1377,-3.1377,-3.1377,-3.1377,-3.1377,-3.1377,-3.1377,-3.1377,-3.1377,-3.1377,-3.1377,-3.1377,-3.1377,-3.1377,-3.1377,-3.1377,-3.1377,-3.1377,-3.1377,-3.1377,-3.1377,-3.1377,-3.1377,-3.1377,-3.1377,-3.1377,-3.1377,-3.1396,-3.1469,-3.1488,-3.1598,-3.2001,-3.2166,-3.2221,-3.2221,-3.2478,-3.2826,-3.3248,-3.3321,-3.3431,-3.3762,-3.3541,-3.3211,-3.2863,-3.2808,-3.2771,-3.2716,-3.2698,-3.268,-3.2606,-3.2588,-3.2588,-3.2588,-3.2294,-3.2111,-3.2111,-3.1781,-3.1598,-3.1598,-3.1598,-3.1598,-3.1598,-3.1451,-3.1377,-3.1377,-3.1377,-3.1377,-3.1377,-3.1377,-3.1377,-2.2942,-2.1301,-1.9874,-2.0007,-1.9958,-2.0042,-2.0697,-1.9954,-1.9072,-1.9072,-2.0081,-2.1384,-2.2889,-2.4301,-2.5835,-2.7762,-2.8337,-2.8636,-2.8934,-2.8975,-2.8975,-2.8975,-2.8975,-2.8975,-2.8975,-2.8975,-2.8975,-2.8975,-2.8975,-2.8975,-2.8975,-2.8975,-2.8975,-2.8975,-2.8975,-2.9379,-3.0185,-3.0204,-3.0589,-3.1377,-3.1377,-3.1377,-3.1377,-3.1377,-3.1377,-3.1377,-3.1377,-3.1377,-3.1377,-3.1377,-3.1377,-3.1377,-3.1377,-3.1377,-3.1377,-3.1377,-3.1377,-3.1377,-3.1377,-3.1377,-3.1377,-3.1377,-3.1377,-3.1377,-3.1377,-3.1377,-3.1377,-3.1377,-3.1377,-3.1469,-3.1836,-3.1928,-3.2019,-3.2423,-3.279,-3.3065,-3.3065,-3.3101,-3.3266,-3.3651,-3.3725,-3.3743,-3.3798,-3.378,-3.3725,-3.3651,-3.3651,-3.3523,-3.3175,-3.3138,-3.2991,-3.2625,-3.2588,-3.2588,-3.2588,-3.2551,-3.2514,-3.2514,-3.2459,-3.2423,-3.2423,-3.2423,-3.2423,-3.2423,-3.1744,-3.1377,-3.1377,-3.1377,-3.1377,-3.1377,-3.1377,-3.1377,-2.2677,-2.1544,-2.0816,-2.0906,-2.0547,-2.0416,-2.1575,-2.1011,-2.0195,-2.0195,-2.1888,-2.3263,-2.3139,-2.4317,-2.579,-2.7461,-2.802,-2.8337,-2.8696,-2.8874,-2.8975,-2.8975,-2.8975,-2.8975,-2.8975,-2.8975,-2.8975,-2.8975,-2.8975,-2.8975,-2.8975,-2.8975,-2.8975,-2.8975,-2.9195,-2.9599,-3.0185,-3.0424,-3.0809,-3.1377,-3.1377,-3.1377,-3.1377,-3.1377,-3.1377,-3.1377,-3.1377,-3.1377,-3.1377,-3.1377,-3.1377,-3.1377,-3.1377,-3.1377,-3.1377,-3.1377,-3.1377,-3.1377,-3.1377,-3.1377,-3.1377,-3.1377,-3.1377,-3.1377,-3.1377,-3.1377,-3.1377,-3.1377,-3.1543,-3.1781,-3.1964,-3.2166,-3.2441,-3.2845,-3.3083,-3.3285,-3.3505,-3.356,-3.3596,-3.378,-3.3817,-3.3817,-3.3817,-3.3817,-3.3817,-3.3817,-3.3817,-3.3743,-3.3578,-3.356,-3.3486,-3.3303,-3.3285,-3.3285,-3.3285,-3.3083,-3.2955,-3.2955,-3.2716,-3.2588,-3.2588,-3.2588,-3.2588,-3.2588,-3.2019,-3.1726,-3.1726,-3.1488,-3.1377,-3.1377,-3.1377,-3.1377,-2.303,-2.2467,-2.226,-2.2193,-2.1685,-2.1523,-2.2748,-2.2272,-2.1636,-2.1636,-2.345,-2.4826,-2.376,-2.4702,-2.5989,-2.728,-2.7762,-2.814,-2.8457,-2.8815,-2.8975,-2.8975,-2.8975,-2.8975,-2.8975,-2.8975,-2.8975,-2.8975,-2.8975,-2.8975,-2.8975,-2.8975,-2.8975,-2.8975,-2.936,-2.9782,-3.0204,-3.0699,-3.1084,-3.1377,-3.1377,-3.1377,-3.1377,-3.1377,-3.1377,-3.1377,-3.1377,-3.1377,-3.1377,-3.1377,-3.1377,-3.1377,-3.1377,-3.1377,-3.1377,-3.1377,-3.1377,-3.1377,-3.1377,-3.1377,-3.1377,-3.1377,-3.1377,-3.1377,-3.1377,-3.1377,-3.1396,-3.1506,-3.1763,-3.2056,-3.2258,-3.2533,-3.2863,-3.3266,-3.3376,-3.345,-3.3743,-3.3817,-3.3817,-3.3817,-3.3817,-3.3817,-3.3817,-3.3817,-3.3817,-3.3817,-3.3817,-3.3817,-3.3817,-3.3817,-3.3817,-3.3817,-3.3817,-3.3817,-3.3817,-3.3541,-3.3376,-3.3376,-3.3083,-3.29,-3.29,-3.29,-3.29,-3.29,-3.2514,-3.2258,-3.2148,-3.1836,-3.1689,-3.1689,-3.1579,-3.1543,-2.43,-2.4189,-2.4122,-2.3918,-2.4043,-2.4236,-2.4392,-2.3703,-2.3014,-2.3014,-2.4131,-2.5071,-2.501,-2.6067,-2.7133,-2.7461,-2.7762,-2.814,-2.8457,-2.8815,-2.8975,-2.8975,-2.8975,-2.8975,-2.8975,-2.8975,-2.8975,-2.8975,-2.8975,-2.8975,-2.8975,-2.8975,-2.8975,-2.8975,-2.936,-2.9782,-3.0204,-3.0956,-3.1359,-3.1377,-3.1377,-3.1377,-3.1377,-3.1377,-3.1377,-3.1377,-3.1377,-3.1377,-3.1377,-3.1377,-3.1377,-3.1377,-3.1377,-3.1377,-3.1377,-3.1377,-3.1377,-3.1377,-3.1377,-3.1377,-3.1377,-3.1377,-3.1377,-3.1377,-3.1377,-3.1377,-3.1469,-3.1854,-3.1983,-3.2184,-3.2955,-3.3175,-3.3285,-3.3688,-3.378,-3.378,-3.3817,-3.3817,-3.3817,-3.3817,-3.3817,-3.3817,-3.3817,-3.3817,-3.3817,-3.3817,-3.3817,-3.3817,-3.3817,-3.3817,-3.3817,-3.3817,-3.3817,-3.3817,-3.3817,-3.3798,-3.378,-3.378,-3.3762,-3.3743,-3.3743,-3.3743,-3.3743,-3.3743,-3.3358,-3.2955,-3.257,-3.2551,-3.2533,-3.2514,-3.2148,-3.1983,-2.5331,-2.4872,-2.4351,-2.4709,-2.4572,-2.4584,-2.526,-2.49,-2.4379,-2.4379,-2.5439,-2.6128,-2.5256,-2.6189,-2.7133,-2.7237,-2.7659,-2.802,-2.814,-2.8618,-2.8975,-2.8975,-2.8975,-2.8975,-2.8975,-2.8975,-2.8975,-2.8975,-2.8975,-2.8975,-2.8975,-2.8975,-2.8975,-2.8975,-2.9635,-3.0296,-3.0956,-3.1231,-3.1377,-3.1377,-3.1377,-3.1377,-3.1377,-3.1377,-3.1377,-3.1377,-3.1377,-3.1377,-3.1377,-3.1377,-3.1377,-3.1377,-3.1377,-3.1377,-3.1377,-3.1377,-3.1377,-3.1377,-3.1377,-3.1377,-3.1377,-3.1377,-3.1377,-3.1377,-3.1377,-3.1561,-3.1818,-3.1964,-3.2386,-3.2863,-3.3156,-3.3413,-3.3633,-3.378,-3.3817,-3.3817,-3.3817,-3.3817,-3.3817,-3.3817,-3.3817,-3.3817,-3.3817,-3.3817,-3.3817,-3.3817,-3.3817,-3.3817,-3.3817,-3.3817,-3.3817,-3.3817,-3.3817,-3.3817,-3.3817,-3.3817,-3.3817,-3.3817,-3.3817,-3.3817,-3.3817,-3.3817,-3.3817,-3.3817,-3.367,-3.3395,-3.2991,-3.2735,-3.2588,-3.2588,-3.2441,-3.2386,-2.6136,-2.5679,-2.5165,-2.5441,-2.5457,-2.5502,-2.6099,-2.6135,-2.605,-2.605,-2.6796,-2.7116,-2.6111,-2.6614,-2.7177,-2.7133,-2.7478,-2.79,-2.796,-2.8498,-2.8874,-2.8993,-2.8975,-2.8975,-2.8975,-2.8975,-2.8975,-2.8975,-2.8975,-2.8975,-2.8975,-2.8975,-2.9104,-2.9379,-2.991,-3.0589,-3.1377,-3.1377,-3.1377,-3.1377,-3.1377,-3.1377,-3.1377,-3.1377,-3.1377,-3.1377,-3.1377,-3.1377,-3.1377,-3.1377,-3.1377,-3.1377,-3.1377,-3.1377,-3.1377,-3.1377,-3.1377,-3.1377,-3.1377,-3.1377,-3.1377,-3.1377,-3.1377,-3.1396,-3.1543,-3.1781,-3.2074,-3.2349,-3.2808,-3.3248,-3.3395,-3.3615,-3.3817,-3.3817,-3.3817,-3.3817,-3.3817,-3.3817,-3.3817,-3.3817,-3.3817,-3.3817,-3.3817,-3.3817,-3.3817,-3.3817,-3.3817,-3.3817,-3.3817,-3.3817,-3.3817,-3.3817,-3.3817,-3.3817,-3.3817,-3.3817,-3.3817,-3.3817,-3.3817,-3.3817,-3.3817,-3.3817,-3.3817,-3.3817,-3.3817,-3.3688,-3.3413,-3.3138,-3.301,-3.301,-3.2863,-3.2735,0.0,0.0,0.0,-2.619,-2.6675,-2.7211,-2.7,-2.747,-2.802,-2.802,-2.802,-2.79,-2.7581,-2.7521,-2.7401,-2.7194,-2.7358,-2.7642,-2.796,-2.8277,-2.8636,-2.8975,-2.8975,-2.8975,-2.8975,-2.8975,-2.8975,-2.8975,-2.8975,-2.8975,-2.8975,-2.8993,-2.936,-3.0167,-3.0204,-3.0589,-3.1377,-3.1377,-3.1377,-3.1377,-3.1377,-3.1377,-3.1377,-3.1377,-3.1377,-3.1377,-3.1377,-3.1377,-3.1377,-3.1377,-3.1377,-3.1377,-3.1377,-3.1377,-3.1377,-3.1377,-3.1377,-3.1377,-3.1377,-3.1377,-3.1377,-3.1377,-3.1396,-3.1469,-3.1873,-3.2019,-3.2203,-3.301,-3.323,-3.334,-3.3707,-3.3817,-3.3817,-3.3817,-3.3817,-3.3817,-3.3817,-3.3817,-3.3817,-3.3817,-3.3817,-3.3817,-3.3817,-3.3817,-3.3817,-3.3817,-3.3817,-3.3817,-3.3817,-3.3817,-3.3817,-3.3817,-3.3817,-3.3817,-3.3817,-3.3817,-3.3817,-3.3817,-3.3817,-3.3817,-3.3817,-3.3817,-3.3817,-3.3817,-3.3817,-3.3817,-3.3817,-3.3817,-3.3817,-3.3798,-3.3413,-3.3028,-2.6591,0.0,0.0,0.0,0.0,0.0,-2.732,-2.7665,-2.802,-2.802,-2.802,-2.796,-2.79,-2.7642,-2.7581,-2.7719,-2.784,-2.79,-2.796,-2.8498,-2.8934,-2.8993,-2.8975,-2.8975,-2.8975,-2.8975,-2.8975,-2.8975,-2.8975,-2.8975,-2.8975,-2.925,-2.9654,-3.0185,-3.0479,-3.0864,-3.1377,-3.1377,-3.1377,-3.1377,-3.1377,-3.1377,-3.1377,-3.1377,-3.1377,-3.1377,-3.1377,-3.1377,-3.1377,-3.1377,-3.1377,-3.1377,-3.1377,-3.1377,-3.1377,-3.1377,-3.1377,-3.1377,-3.1377,-3.1377,-3.1377,-3.1377,-3.1579,-3.1854,-3.1964,-3.2423,-3.2936,-3.3156,-3.3431,-3.367,-3.378,-3.3817,-3.3817,-3.3817,-3.3817,-3.3817,-3.3817,-3.3817,-3.3817,-3.3817,-3.3817,-3.3817,-3.3817,-3.3817,-3.3817,-3.3817,-3.3817,-3.3817,-3.3817,-3.3817,-3.3817,-3.3817,-3.3817,-3.3817,-3.3817,-3.3817,-3.3817,-3.3817,-3.3817,-3.3817,-3.3817,-3.3817,-3.3817,-3.3817,-3.3817,-3.3817,-3.3817,-3.3817,-3.3817,-3.3817,-3.3707,-3.3596,0.0,0.0,-2.7141,-2.7137,0.0,0.0,-2.7867,-2.8151,-2.8439,-2.8439,-2.8439,-2.8379,-2.8199,-2.802,-2.796,-2.802,-2.814,-2.8217,-2.8217,-2.8576,-2.8874,-2.8975,-2.8975,-2.8975,-2.8975,-2.8975,-2.8975,-2.8975,-2.8975,-2.8975,-2.8975,-2.936,-2.9764,-3.0185,-3.0589,-3.0974,-3.1377,-3.1377,-3.1377,-3.1377,-3.1377,-3.1377,-3.1377,-3.1377,-3.1377,-3.1377,-3.1377,-3.1377,-3.1377,-3.1377,-3.1377,-3.1377,-3.1377,-3.1377,-3.1377,-3.1377,-3.1377,-3.1377,-3.1377,-3.1377,-3.1414,-3.1579,-3.1799,-3.2074,-3.2404,-3.2845,-3.3248,-3.3413,-3.3633,-3.3817,-3.3817,-3.3817,-3.3817,-3.3817,-3.3817,-3.3817,-3.3817,-3.3817,-3.3817,-3.3817,-3.3817,-3.3817,-3.3817,-3.3817,-3.3817,-3.3817,-3.3817,-3.3817,-3.3817,-3.3817,-3.3817,-3.3817,-3.3817,-3.3817,-3.3817,-3.3817,-3.3817,-3.3817,-3.3817,-3.3817,-3.3817,-3.3817,-3.3817,-3.3817,-3.3817,-3.3817,-3.3817,-3.3817,-3.3817,-3.3817,-3.3817,-3.3817,0.0,0.0,0.0,-2.7877,-2.8113,0.0,-2.8443,-2.8737,-2.8975,-2.8975,-2.8856,-2.8677,-2.8397,-2.8277,-2.8199,-2.796,-2.8217,-2.8517,-2.8517,-2.8517,-2.8696,-2.8975,-2.8975,-2.8975,-2.8975,-2.8975,-2.8975,-2.8975,-2.8975,-2.8975,-2.8975,-2.9397,-2.9819,-3.0185,-3.0626,-3.1029,-3.1377,-3.1377,-3.1377,-3.1377,-3.1377,-3.1377,-3.1377,-3.1377,-3.1377,-3.1377,-3.1377,-3.1377,-3.1377,-3.1377,-3.1377,-3.1377,-3.1377,-3.1377,-3.1377,-3.1377,-3.1377,-3.1377,-3.1377,-3.1414,-3.1506,-3.1891,-3.2074,-3.2276,-3.301,-3.3248,-3.3358,-3.3725,-3.3817,-3.3817,-3.3817,-3.3817,-3.3817,-3.3817,-3.3817,-3.3817,-3.3817,-3.3817,-3.3817,-3.3817,-3.3817,-3.3817,-3.3817,-3.3817,-3.3817,-3.3817,-3.3817,-3.3817,-3.3817,-3.3817,-3.3817,-3.3817,-3.3817,-3.3817,-3.3817,-3.3817,-3.3817,-3.3817,-3.3817,-3.3817,-3.3817,-3.3817,-3.3817,-3.3817,-3.3817,-3.3817,-3.3817,-3.3817,-3.3817,-3.3817,-3.3817,-3.3817,-2.8106,-2.7936,-2.7914,-2.8187,-2.8333,0.0,-2.8792,-2.892,-2.8975,-2.8975,-2.8122,-2.7383,-2.7323,-2.7082,-2.6961,-2.7142,-2.796,-2.8517,-2.8517,-2.8755,-2.8916,-2.8975,-2.8975,-2.8975,-2.8975,-2.8975,-2.8975,-2.8975,-2.8975,-2.8975,-2.8975,-2.9672,-3.0112,-3.0204,-3.0882,-3.1304,-3.1377,-3.1377,-3.1377,-3.1377,-3.1377,-3.1377,-3.1377,-3.1377,-3.1377,-3.1377,-3.1377,-3.1377,-3.1377,-3.1377,-3.1377,-3.1377,-3.1377,-3.1377,-3.1377,-3.1377,-3.1377,-3.1377,-3.1377,-3.1598,-3.1891,-3.1983,-3.2459,-3.3028,-3.3175,-3.345,-3.3725,-3.3798,-3.3817,-3.3817,-3.3817,-3.3817,-3.3817,-3.3817,-3.3817,-3.3817,-3.3817,-3.3817,-3.3817,-3.3817,-3.3817,-3.3817,-3.3817,-3.3817,-3.3817,-3.3817,-3.3817,-3.3817,-3.3817,-3.3817,-3.3817,-3.3817,-3.3817,-3.3817,-3.3817,-3.3817,-3.3817,-3.3817,-3.3817,-3.3817,-3.3817,-3.3817,-3.3817,-3.3817,-3.3817,-3.3817,-3.3817,-3.3817,-3.3817,-3.3817,-3.3817,-3.3817,-2.9066,-2.8834,-2.8698,-2.892,-2.8799,0.0,0.0,-2.8975,-2.8975,-2.8975,-2.8498,-2.8002,-2.8002,-2.7323,-2.7004,-2.7882,-2.7882,-2.802,-2.8696,-2.8856,-2.8975,-2.8975,-2.8975,-2.8975,-2.8975,-2.8975,-2.8975,-2.8975,-2.8975,-2.8975,-2.8975,-2.9562,-2.9984,-3.0185,-3.0772,-3.1176,-3.1377,-3.1377,-3.1377,-3.1377,-3.1377,-3.1377,-3.1377,-3.1377,-3.1377,-3.1377,-3.1377,-3.1377,-3.1377,-3.1377,-3.1377,-3.1377,-3.1377,-3.1377,-3.1377,-3.1377,-3.1377,-3.1414,-3.1616,-3.1836,-3.2074,-3.2478,-3.29,-3.3266,-3.3468,-3.3651,-3.3817,-3.3817,-3.3817,-3.3817,-3.3817,-3.3817,-3.3817,-3.3817,-3.3817,-3.3817,-3.3817,-3.3817,-3.3817,-3.3817,-3.3817,-3.3817,-3.3817,-3.3817,-3.3817,-3.3817,-3.3817,-3.3817,-3.3817,-3.3817,-3.3817,-3.3817,-3.3817,-3.3817,-3.3817,-3.3817,-3.3817,-3.3817,-3.3817,-3.3817,-3.3817,-3.3817,-3.3817,-3.3817,-3.3817,-3.3817,-3.3817,-3.3817,-3.3817,-3.3817,-3.3817,-3.3817,-2.9922,-2.9686,-2.9509,-2.945,-2.9213,-2.8975,0.0,0.0,0.0,-2.8975,-2.8797,-2.8618,-2.8618,-2.7504,-2.6927,-2.7955,-2.7529,-2.7306,-2.8015,-2.8623,-2.8975,-2.8975,-2.8975,-2.8975,-2.8975,-2.8975,-2.8975,-2.8975,-2.8975,-2.8975,-2.8975,-2.936,-2.9764,-3.0185,-3.0589,-3.0974,-3.1377,-3.1377,-3.1377,-3.1377,-3.1377,-3.1377,-3.1377,-3.1377,-3.1377,-3.1377,-3.1377,-3.1377,-3.1377,-3.1377,-3.1377,-3.1377,-3.1377,-3.1377,-3.1377,-3.1377,-3.1377,-3.1433,-3.1854,-3.2056,-3.2239,-3.2973,-3.3285,-3.3395,-3.3725,-3.3817,-3.3817,-3.3817,-3.3817,-3.3817,-3.3817,-3.3817,-3.3817,-3.3817,-3.3817,-3.3817,-3.3817,-3.3817,-3.3817,-3.3817,-3.3817,-3.3817,-3.3817,-3.3817,-3.3817,-3.3817,-3.3817,-3.3817,-3.3817,-3.3817,-3.3817,-3.3817,-3.3817,-3.3817,-3.3817,-3.3817,-3.3817,-3.3817,-3.3817,-3.3817,-3.3817,-3.3817,-3.3817,-3.3817,-3.3817,-3.3817,-3.3817,-3.3817,-3.3817,-3.3817,-3.3817,-3.3817,-2.9981,-2.9686,-2.945,-2.9153,-2.9035,-2.8975,-2.8975,0.0,-2.8975,-2.8975,0.0,-2.7203,-2.7203,0.0,0.0,-2.5141,-2.6198,-2.654,-2.5305,-2.7354,-2.8975,-2.8975,-2.8975,-2.8975,-2.8975,-2.8975,-2.8975,-2.8975,-2.8975,-2.8975,-2.8975,-2.936,-2.9764,-3.0185,-3.0589,-3.0974,-3.1377,-3.1377,-3.1377,-3.1377,-3.1377,-3.1377,-3.1377,-3.1377,-3.1377,-3.1377,-3.1377,-3.1377,-3.1377,-3.1377,-3.1377,-3.1377,-3.1377,-3.1377,-3.1377,-3.1377,-3.1377,-3.1433,-3.1854,-3.2239,-3.2606,-3.3065,-3.3468,-3.3762,-3.3798,-3.3817,-3.3817,-3.3817,-3.3817,-3.3817,-3.3817,-3.3817,-3.3817,-3.3817,-3.3817,-3.3817,-3.3817,-3.3817,-3.3817,-3.3817,-3.3817,-3.3817,-3.3817,-3.3817,-3.3817,-3.3817,-3.3817,-3.3817,-3.3817,-3.3817,-3.3817,-3.3817,-3.3817,-3.3817,-3.3817,-3.3817,-3.3817,-3.3817,-3.3817,-3.3817,-3.3817,-3.3817,-3.3817,-3.3817,-3.3817,-3.3817,-3.3817,-3.3817,-3.3817,-3.3817,-3.3817,-3.3817,-3.0528,-3.0098,-2.9686,-2.9568,-2.9272,-2.8975,-2.8975,-2.8975,-2.8975,-2.8975,0.0,0.0,0.0,0.0,0.0,0.0,-2.5266,-2.4747,-2.4804,-2.5874,-2.6961,-2.7744,-2.8558,-2.8975,-2.8975,-2.8975,-2.8975,-2.8975,-2.8975,-2.8975,-2.8975,-2.914,-2.9525,-3.0185,-3.0369,-3.0754,-3.1377,-3.1377,-3.1377,-3.1377,-3.1377,-3.1377,-3.1377,-3.1377,-3.1377,-3.1377,-3.1377,-3.1377,-3.1377,-3.1377,-3.1377,-3.1377,-3.1377,-3.1377,-3.1377,-3.1377,-3.1543,-3.1799,-3.2203,-3.2625,-3.3028,-3.3431,-3.367,-3.3817,-3.3817,-3.3817,-3.3817,-3.3817,-3.3817,-3.3817,-3.3817,-3.3817,-3.3817,-3.3817,-3.3817,-3.3817,-3.3817,-3.3817,-3.3817,-3.3817,-3.3817,-3.3817,-3.3817,-3.3817,-3.3817,-3.3817,-3.3817,-3.3817,-3.3817,-3.3817,-3.3817,-3.3817,-3.3817,-3.3817,-3.3817,-3.3817,-3.3817,-3.3817,-3.3817,-3.3817,-3.3817,-3.3817,-3.3817,-3.3817,-3.3817,-3.3817,-3.3817,-3.3817,-3.3817,-3.3817,-3.3817,-3.3817,-3.0762,-3.0411,-3.0039,-2.9922,-2.9568,-2.9213,-2.9153,-2.9153,-2.9094,-2.9035,-2.8975,0.0,0.0,0.0,-2.5696,-2.6282,0.0,-2.3668,-2.3824,-2.4501,-2.5362,-2.6338,-2.7624,-2.8618,-2.8975,-2.8975,-2.8975,-2.8975,-2.8975,-2.8975,-2.8975,-2.8975,-2.936,-3.0167,-3.0204,-3.0589,-3.1377,-3.1377,-3.1377,-3.1377,-3.1377,-3.1377,-3.1377,-3.1377,-3.1377,-3.1377,-3.1377,-3.1377,-3.1377,-3.1377,-3.1377,-3.1377,-3.1377,-3.1451,-3.1543,-3.1543,-3.1744,-3.2074,-3.2588,-3.3046,-3.3431,-3.3725,-3.3817,-3.3817,-3.3817,-3.3817,-3.3817,-3.3817,-3.3817,-3.3817,-3.3817,-3.3817,-3.3817,-3.3817,-3.3817,-3.3817,-3.3817,-3.3817,-3.3817,-3.3817,-3.3817,-3.3817,-3.3817,-3.3817,-3.3817,-3.3817,-3.3817,-3.3817,-3.3817,-3.3817,-3.3817,-3.3817,-3.3817,-3.3817,-3.3817,-3.3817,-3.3817,-3.3817,-3.3817,-3.3817,-3.3817,-3.3817,-3.3817,-3.3817,-3.3817,-3.3817,-3.3817,-3.3817,-3.3817,-3.3817,-3.3817,-3.3817,-3.0509,-3.0392,-3.0333,-2.9981,-2.9863,-2.9804,-2.9568,-2.9509,-2.939,-2.9035,-2.8975,-2.8975,-2.8975,-2.7882,0.0,0.0,0.0,0.0,0.0,-2.3256,-2.4994,-2.5056,-2.6216,-2.7564,-2.8856,-2.8975,-2.8975,-2.8975,-2.8975,-2.8975,-2.8975,-2.8975,-2.936,-3.0167,-3.0204,-3.0589,-3.1377,-3.1377,-3.1377,-3.1377,-3.1377,-3.1377,-3.1377,-3.1377,-3.1377,-3.1377,-3.1377,-3.1377,-3.1377,-3.1377,-3.1377,-3.1377,-3.1377,-3.1634,-3.1983,-3.1983,-3.2001,-3.2129,-3.2936,-3.3468,-3.3798,-3.3817,-3.3817,-3.3817,-3.3817,-3.3817,-3.3817,-3.3817,-3.3817,-3.3817,-3.3817,-3.3817,-3.3817,-3.3817,-3.3817,-3.3817,-3.3817,-3.3817,-3.3817,-3.3817,-3.3817,-3.3817,-3.3817,-3.3817,-3.3817,-3.3817,-3.3817,-3.3817,-3.3817,-3.3817,-3.3817,-3.3817,-3.3817,-3.3817,-3.3817,-3.3817,-3.3817,-3.3817,-3.3817,-3.3817,-3.3817,-3.3817,-3.3817,-3.3817,-3.3817,-3.3817,-3.3817,-3.3817,-3.3817,-3.3817,-3.3817,-3.3817,-3.0098,-2.9922,-2.9804,-2.9863,-2.9745,-2.9686,-2.9745,-2.9745,-2.9686,-2.939,-2.9331,-2.9272,-2.9035,-2.7203,0.0,0.0,0.0,0.0,0.0,-2.1783,-2.2779,-2.3636,-2.5668,-2.7504,-2.8856,-2.8975,-2.8975,-2.8975,-2.8975,-2.8975,-2.8975,-2.8975,-2.936,-3.0167,-3.0204,-3.0589,-3.1377,-3.1377,-3.1377,-3.1377,-3.1377,-3.1377,-3.1377,-3.1377,-3.1377,-3.1377,-3.1377,-3.1377,-3.1377,-3.1377,-3.1377,-3.1396,-3.1689,-3.1873,-3.2001,-3.2001,-3.2349,-3.29,-3.3431,-3.3707,-3.3817,-3.3817,-3.3817,-3.3817,-3.3817,-3.3817,-3.3817,-3.3817,-3.3817,-3.3817,-3.3817,-3.3817,-3.3817,-3.3817,-3.3817,-3.3817,-3.3817,-3.3817,-3.3817,-3.3817,-3.3817,-3.3817,-3.3817,-3.3817,-3.3817,-3.3817,-3.3817,-3.3817,-3.3817,-3.3817,-3.3817,-3.3817,-3.3817,-3.3817,-3.3817,-3.3817,-3.3817,-3.3817,-3.3817,-3.3817,-3.3817,-3.3817,-3.3817,-3.3817,-3.3817,-3.3817,-3.3817,-3.3817,-3.3817,-3.3817,-3.3817,-3.3817,-2.9922,-2.9745,-2.9686,-2.9863,-2.9745,-2.9686,-2.9863,-2.9922,-2.9804,-2.9568,-2.9509,-2.939,-2.9035,-2.7564,0.0,0.0,0.0,0.0,0.0,-2.1411,-2.1601,-2.2952,-2.4978,-2.684,-2.8182,-2.8737,-2.8975,-2.8975,-2.8975,-2.8975,-2.8975,-2.8975,-2.936,-3.0167,-3.0204,-3.0589,-3.1377,-3.1377,-3.1377,-3.1377,-3.1377,-3.1377,-3.1377,-3.1377,-3.1377,-3.1377,-3.1377,-3.1377,-3.1377,-3.1377,-3.1469,-3.1634,-3.1909,-3.2184,-3.2441,-3.2441,-3.2863,-3.3468,-3.3725,-3.3817,-3.3817,-3.3817,-3.3817,-3.3817,-3.3817,-3.3817,-3.3817,-3.3817,-3.3817,-3.3817,-3.3817,-3.3817,-3.3817,-3.3817,-3.3817,-3.3817,-3.3817,-3.3817,-3.3817,-3.3817,-3.3817,-3.3817,-3.3817,-3.3817,-3.3817,-3.3817,-3.3817,-3.3817,-3.3817,-3.3817,-3.3817,-3.3817,-3.3817,-3.3817,-3.3817,-3.3817,-3.3817,-3.3817,-3.3817,-3.3817,-3.3817,-3.3817,-3.3872,-3.4018,-3.389,-3.389,-3.4018,-3.389,-3.3817,-3.3817,-3.3817,-3.3817]},{"header":{"parameterUnit":"m.s-1","parameterCategory":1,"la1":30.6,"la2":29.2853,"lo1":-89.7004,"lo2":-87.6739,"dy":0.0162,"dx":0.0183,"nx":112,"ny":82,"refTime":"2023-03-26T06:00:00:Z","depth":0,"parameterNumber":3,"parameterNumberName":"V-component_of_WINDS"},"data":[0.0,0.0,0.0,0.0,0.0,0.0,0.0,0.0,0.0,0.0,0.0,0.0,0.0,0.0,0.0,0.0,0.0,0.0,0.0,0.0,0.0,0.0,0.0,0.0,0.0,0.0,0.0,0.0,0.0,0.0,0.0,0.0,0.0,0.0,0.0,0.0,0.0,0.0,0.0,0.0,0.0,0.0,0.0,0.0,0.0,0.0,0.0,0.0,0.0,0.0,0.0,0.0,0.0,0.0,0.0,0.0,0.0,0.0,0.0,0.0,0.0,0.0,0.0,0.0,0.0,0.0,0.0,0.0,0.0,0.0,0.0,0.0,0.0,0.0,0.0,0.0,0.0,0.0,0.0,0.0,0.0,0.0,0.0,0.0,0.0,0.0,0.0,0.0,0.0,0.0,2.6254,2.6235,2.6193,2.6193,2.6193,2.6235,2.6565,2.7348,0.0,0.0,0.0,0.0,0.0,0.0,0.0,0.0,0.0,0.0,0.0,0.0,0.0,0.0,0.0,0.0,0.0,0.0,0.0,0.0,0.0,0.0,0.0,0.0,0.0,0.0,0.0,0.0,0.0,0.0,0.0,0.0,0.0,0.0,0.0,0.0,0.0,0.0,0.0,0.0,0.0,0.0,0.0,0.0,0.0,0.0,0.0,0.0,0.0,0.0,0.0,0.0,0.0,0.0,0.0,0.0,0.0,0.0,0.0,0.0,0.0,0.0,0.0,0.0,0.0,0.0,0.0,0.0,0.0,0.0,0.0,0.0,0.0,0.0,0.0,0.0,0.0,0.0,0.0,0.0,0.0,0.0,0.0,0.0,0.0,0.0,0.0,0.0,0.0,0.0,0.0,0.0,0.0,0.0,0.0,0.0,0.0,0.0,0.0,0.0,0.0,0.0,0.0,0.0,2.7307,2.7995,2.8099,2.8099,2.8099,2.8235,2.8315,2.8299,0.0,0.0,0.0,0.0,0.0,0.0,0.0,0.0,0.0,0.0,0.0,0.0,0.0,0.0,0.0,0.0,0.0,0.0,0.0,0.0,0.0,0.0,0.0,0.0,0.0,0.0,0.0,0.0,0.0,0.0,0.0,0.0,0.0,0.0,0.0,0.0,0.0,0.0,0.0,0.0,0.0,0.0,0.0,0.0,0.0,0.0,0.0,0.0,0.0,0.0,0.0,0.0,0.0,0.0,0.0,0.0,0.0,0.0,0.0,0.0,0.0,0.0,0.0,0.0,0.0,0.0,0.0,0.0,0.0,0.0,0.0,0.0,0.0,0.0,0.0,0.0,0.0,0.0,0.0,0.0,0.0,0.0,0.0,0.0,0.0,0.0,0.0,0.0,0.0,0.0,0.0,0.0,0.0,0.0,0.0,0.0,0.0,0.0,0.0,0.0,0.0,0.0,0.0,2.777,2.8059,2.8459,2.8522,2.8522,2.8522,2.8697,2.8752,2.8657,2.7971,0.0,0.0,0.0,0.0,0.0,0.0,0.0,0.0,0.0,0.0,0.0,0.0,0.0,0.0,0.0,0.0,0.0,0.0,0.0,0.0,0.0,0.0,0.0,0.0,0.0,0.0,0.0,0.0,0.0,0.0,0.0,0.0,0.0,0.0,0.0,0.0,0.0,0.0,0.0,0.0,0.0,0.0,0.0,0.0,0.0,0.0,0.0,0.0,0.0,0.0,0.0,0.0,0.0,0.0,0.0,0.0,0.0,0.0,0.0,0.0,0.0,0.0,0.0,0.0,0.0,0.0,0.0,0.0,0.0,0.0,0.0,0.0,0.0,0.0,0.0,0.0,0.0,0.0,0.0,0.0,0.0,0.0,0.0,0.0,0.0,0.0,0.0,0.0,0.0,0.0,0.0,0.0,0.0,0.0,0.0,0.0,0.0,0.0,0.0,0.0,0.0,0.0,2.8736,2.8618,2.8618,2.8618,2.8618,2.8618,2.8855,2.891,2.887,2.9131,0.0,0.0,0.0,0.0,0.0,0.0,0.0,0.0,0.0,0.0,0.0,0.0,0.0,0.0,0.0,0.0,0.0,0.0,0.0,0.0,0.0,0.0,0.0,0.0,0.0,0.0,0.0,0.0,0.0,0.0,0.0,0.0,0.0,0.0,0.0,0.0,0.0,0.0,0.0,0.0,0.0,0.0,0.0,0.0,0.0,0.0,0.0,0.0,0.0,0.0,0.0,0.0,0.0,0.0,0.0,0.0,0.0,0.0,0.0,0.0,0.0,0.0,0.0,0.0,0.0,0.0,0.0,0.0,0.0,0.0,0.0,0.0,0.0,0.0,0.0,0.0,0.0,0.0,0.0,0.0,0.0,0.0,0.0,0.0,0.0,0.0,0.0,0.0,0.0,0.0,0.0,0.0,0.0,0.0,0.0,0.0,0.0,0.0,0.0,0.0,0.0,0.0,2.9052,2.9052,2.9052,2.9052,2.9052,2.9052,2.9223,2.9263,2.9091,2.9507,0.0,0.0,0.0,0.0,0.0,0.0,0.0,0.0,0.0,0.0,0.0,0.0,0.0,0.0,0.0,0.0,0.0,0.0,0.0,0.0,0.0,0.0,0.0,0.0,0.0,0.0,0.0,0.0,0.0,0.0,0.0,0.0,0.0,0.0,0.0,0.0,0.0,0.0,0.0,0.0,0.0,0.0,0.0,0.0,0.0,0.0,0.0,0.0,0.0,0.0,0.0,0.0,0.0,0.0,0.0,0.0,0.0,0.0,0.0,0.0,0.0,0.0,0.0,0.0,0.0,0.0,0.0,0.0,0.0,0.0,0.0,0.0,0.0,0.0,0.0,0.0,0.0,0.0,0.0,0.0,0.0,0.0,0.0,0.0,0.0,0.0,0.0,0.0,0.0,0.0,0.0,0.0,0.0,0.0,0.0,0.0,0.0,0.0,0.0,0.0,0.0,0.0,2.9091,2.9091,2.9091,2.9091,2.9091,2.9091,2.9263,2.938,2.9263,0.0,0.0,0.0,0.0,0.0,0.0,0.0,0.0,0.0,0.0,0.0,0.0,0.0,0.0,0.0,0.0,0.0,0.0,0.0,0.0,0.0,0.0,0.0,0.0,0.0,0.0,0.0,0.0,0.0,0.0,0.0,0.0,0.0,0.0,0.0,0.0,0.0,0.0,0.0,0.0,0.0,0.0,0.0,0.0,0.0,0.0,0.0,0.0,0.0,0.0,0.0,0.0,0.0,0.0,0.0,0.0,0.0,0.0,0.0,0.0,0.0,0.0,0.0,0.0,0.0,0.0,0.0,0.0,0.0,0.0,0.0,0.0,0.0,0.0,0.0,0.0,0.0,0.0,0.0,0.0,0.0,0.0,0.0,0.0,0.0,0.0,0.0,0.0,0.0,0.0,0.0,0.0,0.0,0.0,0.0,0.0,0.0,0.0,0.0,0.0,0.0,0.0,2.9846,2.9846,2.9772,2.9584,2.9599,2.9524,2.9351,2.9651,2.9781,2.956,0.0,0.0,0.0,0.0,0.0,0.0,0.0,0.0,0.0,0.0,0.0,0.0,0.0,0.0,0.0,0.0,0.0,0.0,0.0,0.0,0.0,0.0,0.0,0.0,0.0,0.0,0.0,0.0,0.0,0.0,0.0,0.0,0.0,0.0,0.0,0.0,0.0,0.0,0.0,0.0,0.0,0.0,0.0,0.0,0.0,0.0,0.0,0.0,0.0,0.0,0.0,0.0,0.0,0.0,0.0,0.0,0.0,0.0,0.0,0.0,0.0,0.0,0.0,0.0,0.0,0.0,0.0,0.0,0.0,0.0,0.0,0.0,0.0,0.0,0.0,0.0,0.0,0.0,0.0,0.0,0.0,0.0,0.0,0.0,0.0,0.0,0.0,0.0,0.0,0.0,0.0,0.0,0.0,0.0,0.0,0.0,0.0,0.0,0.0,0.0,0.0,0.0,3.1427,3.1427,3.1226,3.0683,3.0633,3.0446,2.9893,3.0495,3.062,0.0,0.0,0.0,0.0,0.0,0.0,0.0,0.0,0.0,0.0,0.0,0.0,0.0,0.0,0.0,0.0,0.0,0.0,0.0,0.0,0.0,0.0,0.0,0.0,0.0,0.0,0.0,0.0,0.0,0.0,0.0,0.0,0.0,0.0,0.0,0.0,0.0,0.0,0.0,0.0,0.0,0.0,0.0,0.0,0.0,0.0,0.0,0.0,0.0,0.0,0.0,0.0,0.0,0.0,0.0,0.0,0.0,0.0,0.0,0.0,0.0,0.0,0.0,0.0,0.0,0.0,0.0,0.0,0.0,0.0,0.0,0.0,0.0,0.0,0.0,0.0,0.0,0.0,0.0,0.0,0.0,0.0,0.0,0.0,0.0,0.0,0.0,0.0,0.0,0.0,0.0,0.0,0.0,0.0,0.0,0.0,0.0,0.0,0.0,0.0,0.0,0.0,0.0,3.3221,3.3221,3.3167,3.3008,3.2981,3.2768,3.2106,3.2252,3.2128,3.1468,0.0,0.0,0.0,0.0,0.0,0.0,0.0,0.0,0.0,0.0,0.0,0.0,0.0,0.0,0.0,0.0,0.0,0.0,0.0,0.0,0.0,0.0,0.0,0.0,0.0,0.0,0.0,0.0,0.0,0.0,0.0,0.0,0.0,0.0,0.0,0.0,0.0,0.0,0.0,0.0,0.0,0.0,0.0,0.0,0.0,0.0,0.0,0.0,0.0,0.0,0.0,0.0,0.0,0.0,0.0,0.0,0.0,0.0,0.0,0.0,0.0,0.0,0.0,0.0,0.0,0.0,0.0,0.0,0.0,0.0,0.0,0.0,0.0,0.0,0.0,0.0,0.0,0.0,0.0,0.0,0.0,0.0,0.0,0.0,0.0,0.0,0.0,0.0,0.0,0.0,0.0,0.0,0.0,0.0,0.0,0.0,0.0,0.0,0.0,0.0,0.0,0.0,3.4621,3.4699,3.4694,3.4448,3.4498,3.4289,3.3714,3.3698,3.3431,3.2754,0.0,0.0,0.0,0.0,0.0,0.0,0.0,0.0,0.0,0.0,0.0,0.0,0.0,0.0,0.0,0.0,0.0,0.0,0.0,0.0,0.0,0.0,0.0,0.0,0.0,0.0,0.0,0.0,0.0,0.0,0.0,0.0,0.0,0.0,0.0,0.0,0.0,0.0,0.0,0.0,0.0,0.0,0.0,0.0,0.0,0.0,0.0,0.0,0.0,0.0,0.0,0.0,0.0,0.0,0.0,0.0,0.0,0.0,0.0,0.0,0.0,0.0,0.0,0.0,0.0,0.0,0.0,0.0,0.0,0.0,0.0,0.0,0.0,0.0,0.0,0.0,0.0,0.0,0.0,0.0,0.0,0.0,0.0,0.0,0.0,0.0,0.0,0.0,0.0,0.0,0.0,0.0,0.0,0.0,0.0,0.0,0.0,0.0,0.0,0.0,0.0,0.0,3.5922,3.6041,3.5967,3.5493,3.5631,3.5495,3.4957,3.5009,3.4718,3.3868,0.0,0.0,0.0,0.0,0.0,0.0,0.0,0.0,0.0,0.0,0.0,0.0,0.0,0.0,0.0,0.0,0.0,0.0,0.0,0.0,0.0,0.0,0.0,0.0,0.0,0.0,0.0,0.0,0.0,0.0,0.0,0.0,0.0,0.0,0.0,0.0,0.0,0.0,0.0,0.0,0.0,0.0,0.0,0.0,0.0,0.0,0.0,0.0,0.0,0.0,0.0,0.0,0.0,0.0,0.0,0.0,0.0,0.0,0.0,0.0,3.9661,3.9373,0.0,0.0,0.0,0.0,0.0,0.0,0.0,0.0,0.0,0.0,0.0,0.0,0.0,0.0,0.0,0.0,0.0,0.0,0.0,0.0,0.0,0.0,0.0,0.0,0.0,0.0,0.0,0.0,0.0,0.0,0.0,0.0,0.0,0.0,0.0,0.0,0.0,0.0,0.0,0.0,3.8107,3.8144,3.8123,3.8044,3.8053,3.7856,3.7244,3.7214,3.6716,3.549,3.5424,0.0,0.0,0.0,0.0,0.0,0.0,0.0,0.0,0.0,0.0,0.0,0.0,0.0,0.0,0.0,0.0,0.0,0.0,0.0,0.0,0.0,0.0,0.0,0.0,0.0,0.0,0.0,0.0,0.0,0.0,0.0,0.0,0.0,0.0,0.0,0.0,0.0,0.0,0.0,0.0,0.0,0.0,0.0,0.0,0.0,0.0,0.0,0.0,0.0,0.0,0.0,0.0,0.0,0.0,0.0,0.0,0.0,0.0,0.0,4.0305,3.9773,0.0,0.0,0.0,0.0,0.0,0.0,0.0,0.0,0.0,0.0,0.0,0.0,0.0,0.0,0.0,0.0,0.0,0.0,0.0,0.0,0.0,0.0,0.0,0.0,0.0,0.0,0.0,0.0,0.0,0.0,0.0,0.0,0.0,0.0,0.0,0.0,0.0,0.0,0.0,0.0,3.8833,3.887,3.8943,3.8943,3.9017,3.8971,3.8644,3.8317,3.7842,3.7159,3.6802,0.0,0.0,0.0,0.0,0.0,0.0,0.0,0.0,0.0,0.0,0.0,0.0,0.0,0.0,0.0,0.0,0.0,0.0,0.0,0.0,0.0,0.0,0.0,0.0,0.0,0.0,0.0,0.0,0.0,0.0,0.0,0.0,0.0,0.0,0.0,0.0,0.0,0.0,0.0,0.0,0.0,0.0,0.0,0.0,0.0,0.0,0.0,0.0,0.0,0.0,0.0,0.0,0.0,4.1415,4.1545,4.1773,4.217,4.2462,4.2527,4.1547,4.0742,4.013,4.0581,0.0,0.0,0.0,0.0,0.0,0.0,0.0,0.0,0.0,0.0,0.0,0.0,0.0,0.0,0.0,0.0,0.0,0.0,0.0,0.0,0.0,0.0,4.0046,4.0046,4.0046,3.9905,3.9553,0.0,0.0,0.0,0.0,0.0,0.0,0.0,0.0,0.0,0.0,0.0,3.8943,3.9053,3.9156,3.9156,3.9301,3.9373,3.9373,3.8901,3.8512,3.8392,3.7883,3.7315,0.0,0.0,0.0,0.0,0.0,0.0,0.0,0.0,0.0,0.0,0.0,0.0,0.0,0.0,0.0,0.0,0.0,0.0,0.0,0.0,0.0,0.0,0.0,0.0,0.0,0.0,0.0,0.0,0.0,0.0,0.0,0.0,4.9398,4.93,0.0,0.0,0.0,0.0,0.0,0.0,0.0,0.0,0.0,0.0,0.0,0.0,0.0,4.1981,4.1981,4.2109,4.2366,4.2812,4.2975,4.3654,4.4723,4.4137,4.4268,4.4818,4.4006,0.0,4.1723,4.1788,0.0,0.0,0.0,0.0,0.0,0.0,0.0,0.0,0.0,0.0,0.0,0.0,0.0,0.0,0.0,0.0,0.0,0.0,0.0,0.0,0.0,0.0,4.0261,4.0261,4.0152,3.9975,3.994,3.9768,3.9661,3.9661,3.9517,3.9373,0.0,0.0,0.0,0.0,0.0,0.0,3.9301,3.9337,3.9337,3.9337,3.9373,3.9373,3.9373,3.9313,3.902,3.8422,3.8302,3.7973,3.7315,3.6776,0.0,0.0,0.0,0.0,0.0,0.0,0.0,0.0,0.0,0.0,0.0,0.0,0.0,0.0,0.0,0.0,0.0,0.0,0.0,0.0,0.0,0.0,0.0,0.0,0.0,0.0,0.0,0.0,0.0,4.9992,4.9726,4.9892,4.9819,4.9481,0.0,0.0,0.0,0.0,0.0,0.0,0.0,0.0,0.0,4.5322,4.4892,4.4693,4.4693,4.4416,4.4359,4.4623,4.4686,4.5041,4.5559,4.5653,4.5839,4.6149,4.5784,4.5266,4.4596,4.3157,4.2205,4.1723,0.0,0.0,0.0,0.0,4.1625,4.1755,4.2078,4.2237,4.2237,4.1949,0.0,0.0,0.0,0.0,0.0,0.0,0.0,4.136,4.1057,4.0956,4.0854,4.0505,4.0331,4.0261,4.0261,4.0156,4.0016,3.9874,3.9696,3.9553,3.9553,3.9553,0.0,0.0,0.0,3.9373,3.9373,3.9373,3.9373,3.9373,3.9373,3.9373,3.9373,3.9373,3.9254,3.899,3.896,3.8661,3.7973,3.7807,3.7395,0.0,0.0,0.0,0.0,0.0,0.0,0.0,0.0,0.0,0.0,0.0,0.0,0.0,0.0,0.0,0.0,0.0,0.0,0.0,0.0,0.0,0.0,0.0,0.0,0.0,0.0,0.0,0.0,5.0551,5.0212,5.0371,4.9898,4.9492,0.0,0.0,0.0,0.0,0.0,0.0,4.8748,4.8206,4.7804,4.7631,4.709,4.6887,4.709,4.6572,4.6557,4.6891,4.6891,4.6991,4.7191,4.7689,4.78,4.7631,4.7428,4.7259,4.6895,4.4833,4.3664,4.3166,4.3039,4.288,4.2719,4.2718,4.2812,4.2905,4.2865,4.2923,4.2984,4.2831,4.2645,4.2489,4.2395,0.0,0.0,0.0,0.0,4.2269,4.1852,4.1914,4.191,4.1408,4.1463,4.1588,4.1588,4.1485,4.1117,4.0248,3.991,3.9768,3.9768,3.9768,0.0,3.9517,3.9481,3.9445,3.9409,3.9373,3.9373,3.9373,3.9445,3.9481,3.9481,3.9517,3.9553,3.9553,3.9553,3.9343,3.8832,3.8792,3.8288,3.7322,0.0,0.0,0.0,0.0,0.0,0.0,0.0,0.0,0.0,0.0,0.0,0.0,0.0,0.0,0.0,0.0,0.0,0.0,0.0,0.0,0.0,0.0,0.0,0.0,0.0,0.0,0.0,0.0,0.0,5.1117,5.1083,0.0,0.0,0.0,0.0,4.9052,4.9018,4.8714,4.7973,4.7906,4.7597,4.6887,4.6819,4.7124,4.7838,4.7808,4.8483,4.99,4.99,5.0272,5.0916,5.0948,5.0608,4.9898,4.9187,4.8511,4.777,4.6929,4.6234,4.5616,4.5584,4.5207,4.4626,4.4576,4.4561,4.4553,4.4505,4.4468,4.4384,4.3676,4.3015,4.252,4.2489,4.2489,0.0,0.0,4.2489,4.2489,4.2458,4.3007,4.3589,4.3525,4.4075,4.4593,4.4593,4.4429,4.348,4.082,4.0121,3.9975,3.9975,0.0,3.991,3.9732,3.9696,3.9625,3.9409,3.9373,3.9373,3.9373,3.9589,3.9696,3.9696,3.9839,3.9975,3.9975,3.9975,3.9945,3.9915,3.9313,3.8952,3.8892,3.8284,0.0,0.0,0.0,0.0,0.0,0.0,0.0,0.0,0.0,0.0,0.0,0.0,0.0,0.0,0.0,0.0,0.0,0.0,0.0,0.0,0.0,0.0,0.0,0.0,0.0,0.0,0.0,0.0,4.9796,4.9796,0.0,4.9424,4.939,4.9289,4.9018,4.9018,4.9086,4.9289,4.9323,4.9424,4.9627,4.9627,4.9763,5.0002,5.0002,5.0304,5.0811,5.0811,5.0947,5.1185,5.1185,5.1082,5.0811,5.0541,4.9999,4.9289,4.9018,4.795,4.6424,4.6424,4.6304,4.6054,4.6032,4.6055,4.6051,4.6017,4.6007,4.5978,4.5707,4.547,4.5257,4.5257,4.5257,4.5257,4.5257,4.5257,4.5166,4.4737,4.4841,4.4944,4.4496,4.4626,4.4789,4.4789,4.4756,4.4397,4.3384,4.2299,4.1275,4.0353,4.0191,4.0274,4.0485,4.054,4.0692,4.1042,4.1066,4.1066,4.1066,4.0746,4.054,4.054,4.0218,4.0011,4.0011,4.0011,4.0011,4.0011,3.9908,3.9612,3.912,3.9042,3.865,0.0,0.0,0.0,0.0,0.0,0.0,0.0,0.0,0.0,0.0,0.0,0.0,0.0,0.0,0.0,0.0,0.0,0.0,0.0,0.0,0.0,0.0,0.0,0.0,0.0,4.9018,4.9018,4.9018,4.9018,4.9018,4.9018,4.9221,4.9357,4.9357,4.9593,4.9965,5.0439,5.0473,5.071,5.1151,5.1185,5.132,5.1589,5.1589,5.1725,5.1995,5.1995,5.1995,5.1995,5.1995,5.1826,5.1589,5.1589,5.115,5.0473,5.0473,4.9593,4.824,4.7733,4.753,4.7496,4.7259,4.7158,4.7124,4.6887,4.6786,4.6786,4.6786,4.6786,4.6786,4.6786,4.6786,4.6786,4.6786,4.6786,4.6697,4.6274,4.6319,4.6396,4.5955,4.6024,4.6222,4.6222,4.6222,4.6059,4.5603,4.4067,4.2516,4.1627,4.1252,4.1153,4.1401,4.1425,4.1571,4.1923,4.1984,4.1984,4.1984,4.1663,4.1425,4.1425,4.1321,4.1054,4.0558,4.0986,4.0928,4.0222,4.0509,4.0498,3.997,4.0119,3.971,3.8846,0.0,0.0,0.0,0.0,0.0,0.0,0.0,0.0,0.0,0.0,0.0,0.0,0.0,0.0,0.0,0.0,0.0,0.0,0.0,0.0,0.0,0.0,0.0,4.9018,4.9018,4.9018,4.9052,4.9052,4.9052,4.9086,4.9695,5.0166,5.0166,5.0811,5.1217,5.1251,5.1251,5.1251,5.1285,5.1285,5.1623,5.2334,5.2334,5.2739,5.3518,5.3518,5.3518,5.3518,5.3518,5.3078,5.2334,5.2334,5.1928,5.1219,5.1219,5.1219,5.105,4.9627,4.9052,4.8951,4.824,4.7939,4.7804,4.7124,4.6853,4.6853,4.6853,4.6853,4.6853,4.6853,4.6853,4.6853,4.6853,4.6853,4.6853,4.6853,4.7394,4.7906,4.7906,4.8477,4.9018,4.9018,4.9018,4.8596,4.7228,4.5275,4.3812,4.3746,4.3149,4.2602,4.242,4.2383,0.0,4.2082,4.2082,4.2082,4.2082,4.2267,4.2383,4.2346,4.3149,4.3082,4.1714,4.2933,4.2715,4.067,4.1189,4.1557,4.1525,4.153,4.0864,3.956,0.0,0.0,0.0,0.0,0.0,0.0,0.0,0.0,0.0,0.0,0.0,0.0,0.0,0.0,0.0,0.0,0.0,0.0,0.0,0.0,0.0,4.9018,4.9018,4.9018,4.9018,4.9187,4.9729,4.9796,5.0062,5.0764,5.1002,5.1104,5.1104,5.1308,5.1647,5.2192,5.2226,5.2529,5.3236,5.3236,5.3338,5.3543,5.3543,5.3645,5.3849,5.3849,5.3849,5.3849,5.3849,5.3681,5.3345,5.3345,5.2805,5.1995,5.1995,5.1691,5.1151,5.0745,5.027,4.9763,4.956,4.9154,4.868,4.8477,4.8409,4.8409,4.8409,4.8409,4.8409,4.8409,4.8409,4.8409,4.8409,4.8409,4.8409,4.8409,4.8545,4.8714,4.8714,4.8849,4.9018,4.9018,4.9018,4.8889,4.8498,4.7502,4.6257,4.4785,4.4325,4.4145,4.4059,4.4046,4.4018,4.3881,4.4359,4.447,4.3943,4.3998,4.3831,4.3279,4.303,4.2762,4.2355,4.2687,4.2879,4.2834,4.2467,4.2295,4.2205,4.2232,4.1815,0.0,0.0,0.0,0.0,0.0,0.0,0.0,0.0,0.0,0.0,0.0,0.0,0.0,0.0,0.0,0.0,0.0,0.0,0.0,0.0,0.0,0.0,4.9471,4.9675,4.9675,4.9551,4.976,5.06,5.0701,5.0934,5.1566,5.1907,5.2077,5.2077,5.2384,5.2725,5.3169,5.3169,5.3439,5.398,5.398,5.398,5.398,5.398,5.398,5.398,5.398,5.398,5.398,5.398,5.3948,5.3816,5.3816,5.3545,5.3004,5.3004,5.2767,5.2292,0.0,0.0,0.0,0.0,5.0304,4.9932,4.9932,4.9932,4.9932,4.9932,4.9932,4.9932,4.9932,4.9932,4.9932,4.9932,4.9932,4.9932,4.9932,4.9932,4.9932,4.9932,4.9932,4.9932,4.9932,4.9932,4.9932,4.9932,4.9581,0.0,4.7703,4.6454,4.5625,4.5597,4.5591,4.5543,4.5556,4.5913,4.602,4.5551,4.5532,4.5416,4.4989,4.4858,0.0,0.0,0.0,4.4747,4.4591,4.4171,0.0,0.0,0.0,4.3207,4.1936,4.2211,0.0,0.0,3.9181,3.8714,0.0,0.0,0.0,0.0,0.0,0.0,0.0,0.0,0.0,0.0,0.0,0.0,0.0,0.0,0.0,0.0,5.0253,5.0765,5.0868,5.0589,5.0735,5.1573,5.1641,5.177,5.2062,5.2646,5.3056,5.3056,5.3637,5.4013,5.4013,5.4013,0.0,0.0,0.0,5.4045,5.4045,5.4045,5.4045,5.4045,5.4045,5.4045,5.4045,5.4045,5.4045,5.4013,5.4013,5.4013,5.398,5.398,5.398,5.3811,5.2056,5.1352,5.1319,5.1251,5.1249,5.1249,5.1249,0.0,0.0,5.1249,5.1249,5.1249,5.1249,5.1249,5.1249,5.1249,5.1217,5.1185,5.1185,5.1185,5.1185,5.1185,5.1185,5.1185,5.1185,5.1185,5.1185,5.1185,5.1185,5.1185,5.1185,4.9028,4.7261,4.7192,4.7192,4.7158,4.7054,4.7123,4.7158,4.7054,4.7059,0.0,4.6925,4.7471,4.7243,4.5988,4.7165,4.7301,4.5976,4.6005,4.5423,4.407,4.5213,4.4879,4.2999,4.3581,4.3211,4.1947,4.042,3.9629,0.0,0.0,0.0,0.0,0.0,0.0,0.0,0.0,0.0,0.0,0.0,0.0,0.0,0.0,0.0,5.0389,5.1039,5.1791,5.2375,5.2411,5.2448,5.2616,5.265,5.2919,5.3661,5.3866,5.3969,5.3969,5.4072,5.4175,5.4175,5.4175,5.4239,5.4399,5.4399,5.4399,5.4399,5.4399,5.4399,5.4399,5.4399,0.0,5.4399,5.4399,5.4303,5.4175,5.4175,5.411,5.398,5.398,5.398,5.3912,5.2764,5.2229,5.2029,5.1615,5.1441,5.1441,5.1634,5.1663,5.1663,5.1663,5.1663,5.1663,5.1663,5.1568,0.0,5.1441,5.1314,5.1185,5.1185,5.1185,5.1185,5.1185,5.1185,5.1185,5.1185,5.1185,5.1185,5.1185,5.1185,5.1185,5.1185,5.072,5.0159,4.9556,4.9454,4.9248,4.8654,4.9075,4.9214,4.8618,4.8584,4.8326,4.7742,4.7257,4.69,4.6633,4.7408,4.75,4.6643,4.7208,4.7087,4.6223,4.6465,4.6364,4.5958,4.6077,4.5715,4.4816,4.23,4.0537,0.0,0.0,0.0,0.0,0.0,0.0,0.0,0.0,0.0,0.0,0.0,4.9547,5.0103,0.0,5.0887,5.1321,5.2107,5.2726,5.3107,5.345,5.3658,5.3562,5.3562,5.3764,5.4301,5.4335,5.4335,5.4335,5.4335,5.4335,5.4335,5.4335,5.4399,5.4529,5.4494,5.4494,5.4494,5.4494,5.4494,5.4494,5.4494,5.4494,5.4494,5.4494,5.4431,5.4335,5.4335,5.4303,5.4239,5.4239,5.4175,5.4044,5.3603,5.3302,5.3138,5.2829,5.2757,5.2757,5.2887,5.2885,5.2885,5.2885,5.2885,5.2885,5.2885,5.2821,5.2757,5.2757,5.2595,5.2465,5.2465,5.2399,5.2367,5.2367,5.2367,5.2367,5.2367,5.2367,5.2367,5.2367,5.2367,5.2367,5.2367,5.2367,5.1965,5.0827,5.0626,5.0527,5.0156,5.0426,5.0493,5.0156,5.0093,4.9959,4.9592,4.9227,4.8829,4.8465,4.8824,4.8651,4.7948,4.8259,4.8105,4.7361,4.7416,4.7276,4.6903,4.699,4.6641,4.5824,4.4417,4.2751,0.0,0.0,0.0,0.0,0.0,0.0,0.0,4.9381,4.9569,4.9765,4.98,5.0069,5.0974,5.1279,5.1619,5.2326,5.3115,5.3632,5.3632,5.4149,5.4431,5.4271,5.4271,5.4335,5.4463,5.4494,5.4494,5.4494,5.4494,5.4494,5.4494,5.4494,5.4494,5.4494,5.4494,5.4494,5.4494,5.4494,5.4494,5.4494,5.4494,5.4494,5.4494,5.4494,5.4494,5.4494,5.4494,5.4494,5.4494,5.4494,5.4399,5.4271,5.4271,5.4207,5.4078,5.4045,5.4045,5.4045,5.4078,5.4078,5.4078,5.4078,5.4078,5.4078,5.4078,5.4078,5.4045,5.4045,5.3915,5.375,5.375,5.3685,5.3584,5.3551,5.3517,5.3517,5.3517,5.3517,5.3551,5.3584,5.3584,5.3584,5.3584,5.3584,5.3144,5.186,5.1657,5.1657,5.1657,5.1657,5.1657,5.1657,5.1522,5.1386,5.1185,5.1249,5.0979,5.0401,5.0399,5.0094,4.9317,4.9314,4.8975,4.8169,4.8316,4.8099,4.7486,4.7665,4.7267,4.6471,4.6471,4.5185,4.9018,4.9077,4.9229,4.9381,4.9441,4.95,0.0,4.956,4.9765,5.072,5.0828,5.1008,5.1882,5.2636,5.3153,5.3253,5.3908,5.4391,5.4391,5.446,5.4494,5.4463,5.4463,5.4463,5.4494,5.4494,5.4494,5.4494,5.4494,5.4494,5.4494,5.4494,5.4494,5.4494,5.4494,5.4494,5.4494,5.4494,5.4494,5.4494,5.4494,5.4494,5.4494,5.4494,5.4494,5.4494,5.4494,5.4494,5.4494,5.4494,5.4463,5.4463,5.4463,5.4463,5.4399,5.4239,5.4175,5.4207,5.4367,5.4431,5.4431,5.4431,5.4431,5.4431,5.4431,5.4303,5.4175,5.4175,5.4078,5.3948,5.3948,5.3948,5.3882,5.3717,5.3684,5.3684,5.3684,5.3684,5.3717,5.3915,5.3948,5.3948,5.3948,5.3948,5.3782,5.3314,5.3247,5.3247,5.3247,5.3247,5.3247,5.3247,5.2604,5.1928,5.1285,5.1346,5.1439,5.1371,5.1529,5.1188,5.0283,5.0339,4.9998,4.9067,4.9214,4.93,4.9231,4.9231,4.886,4.8123,4.8123,4.6837,4.926,4.932,4.9381,4.9471,4.956,4.9756,5.0292,5.0424,5.069,5.1567,5.1709,5.192,5.2739,5.3184,5.3529,5.3977,5.4322,5.4494,5.4494,5.4494,5.4494,5.4494,5.4494,5.4494,5.4494,5.4494,5.4494,5.4494,5.4494,5.4494,5.4494,5.4494,5.4494,5.4494,5.4494,5.4494,5.4494,5.4494,5.4494,5.4494,5.4494,5.4494,5.4494,5.4494,5.4494,5.4494,5.4494,5.4494,5.4494,5.4494,5.4494,5.4494,5.4494,5.4494,5.4463,5.4399,5.4367,5.4367,5.4463,5.4494,5.4494,5.4494,5.4494,5.4494,5.4494,5.4431,5.4367,5.4367,5.4239,5.411,5.411,5.4045,5.398,5.3882,5.3882,5.3882,5.3882,5.3882,5.3882,5.398,5.398,5.398,5.398,5.398,5.3948,5.3817,5.3784,5.3784,5.3784,5.3784,5.3784,5.3784,5.3511,5.3171,5.2864,5.2929,5.2757,5.2347,5.2377,5.2067,5.1253,5.1281,5.111,5.0711,5.042,5.0305,5.0305,4.9948,4.9571,4.9174,4.9174,4.8583,4.95,4.956,4.9628,4.9864,4.9987,5.0282,5.1073,5.1335,5.1632,5.239,5.2532,5.277,5.3563,5.3701,5.3873,5.4425,5.4494,5.4494,5.4494,5.4494,5.4494,5.4494,5.4494,5.4494,5.4494,5.4494,5.4494,5.4494,5.4494,5.4494,5.4494,5.4494,5.4494,5.4494,5.4494,5.4494,5.4494,5.4494,5.4494,5.4494,5.4494,5.4494,5.4494,5.4494,5.4494,5.4494,5.4494,5.4494,5.4494,5.4494,5.4494,5.4494,5.4494,5.4494,5.4494,5.4494,5.4494,5.4494,5.4494,5.4494,5.4494,5.4494,5.4494,5.4494,5.4494,5.4494,5.4494,5.4494,5.4399,5.4271,5.4271,5.4207,5.411,5.4078,5.4045,5.4045,5.4045,5.4045,5.4078,5.411,5.4143,5.4143,5.4143,5.4143,5.4143,5.4143,5.4143,5.411,5.4013,5.398,5.398,5.398,5.398,5.398,5.398,5.4045,5.384,5.3293,5.3323,5.298,5.2161,5.2224,5.2121,5.1853,5.1459,5.1245,5.1275,5.0814,5.0538,5.0385,5.0385,5.0223,4.9649,4.9708,4.9909,5.0814,5.105,5.1257,5.1981,5.2153,5.2394,5.3218,5.3356,5.3598,5.4356,5.4494,5.4494,5.4494,5.4494,5.4494,5.4494,5.4494,5.4494,5.4494,5.4494,5.4494,5.4494,5.4494,5.4494,5.4494,5.4494,5.4494,5.4494,5.4494,5.4494,5.4494,5.4494,5.4494,5.4494,5.4494,5.4494,5.4494,5.4494,5.4494,5.4494,5.4494,5.4494,5.4494,5.4494,5.4494,5.4494,5.4494,5.4494,5.4494,5.4494,5.4494,5.4494,5.4494,5.4494,5.4494,5.4494,5.4494,5.4494,5.4494,5.4494,5.4494,5.4494,5.4494,5.4494,5.4494,5.4529,5.4463,5.4463,5.4463,5.4431,5.4239,5.4207,5.4207,5.4207,5.4207,5.4239,5.4431,5.4463,5.4463,5.4463,5.4463,5.4463,5.4463,5.4463,5.4367,5.4045,5.398,5.398,5.398,5.398,5.398,5.398,5.411,5.4173,5.4173,5.4333,5.402,5.3072,5.3263,5.2919,5.2008,5.2092,5.2153,5.2153,5.2119,5.2119,5.2119,5.2119,5.174,5.0474,5.0612,5.0818,5.1636,5.1808,5.2046,5.2839,5.3011,5.3218,5.3977,5.4149,5.4218,5.446,5.4494,5.4494,5.4494,5.4494,5.4494,5.4494,5.4494,5.4494,5.4494,5.4494,5.4494,5.4494,5.4494,5.4494,5.4494,5.4494,5.4494,5.4494,5.4494,5.4494,5.4494,5.4494,5.4494,5.4494,5.4494,5.4494,5.4494,5.4494,5.4494,5.4494,5.4494,5.4494,5.4494,5.4494,5.4494,5.4494,5.4494,5.4494,5.4494,5.4494,5.4494,5.4494,5.4494,5.4494,5.4494,5.4494,5.4494,5.4494,5.4494,5.4494,5.4494,5.4494,5.4494,5.4494,5.4494,5.4494,5.4494,5.4494,5.4494,5.4463,5.4399,5.4399,5.4399,5.4399,5.4399,5.4399,5.4463,5.4494,5.4494,5.4494,5.4494,5.4494,5.4494,5.4494,5.4463,5.4335,5.4335,5.4335,5.4335,5.4335,5.4335,5.4335,5.4367,5.4399,5.4399,5.4463,5.4359,5.402,5.4083,5.398,5.3642,5.3222,5.3011,5.3011,5.2459,5.2188,5.2188,5.2188,5.205,5.0976,5.1287,5.1701,5.2459,5.2632,5.2839,5.3632,5.3804,5.3942,5.4425,5.4494,5.4494,5.4494,5.4494,5.4494,5.4494,5.4494,5.4494,5.4494,5.4494,5.4494,5.4494,5.4494,5.4494,5.4494,5.4494,5.4494,5.4494,5.4494,5.4494,5.4494,5.4494,5.4494,5.4494,5.4494,5.4494,5.4494,5.4494,5.4494,5.4494,5.4494,5.4494,5.4494,5.4494,5.4494,5.4494,5.4494,5.4494,5.4494,5.4494,5.4494,5.4494,5.4494,5.4494,5.4494,5.4494,5.4494,5.4494,5.4494,5.4494,5.4494,5.4494,5.4494,5.4494,5.4494,5.4494,5.4494,5.4494,5.4494,5.4494,5.4494,5.4494,5.4494,5.4494,5.4494,5.4494,5.4494,5.4494,5.4494,5.4494,5.4494,5.4494,5.4494,5.4494,5.4494,5.4494,5.4494,5.4494,5.4494,5.4494,5.4494,5.4494,5.4494,5.4494,5.4494,5.4494,5.4494,5.4494,5.4494,5.4494,5.4494,5.4494,5.4494,5.4494,5.4046,5.3804,5.3804,5.3287,5.3015,5.3015,5.3015,5.2908,5.1218,5.1735,5.2429,5.3253,5.346,5.3632,5.4356,5.4494,5.4494,5.4494,5.4494,5.4494,5.4494,5.4494,5.4494,5.4494,5.4494,5.4494,5.4494,5.4494,5.4494,5.4494,5.4494,5.4494,5.4494,5.4494,5.4494,5.4494,5.4494,5.4494,5.4494,5.4494,5.4494,5.4494,5.4494,5.4494,5.4494,5.4494,5.4494,5.4494,5.4494,5.4494,5.4494,5.4494,5.4494,5.4494,5.4494,5.4494,5.4494,5.4494,5.4494,5.4494,5.4494,5.4494,5.4494,5.4494,5.4494,5.4494,5.4494,5.4494,5.4494,5.4494,5.4494,5.4494,5.4494,5.4494,5.4494,5.4494,5.4494,5.4494,5.4494,5.4494,5.4494,5.4494,5.4494,5.4494,5.4494,5.4494,5.4494,5.4494,5.4494,5.4494,5.4494,5.4494,5.4494,5.4494,5.4494,5.4494,5.4494,5.4494,5.4494,5.4494,5.4494,5.4494,5.4494,5.4494,5.4494,5.4494,5.4494,5.4494,5.4494,5.4494,5.4494,5.4494,5.4494,5.4494,5.4494,5.4494,5.4494,5.4494,5.4494,5.4149,5.2494,5.2942,5.3287,5.4046,5.4218,5.4287,5.446,5.4494,5.4494,5.4494,5.4494,5.4494,5.4494,5.4494,5.4494,5.4494,5.4494,5.4494,5.4494,5.4494,5.4494,5.4494,5.4494,5.4494,5.4494,5.4494,5.4494,5.4494,5.4494,5.4494,5.4494,5.4494,5.4494,5.4494,5.4494,5.4494,5.4494,5.4494,5.4494,5.4494,5.4494,5.4494,5.4494,5.4494,5.4494,5.4494,5.4494,5.4494,5.4494,5.4494,5.4494,5.4494,5.4494,5.4494,5.4494,5.4494,5.4494,5.4494,5.4494,5.4494,5.4494,5.4494,5.4494,5.4494,5.4494,5.4494,5.4494,5.4494,5.4494,5.4494,5.4494,5.4494,5.4494,5.4494,5.4494,5.4494,5.4494,5.4494,5.4494,5.4494,5.4494,5.4494,5.4494,5.4494,5.4494,5.4494,5.4494,5.4494,5.4494,5.4494,5.4494,5.4494,5.4494,5.4494,5.4494,5.4494,5.4494,5.4494,5.4494,5.4494,5.4494,5.4494,5.4494,5.4494,5.4494,5.4494,5.4494,5.4494,5.4494,5.4494,5.4494,5.4425,5.308,5.3632,5.3977,5.4391,5.4494,5.4494,5.4494,5.4494,5.4494,5.4494,5.4494,5.4494,5.4494,5.4494,5.4494,5.4494,5.4494,5.4494,5.4494,5.4494,5.4494,5.4494,5.4494,5.4494,5.4494,5.4494,5.4494,5.4494,5.4494,5.4494,5.4494,5.4494,5.4494,5.4494,5.4494,5.4494,5.4494,5.4494,5.4494,5.4494,5.4494,5.4494,5.4494,5.4494,5.4494,5.4494,5.4494,5.4494,5.4494,5.4494,5.4494,5.4494,5.4494,5.4494,5.4494,5.4494,5.4494,5.4494,5.4494,5.4494,5.4494,5.4494,5.4494,5.4494,5.4494,5.4494,5.4494,5.4494,5.4494,5.4494,5.4494,5.4494,5.4494,5.4494,5.4494,5.4494,5.4494,5.4494,5.4494,5.4494,5.4494,5.4494,5.4494,5.4494,5.4494,5.4494,5.4494,5.4494,5.4494,5.4494,5.4494,5.4494,5.4494,5.4494,5.4494,5.4494,5.4494,5.4494,5.4494,5.4494,5.4494,5.4494,5.4494,5.4494,5.4494,5.4494,5.4494,5.4494,5.4494,5.4494,5.4494,5.4494,5.3322,5.4011,5.4494,5.4494,5.4494,5.4494,5.4494,5.4494,5.4494,5.4494,5.4494,5.4494,5.4494,5.4494,5.4494,5.4494,5.4494,5.4494,5.4494,5.4494,5.4494,5.4494,5.4494,5.4494,5.4494,5.4494,5.4494,5.4494,5.4494,5.4494,5.4494,5.4494,5.4494,5.4494,5.4494,5.4494,5.4494,5.4494,5.4494,5.4494,5.4494,5.4494,5.4494,5.4494,5.4494,5.4494,5.4494,5.4494,5.4494,5.4494,5.4494,5.4494,5.4494,5.4494,5.4494,5.4494,5.4494,5.4494,5.4494,5.4494,5.4494,5.4494,5.4494,5.4494,5.4494,5.4494,5.4494,5.4494,5.4494,5.4494,5.4494,5.4494,5.4494,5.4494,5.4494,5.4494,5.4494,5.4494,5.4494,5.4494,5.4494,5.4494,5.4494,5.4494,5.4494,5.4494,5.4494,5.4494,5.4494,5.4494,5.4494,5.4494,5.4494,5.4494,5.4494,5.4494,5.4494,5.4494,5.4494,5.4494,5.4494,5.4494,5.4494,5.4494,5.4494,5.4494,5.4494,5.4494,5.4494,5.4494,5.4494,5.4494,5.3942,5.4425,5.4494,5.4494,5.4494,5.4494,5.4494,5.4494,5.4494,5.4494,5.4494,5.4494,5.4494,5.4494,5.4494,5.4494,5.4494,5.4494,5.4494,5.4494,5.4494,5.4494,5.4494,5.4494,5.4494,5.4494,5.4494,5.4494,5.4494,5.4494,5.4494,5.4494,5.4494,5.4494,5.4494,5.4494,5.4494,5.4494,5.4494,5.4494,5.4494,5.4494,5.4494,5.4494,5.4494,5.4494,5.4494,5.4494,5.4494,5.4494,5.4494,5.4494,5.4494,5.4494,5.4494,5.4494,5.4494,5.4494,5.4494,5.4494,5.4494,5.4494,5.4494,5.4494,5.4494,5.4494,5.4494,5.4494,5.4494,5.4494,5.4494,5.4494,5.4494,5.4494,5.4494,5.4494,5.4494,5.4494,5.4494,5.4494,5.4494,5.4494,5.4494,5.4494,5.4494,5.4494,5.4494,5.4494,5.4494,5.4494,5.4494,5.4494,5.4494,5.4494,5.4494,5.4494,5.4494,5.4494,5.4494,5.4494,5.4494,5.4494,5.4494,5.4494,5.4494,5.4494,5.4494,5.4494,5.4494,5.4494,5.4494,5.4494,5.408,5.4494,5.4494,5.4494,5.4494,5.4494,5.4494,5.4494,5.4391,5.4011,5.4253,5.4391,5.4011,5.4253,5.4494,5.4494,5.4494,5.4494,5.4494,5.4494,5.4494,5.4494,5.4494,5.4494,5.4494,5.4494,5.4494,5.4494,5.4494,5.4494,5.4494,5.4494,5.4494,5.4494,5.4494,5.4494,5.4494,5.4494,5.4494,5.4494,5.4494,5.4701,5.5081,5.5081,5.5322,5.5701,5.5701,5.5701,5.5667,5.5253,5.5081,5.5046,5.4667,5.4494,5.4494,5.4494,5.4494,5.4494,5.4494,5.4494,5.4563,5.4943,5.4805,5.4494,5.4494,5.4494,5.4494,5.4494,5.4494,5.4494,5.4494,5.4494,5.4494,5.4494,5.4494,5.4494,5.4494,5.4494,5.4494,5.4494,5.4494,5.4494,5.4494,5.4494,5.4494,5.4494,5.4494,5.4494,5.4494,5.4494,5.4494,5.4494,5.4494,5.4494,5.4494,5.4494,5.4494,5.4494,5.4494,5.4494,5.4494,5.4494,5.4494,5.4494,5.4494,5.4494,5.4494,5.4494,5.4494,5.4494,5.4494,5.4494,5.3908,5.4391,5.4494,5.4494,5.4494,5.4494,5.4494,5.4391,5.4115,5.3529,5.3736,5.3873,5.3494,5.3873,5.4322,5.4494,5.4494,5.4494,5.4494,5.4494,5.4494,5.4494,5.4494,5.4494,5.4494,5.4494,5.4494,5.4494,5.4494,5.4494,5.4494,5.4494,5.4494,5.4494,5.4494,5.4494,5.4494,5.4494,5.4598,5.4736,5.4736,5.515,5.5874,5.5874,5.6219,5.6805,5.6805,5.6805,5.6736,5.6115,5.5874,5.5805,5.5219,5.5012,5.5012,5.5012,5.5012,5.5012,5.5012,5.5012,5.5081,5.5667,5.5357,5.477,5.4943,5.5012,5.5012,5.5012,5.5012,5.5012,5.5012,5.5012,5.5012,5.5012,5.5012,5.5012,5.5012,5.5012,5.4943,5.477,5.4736,5.4701,5.4529,5.4494,5.4494,5.4494,5.4494,5.4494,5.4494,5.4494,5.4494,5.4494,5.4494,5.4494,5.4494,5.4494,5.4494,5.4494,5.4494,5.4494,5.4494,5.4494,5.4494,5.4494,5.4494,5.4494,5.4494,5.4494,5.4494,5.4494,5.4494,5.4494,5.3253,5.4011,5.4494,5.4494,5.4494,5.4494,5.4494,5.3977,5.3494,5.3425,5.2873,5.2632,5.3287,5.346,5.3736,5.4391,5.4494,5.4494,5.4494,5.4494,5.4494,5.4494,5.4494,5.4494,5.4494,5.4494,5.4494,5.4494,5.4494,5.4494,5.4494,5.4494,5.4494,5.4494,5.4494,5.4494,5.4494,5.4494,5.4839,5.5529,5.5529,5.5943,5.6702,5.6702,5.6736,5.6805,5.6805,5.6805,5.6805,5.6736,5.6702,5.6667,5.6633,5.6598,5.6598,5.6598,5.6598,5.6598,5.6598,5.6598,5.6598,5.6667,5.615,5.5667,5.6357,5.6598,5.6598,5.6598,5.6598,5.6598,5.6598,5.6598,5.6598,5.6598,5.6598,5.6598,5.6598,5.6598,5.6357,5.5667,5.5529,5.5288,5.4632,5.4494,5.4494,5.4494,5.4494,5.4494,5.4494,5.4494,5.4494,5.4494,5.4494,5.4494,5.4494,5.4494,5.4494,5.4494,5.4494,5.4494,5.4494,5.4494,5.4494,5.4494,5.4494,5.4494,5.4494,5.4494,5.4494,5.4494,5.4494,5.4494,5.308,5.3632,5.3942,5.4391,5.4494,5.4391,5.3942,5.3598,5.3149,5.2218,5.2114,5.2291,5.2632,5.308,5.3632,5.4391,5.4494,5.4494,5.4494,5.4494,5.4494,5.4494,5.4494,5.4494,5.4494,5.4494,5.4494,5.4494,5.4494,5.4494,5.4494,5.4494,5.4494,5.4494,5.4494,5.4494,5.4494,5.4943,5.5322,5.5632,5.6115,5.6736,5.746,5.746,5.7702,5.8116,5.8116,5.8116,5.8081,5.7667,5.746,5.7426,5.6978,5.6805,5.6805,5.6805,5.6805,5.6805,5.6805,5.6805,5.6874,5.7322,5.7253,5.6978,5.684,5.6805,5.6805,5.6805,5.6805,5.6805,5.6805,5.6805,5.6805,5.6805,5.6805,5.6805,5.6805,5.6805,5.6702,5.6391,5.6322,5.6219,5.5943,5.5874,5.5874,5.5874,5.5874,5.5874,5.5874,5.5874,5.5701,5.5219,5.477,5.4494,5.4494,5.4494,5.4494,5.4494,5.4494,5.4494,5.4494,5.4494,5.4494,5.4494,5.4494,5.4494,5.4494,5.4494,5.4494,5.4494,5.4494,5.4494,5.2425,5.2873,5.3184,5.3701,5.3839,5.3701,5.3184,5.2873,5.2425,5.1321,5.1356,5.1671,5.2119,5.2666,5.3356,5.4356,5.4494,5.4494,5.4494,5.4494,5.4494,5.4494,5.4494,5.4494,5.4494,5.4494,5.4494,5.4494,5.4494,5.4494,5.4494,5.4494,5.4494,5.4494,5.4494,5.4598,5.4839,5.5357,5.5839,5.6288,5.684,5.7529,5.8254,5.8254,5.853,5.9012,5.9012,5.9012,5.8978,5.8461,5.8254,5.8185,5.7667,5.746,5.746,5.746,5.746,5.746,5.746,5.746,5.7529,5.8081,5.8254,5.815,5.7598,5.746,5.746,5.746,5.746,5.746,5.746,5.746,5.746,5.746,5.746,5.746,5.746,5.746,5.7391,5.7185,5.7116,5.7047,5.684,5.6805,5.6805,5.6805,5.6805,5.6805,5.6805,5.6805,5.6598,5.6046,5.5495,5.5012,5.4563,5.4494,5.4494,5.4494,5.4494,5.4494,5.4494,5.4494,5.4494,5.4494,5.4494,5.4494,5.4494,5.4494,5.4494,5.4494,5.4494,5.4494,5.1149,5.1666,5.2188,5.2222,5.2222,5.2222,5.2188,5.1636,5.1149,5.1114,5.0528,5.0493,5.1912,5.2188,5.2705,5.4253,5.4494,5.4494,5.4494,5.4494,5.4494,5.4494,5.4494,5.4494,5.4494,5.4494,5.4494,5.4494,5.4494,5.4494,5.4494,5.4494,5.4494,5.4494,5.4494,5.4874,5.5598,5.5598,5.6391,5.7874,5.7874,5.8288,5.9012,5.9012,5.9012,5.9012,5.9012,5.9012,5.9012,5.9012,5.9012,5.9012,5.8978,5.8978,5.8978,5.8978,5.8978,5.8978,5.8978,5.8978,5.8978,5.9012,5.9012,5.9012,5.8978,5.8978,5.8978,5.8978,5.8978,5.8978,5.8978,5.8978,5.8978,5.8978,5.8978,5.8978,5.8978,5.8978,5.8771,5.8047,5.7909,5.7667,5.6943,5.6805,5.6805,5.6805,5.6805,5.6805,5.6805,5.6805,5.6805,5.6771,5.6771,5.615,5.4632,5.4494,5.4494,5.4494,5.4494,5.4494,5.4494,5.4494,5.4494,5.4494,5.4494,5.4494,5.4494,5.4494,5.4494,5.4494,5.4494,5.4494,5.0976,5.1287,5.1567,5.205,5.2188,5.205,5.1563,5.1287,5.0976,5.0459,5.0183,5.0459,5.1912,5.2188,5.267,5.4253,5.4494,5.4494,5.4494,5.4494,5.4494,5.4494,5.4494,5.4494,5.4494,5.4494,5.4494,5.4494,5.4494,5.4494,5.4494,5.4494,5.4494,5.4494,5.5012,5.5391,5.5598,5.6667,5.7426,5.7909,5.8426,5.8771,5.9012,5.9012,5.9012,5.9012,5.9012,5.9012,5.9012,5.9012,5.9012,5.9012,5.9012,5.9012,5.9012,5.9012,5.9012,5.9012,5.9012,5.9012,5.9012,5.9012,5.9012,5.9012,5.9012,5.9012,5.9012,5.9012,5.9012,5.9012,5.9012,5.9012,5.9012,5.9012,5.9012,5.9012,5.9012,5.9012,5.8944,5.8702,5.8668,5.8599,5.8357,5.8323,5.8323,5.8323,5.8323,5.8323,5.8323,5.8323,5.8116,5.7598,5.7564,5.715,5.615,5.5563,5.5253,5.5253,5.4805,5.4494,5.4494,5.4494,5.4494,5.4494,5.4494,5.4494,5.4494,5.4494,5.4494,5.4494,5.4494,5.4494,5.0562,5.07,5.0804,5.1287,5.136,5.1252,5.0804,5.07,5.0562,5.008,5.0011,5.0459,5.1912,5.2188,5.267,5.4253,5.4494,5.4494,5.4494,5.4494,5.4494,5.4494,5.4494,5.4494,5.4494,5.4494,5.4494,5.4494,5.4494,5.4494,5.4494,5.4494,5.4632,5.4908,5.5391,5.5908,5.646,5.7426,5.8047,5.8323,5.8806,5.9012,5.9012,5.9012,5.9012,5.9012,5.9012,5.9012,0.0,5.9012,5.9012,5.9012,5.9012,5.9012,5.9012,5.9012,5.9012,5.9012,5.9012,5.9012,5.9012,5.9012,5.9012,5.9012,5.9012,5.9012,5.9012,5.9012,5.9012,5.9012,5.9012,5.9012,5.9012,5.9012,5.9012,5.9012,5.9012,5.9012,5.9012,5.9012,5.9012,5.9012,5.9012,5.9012,5.9012,5.9012,5.9012,5.9012,5.9012,5.9012,5.884,5.8357,5.8323,5.815,5.7667,5.6667,5.6046,5.6046,5.5632,5.5219,5.4943,5.4943,5.4805,5.4529,5.4494,5.4494,5.4494,5.4494,5.4494,5.4494,5.4494,5.4494,0.0,5.004,5.0011,5.0011,5.004,5.0068,5.0068,5.0068,0.0,5.0068,5.004,5.0459,5.1912,5.2188,5.267,5.4253,5.4494,5.4494,5.4494,5.4494,5.4494,5.4494,5.4494,5.4494,5.4494,5.4494,5.4494,5.4494,5.4494,5.4494,5.4494,5.4494,5.4874,5.5667,5.5701,5.6426,5.7909,5.7943,5.8323,5.9012,5.9012,5.9012,5.9012,5.9012,5.9012,5.9012,5.9012,5.9012,5.9012,5.9012,5.9012,5.9012,5.9012,5.9012,5.9012,5.9012,5.9012,5.9012,5.9012,5.9012,5.9012,5.9012,5.9012,5.9012,5.9012,5.9012,5.9012,5.9012,5.9012,5.9012,5.9012,5.9012,5.9012,5.9012,5.9012,5.9012,5.9012,5.9012,5.9012,5.9012,5.9012,5.9012,5.9012,5.9012,5.9012,5.9012,5.9012,5.9012,5.9012,5.9012,5.9012,5.9012,5.9012,5.9012,5.9012,5.7702,5.6874,5.6874,5.684,5.646,5.5736,5.5701,5.5357,5.4598,5.4529,5.4494,5.4494,5.4494,5.4494,5.4494,5.4494,5.4494,5.062,0.0,5.0011,5.0011,5.032,5.062,0.0,5.062,5.062,5.062,5.0291,5.0459,5.1912,5.2188,5.267,5.4253,5.4494,5.4494,5.4494,5.4494,5.4494,5.4494,5.4494,5.4494,5.4494,5.4494,5.4494,5.4494,5.4494,5.4494,5.4494,5.4494,5.5115,5.6495,5.6529,5.6978,5.7909,5.8461,5.884,5.9012,5.9012,5.9012,5.9012,5.9012,5.9012,5.9012,5.9012,5.9012,5.9012,5.9012,5.9012,5.9012,5.9012,5.9012,5.9012,5.9012,5.9012,5.9012,5.9012,5.9012,5.9012,5.9012,5.9012,5.9012,5.9012,5.9012,5.9012,5.9012,5.9012,5.9012,5.9012,5.9012,5.9012,5.9012,5.9012,5.9012,5.9012,5.9012,5.9012,5.9012,5.9012,5.9012,5.9012,5.9012,5.9012,5.9012,5.9012,5.9012,5.9012,5.9012,5.9012,5.9012,5.9012,5.9012,5.9012,5.8185,5.7633,5.7633,5.7116,5.6736,5.6529,5.6529,5.615,5.5391,5.4805,5.4494,5.4494,5.4494,5.4494,5.4494,5.4494,5.4494,5.0803,5.0592,5.0341,5.0341,5.0592,5.0803,5.0803,5.0803,5.0803,5.0803,5.0619,5.0873,5.1981,5.2528,5.3149,5.4322,5.4494,5.4494,5.4494,5.4494,5.4494,5.4494,5.4494,5.4494,5.4494,5.4494,5.4494,5.4494,5.4494,5.4494,5.4494,5.4494,5.5046,5.6219,5.6598,5.7322,5.8392,5.8806,5.9012,5.9012,5.9012,5.9012,5.9012,5.9012,5.9012,5.9012,5.9012,5.9012,5.9012,5.9012,5.9012,5.9012,5.9012,5.9012,5.9012,5.9012,5.9012,5.9012,5.9012,5.9012,5.9012,5.9012,5.9012,5.9012,5.9012,5.9012,5.9012,5.9012,5.9012,5.9012,5.9012,5.9012,5.9012,5.9012,5.9012,5.9012,5.9012,5.9012,5.9012,5.9012,5.9012,5.9012,5.9012,5.9012,5.9012,5.9012,5.9012,5.9012,5.9012,5.9012,5.9012,5.9012,5.9012,5.9012,5.9012,5.8633,5.8426,5.8426,5.8047,5.7667,5.7322,5.7322,5.6943,5.6184,5.577,5.5391,5.5012,5.5012,5.4839,5.4494,5.4494,5.4494,5.1044,5.1044,5.1044,5.0937,5.0991,5.1044,5.1044,5.0991,5.0999,5.1185,5.1228,5.1504,5.2369,5.306,5.3756,5.4391,5.4494,5.4494,5.4494,5.4494,5.4494,5.4494,5.4494,5.4494,5.4494,5.4494,5.4494,5.4494,5.4494,5.4494,5.4494,5.4494,5.4839,5.5598,5.6391,5.746,5.884,5.8944,5.9012,5.9012,5.9012,5.9012,5.9012,5.9012,5.9012,5.9012,5.9012,5.9012,5.9012,5.9012,5.9012,5.9012,5.9012,5.9012,5.9012,5.9012,5.9012,5.9012,5.9012,5.9012,5.9012,5.9012,5.9012,5.9012,5.9012,5.9012,5.9012,5.9012,5.9012,5.9012,5.9012,5.9012,5.9012,5.9012,5.9012,5.9012,5.9012,5.9012,5.9012,5.9012,5.9012,5.9012,5.9012,5.9012,5.9012,5.9012,5.9012,5.9012,5.9012,5.9012,5.9012,5.9012,5.9012,5.9012,5.9012,5.9012,5.9012,5.9012,5.9012,5.8737,5.8116,5.7978,5.7598,5.6978,5.6874,5.646,5.5805,5.5805,5.546,5.4839,5.4736,5.4667,5.2137,5.2137,5.2054,5.1576,5.1799,5.2137,5.2137,5.1799,5.1779,5.293,5.2465,5.2299,5.3637,5.3993,5.4166,5.4451,5.4494,5.4494,5.4494,5.4494,5.4494,5.4494,5.4494,5.4494,5.4494,5.4494,5.4494,5.4494,5.4494,5.4494,5.4494,5.4494,5.4839,5.5598,5.6391,5.7219,5.8081,5.8702,5.9012,5.9012,5.9012,5.9012,5.9012,5.9012,5.9012,5.9012,5.9012,5.9012,5.9012,5.9012,5.9012,5.9012,5.9012,5.9012,5.9012,5.9012,5.9012,5.9012,5.9012,5.9012,5.9012,5.9012,5.9012,5.9012,5.9012,5.9012,5.9012,5.9012,5.9012,5.9012,5.9012,5.9012,5.9012,5.9012,5.9012,5.9012,5.9012,5.9012,5.9012,5.9012,5.9012,5.9012,5.9012,5.9012,5.9012,5.9012,5.9012,5.9012,5.9012,5.9012,5.9012,5.9012,5.9012,5.9012,5.9012,5.9012,5.9012,5.9012,5.9012,5.8944,5.884,5.8254,5.784,5.7736,5.7116,5.6736,5.6633,5.6633,5.6564,5.6426,5.577,5.546,5.2408,5.2627,5.2761,5.2522,5.2221,5.1946,5.1946,5.1775,5.189,5.2952,5.31,5.3289,5.4048,5.4559,5.4774,5.452,5.4494,5.4494,5.4494,5.4494,5.4494,5.4494,5.4494,5.4494,5.4494,5.4494,5.4494,5.4494,5.4494,5.4494,5.4494,5.4494,5.4667,5.5012,5.6184,5.6978,5.7288,5.8426,5.9012,5.9012,5.9012,5.9012,5.9012,5.9012,5.9012,5.9012,5.9012,5.9012,5.9012,5.9012,5.9012,5.9012,5.9012,5.9012,5.9012,5.9012,5.9012,5.9012,5.9012,5.9012,5.9012,5.9012,5.9012,5.9012,5.9012,5.9012,5.9012,5.9012,5.9012,5.9012,5.9012,5.9012,5.9012,5.9012,5.9012,5.9012,5.9012,5.9012,5.9012,5.9012,5.9012,5.9012,5.9012,5.9012,5.9012,5.9012,5.9012,5.9012,5.9012,5.9012,5.9012,5.9012,5.9012,5.9012,5.9012,5.9012,5.9012,5.9012,5.9012,5.9012,5.9012,5.8668,5.8495,5.8495,5.815,5.7805,5.7391,5.7391,5.7185,5.6805,5.6426,5.6253,5.2604,5.2872,5.3203,5.3203,5.2568,5.197,5.197,5.2016,5.2301,5.3089,5.3739,5.426,5.4429,5.4863,5.5048,5.4589,5.4494,5.4494,5.4494,5.4494,5.4494,5.4494,5.4494,5.4494,5.4494,5.4494,5.4494,5.4494,5.4494,5.4494,5.4494,5.4494,5.4494,5.4494,5.5805,5.6598,5.6805,5.8081,5.884,5.9012,5.9012,5.9012,5.9012,5.9012,5.9012,5.9012,5.9012,5.9012,5.9012,5.9012,5.9012,5.9012,5.9012,5.9012,5.9012,5.9012,5.9012,5.9012,5.9012,5.9012,5.9012,5.9012,5.9012,5.9012,5.9012,5.9012,5.9012,5.9012,5.9012,5.9012,5.9012,5.9012,5.9012,5.9012,5.9012,5.9012,5.9012,5.9012,5.9012,5.9012,5.9012,5.9012,5.9012,5.9012,5.9012,5.9012,5.9012,5.9012,5.9012,5.9012,5.9012,5.9012,5.9012,5.9012,5.9012,5.9012,5.9012,5.9012,5.9012,5.9012,5.9012,5.9012,5.9012,5.9012,5.9012,5.8737,5.815,5.815,5.7874,5.7322,5.715,5.7047,5.3124,5.3182,5.3203,5.3203,5.3124,5.3082,5.3082,5.3263,5.3664,5.44,5.4784,5.507,5.5273,5.4922,5.4557,5.4494,5.4494,5.4494,5.4494,5.4494,5.4494,5.4494,5.4494,5.4494,5.4494,5.4494,5.4494,5.4494,5.4494,5.4494,5.4494,5.4494,5.4494,5.4494,5.5288,5.6046,5.6805,5.7598,5.8323,5.9012,5.9012,5.9012,5.9012,5.9012,5.9012,5.9012,5.9012,5.9012,5.9012,5.9012,5.9012,5.9012,5.9012,5.9012,5.9012,5.9012,5.9012,5.9012,5.9012,5.9012,5.9012,5.9012,5.9012,5.9012,5.9012,5.9012,5.9012,5.9012,5.9012,5.9012,5.9012,5.9012,5.9012,5.9012,5.9012,5.9012,5.9012,5.9012,5.9012,5.9012,5.9012,5.9012,5.9012,5.9012,5.9012,5.9012,5.9012,5.9012,5.9012,5.9012,5.9012,5.9012,5.9012,5.9012,5.9012,5.9012,5.9012,5.9012,5.9012,5.9012,5.9012,5.9012,5.9012,5.9012,5.9012,5.8978,5.8944,5.8944,5.8909,5.884,5.815,5.784,5.3203,5.3203,5.3203,5.3203,5.3592,5.3836,5.3512,5.3525,5.3952,5.5257,5.5555,5.5682,5.5913,5.5164,5.462,5.5018,5.471,5.4494,5.4494,5.4494,5.4494,5.4494,5.4494,5.4494,5.4494,5.4494,5.4494,5.4494,5.4494,5.4494,5.4494,5.4494,5.4494,5.4494,5.5219,5.6012,5.6805,5.7529,5.8288,5.9012,5.9012,5.9012,5.9012,5.9012,5.9012,5.9012,5.9012,5.9012,5.9012,5.9012,5.9012,5.9012,5.9012,5.9012,5.9012,5.9012,5.9012,5.9012,5.9012,5.9012,5.9012,5.9012,5.9012,5.9012,5.9012,5.9012,5.9012,5.9012,5.9012,5.9012,5.9012,5.9012,5.9012,5.9012,5.9012,5.9012,5.9012,5.9012,5.9012,5.9012,5.9012,5.9012,5.9012,5.9012,5.9012,5.9012,5.9012,5.9012,5.9012,5.9012,5.9012,5.9012,5.9012,5.9012,5.9012,5.9012,5.9012,5.9012,5.9012,5.9012,5.9012,5.9012,5.9012,5.9012,5.9012,5.9012,5.9012,5.9012,5.9012,5.9012,5.8737,5.8599,5.3146,5.3082,5.2995,5.3182,5.3812,5.4349,5.4255,5.4441,5.4867,5.5752,5.6013,5.5995,5.6004,5.5343,5.4865,5.5074,5.4741,5.4494,5.4494,5.4494,5.4494,5.4494,5.4494,5.4494,5.4494,5.4494,5.4494,5.4494,5.4494,5.4494,5.4494,5.4494,5.4494,5.4494,5.5012,5.5632,5.6426,5.7185,5.7909,5.8668,5.8909,5.9012,5.9012,5.9012,5.9012,5.9012,5.9012,5.9012,5.9012,5.9012,5.9012,5.9012,5.9012,5.9012,5.9012,5.9012,5.9012,5.9012,5.9012,5.9012,5.9012,5.9012,5.9012,5.9012,5.9012,5.9012,5.9012,5.9012,5.9012,5.9012,5.9012,5.9012,5.9012,5.9012,5.9012,5.9012,5.9012,5.9012,5.9012,5.9012,5.9012,5.9012,5.9012,5.9012,5.9012,5.9012,5.9012,5.9012,5.9012,5.9012,5.9012,5.9012,5.9012,5.9012,5.9012,5.9012,5.9012,5.9012,5.9012,5.9012,5.9012,5.9012,5.9012,5.9012,5.9012,5.9012,5.9012,5.9012,5.9012,5.9012,5.9012,5.9012,5.306,5.2806,5.2559,5.306,5.3812,5.462,5.5412,5.6198,5.6649,5.6019,5.6103,5.6138,5.5513,5.5402,5.5194,5.4589,5.4494,5.4494,5.4494,5.4494,5.4494,5.4494,5.4494,5.4494,5.4494,5.4494,5.4494,5.4494,5.4494,5.4494,5.4494,5.4494,5.4494,5.4494,5.4494,5.4874,5.5566,5.6391,5.7185,5.7909,5.8668,5.9012,5.9012,5.9012,5.9012,5.9012,5.9012,5.9012,5.9012,5.9012,5.9012,5.9012,5.9012,5.9012,5.9012,5.9012,5.9012,5.9012,5.9012,5.9012,5.9012,5.9012,5.9012,5.9012,5.9012,5.9012,5.9012,5.9012,5.9012,5.9012,5.9012,5.9012,5.9012,5.9012,5.9012,5.9012,5.9012,5.9012,5.9012,5.9012,5.9012,5.9012,5.9012,5.9012,5.9012,5.9012,5.9012,5.9012,5.9012,5.9012,5.9012,5.9012,5.9012,5.9012,5.9012,5.9012,5.9012,5.9012,5.9012,5.9012,5.9012,5.9012,5.9012,5.9012,5.9012,5.9012,5.9012,5.9012,5.9012,5.9012,5.9012,5.9012,5.3182,5.3082,5.3017,5.3214,5.4344,5.5469,5.5754,5.6411,5.6909,5.6891,5.6859,5.6704,5.6138,5.5687,5.5343,5.5164,5.4772,5.4494,5.4494,5.4494,5.4494,5.4494,5.4494,5.4494,5.4494,5.4494,5.4494,5.4494,5.4494,5.4494,5.4494,5.4494,5.4494,5.4494,5.4494,5.4874,5.5566,5.6391,5.7185,5.7909,5.8668,5.9012,5.9012,5.9012,5.9012,5.9012,5.9012,5.9012,5.9012,5.9012,5.9012,5.9012,5.9012,5.9012,5.9012,5.9012,5.9012,5.9012,5.9012,5.9012,5.9012,5.9012,5.9012,5.9012,5.9012,5.9012,5.9012,5.9012,5.9012,5.9012,5.9012,5.9012,5.9012,5.9012,5.9012,5.9012,5.9012,5.9012,5.9012,5.9012,5.9012,5.9012,5.9012,5.9012,5.9012,5.9012,5.9012,5.9012,5.9012,5.9012,5.9012,5.9012,5.9012,5.9012,5.9012,5.9012,5.9012,5.9012,5.9012,5.9012,5.9012,5.9012,5.9012,5.9012,5.9012,5.9012,5.9012,5.9012,5.9012,5.9012,5.9012,5.9012,5.2872,5.2769,5.2747,5.3277,5.4596,5.604,5.6773,5.722,5.7522,5.7711,5.7642,5.729,5.6483,5.6047,5.5623,5.5104,5.4745,5.4494,5.4494,5.4494,5.4494,5.4494,5.4494,5.4494,5.4494,5.4494,5.4494,5.4494,5.4494,5.4494,5.4494,5.4494,5.4494,5.4494,5.4494,5.4874,5.5566,5.6391,5.7185,5.7909,5.8668,5.9012,5.9012,5.9012,5.9012,5.9012,5.9012,5.9012,5.9012,5.9012,5.9012,5.9012,5.9012,5.9012,5.9012,5.9012,5.9012,5.9012,5.9012,5.9012,5.9012,5.9012,5.9012,5.9012,5.9012,5.9012,5.9012,5.9012,5.9012,5.9012,5.9012,5.9012,5.9012,5.9012,5.9012,5.9012,5.9012,5.9012,5.9116,5.9426,5.9495,5.9564,5.9875,5.9668,5.9495,5.9495,5.9219,5.9012,5.9012,5.9012,5.9012,5.9012,5.9012,5.9012,5.9012,5.9012,5.9012,5.9012,5.9012,5.9012,5.9012,5.9012,5.9012,5.9012,5.9012,5.9012,5.9012,5.9012,5.9012,5.9012,5.9012,5.9012,5.2358,5.2159,5.2089,5.3219,5.4757,5.6404,5.81,5.8378,5.8246,5.8393,5.8327,5.7867,5.6659,5.6411,5.5984,5.471,5.4494,5.4494,5.4494,5.4494,5.4494,5.4494,5.4494,5.4494,5.4494,5.4494,5.4494,5.4494,5.4494,5.4494,5.4494,5.4494,5.4494,5.4494,5.4494,5.4874,5.5566,5.6391,5.7185,5.7909,5.8668,5.9012,5.9012,5.9012,5.9012,5.9012,5.9012,5.9012,5.9012,5.9012,5.9012,5.9012,5.9012,5.9012,5.9012,5.9012,5.9012,5.9012,5.9012,5.9012,5.9012,5.9012,5.9012,5.9012,5.9012,5.9012,5.9012,5.9012,5.9012,5.9012,5.9012,5.9012,5.9012,5.9012,5.9012,5.9047,5.9116,5.9116,5.9357,6.0151,6.0289,6.0496,6.1185,6.0737,6.0289,6.0289,5.9668,5.9185,5.9116,5.9116,5.9081,5.9012,5.9012,5.9012,5.9012,5.9012,5.9012,5.9012,5.9012,5.9012,5.9012,5.9012,5.9012,5.9012,5.9012,5.9012,5.9012,5.9012,5.9012,5.9012,5.9012,5.9012,5.2472,5.2531,5.2747,5.3477,5.4956,5.6631,5.8285,5.8551,5.8465,5.8486,5.84,5.7983,5.6861,5.6501,5.6039,5.493,5.4623,5.4494,5.4494,5.4494,5.4494,5.4494,5.4494,5.4494,5.4494,5.4494,5.4494,5.4494,5.4494,5.4494,5.4494,5.4494,5.4494,5.4494,5.4494,5.4874,5.5566,5.6391,5.7185,5.7909,5.8668,5.9012,5.9012,5.9012,5.9012,5.9012,5.9012,5.9012,5.9012,5.9012,5.9012,5.9012,5.9012,5.9012,5.9012,5.9012,5.9012,5.9012,5.9012,5.9012,5.9012,5.9012,5.9012,5.9012,5.9012,5.9012,5.9012,5.9012,5.9012,5.9012,5.9012,5.9012,5.9012,5.9012,5.9012,5.9185,5.9806,5.9944,6.0151,6.0909,6.1047,6.1116,6.1289,6.1185,6.1047,6.1047,6.0909,6.0599,6.0013,5.9944,5.9702,5.9081,5.9012,5.9012,5.9012,5.9012,5.9012,5.9012,5.9012,5.9012,5.9012,5.9012,5.9012,5.9012,5.9012,5.9012,5.9012,5.9012,5.9012,5.9012,5.9012,5.9012,5.191,5.2325,5.3105,5.4559,5.5649,5.6729,5.8326,5.8635,5.8593,5.8593,5.8508,5.8119,5.7015,5.6721,5.6267,5.4992,5.4717,5.4623,5.4494,5.4494,5.4494,5.4494,5.4494,5.4494,5.4494,5.4494,5.4494,5.4494,5.4494,5.4494,5.4494,5.4494,5.4494,5.4494,5.4494,5.5046,5.6184,5.6598,5.7357,5.8426,5.884,5.9012,5.9012,5.9012,5.9012,5.9012,5.9012,5.9012,5.9012,5.9012,5.9012,5.9012,5.9012,5.9012,5.9012,5.9012,5.9012,5.9012,5.9012,5.9012,5.9012,5.9012,5.9012,5.9012,5.9012,5.9012,5.9012,5.9012,5.9012,5.9012,5.9012,5.9012,5.9116,5.9495,5.9564,5.9702,6.0116,6.0461,6.0944,6.1737,6.1875,6.1979,6.2324,6.2117,6.1737,6.1358,6.1289,6.1151,6.0771,6.0737,6.0565,6.0151,6.0116,6.0116,6.0116,5.9771,5.9564,5.9564,5.9219,5.9012,5.9012,5.9012,5.9012,5.9012,5.9012,5.9012,5.9012,5.9012,5.9012,5.9012,5.9012,5.9012,5.1322,5.2006,5.3295,5.5595,5.6162,5.657,5.8201,5.8635,5.8698,5.8698,5.8551,5.8105,5.7105,5.6825,5.6322,5.5053,5.4811,5.4717,5.456,5.4494,5.4494,5.4494,5.4494,5.4494,5.4494,5.4494,5.4494,5.4494,5.4494,5.4494,5.4494,5.4494,5.4494,5.4494,5.4494,5.5253,5.6771,5.6805,5.7529,5.9012,5.9012,5.9012,5.9012,5.9012,5.9012,5.9012,5.9012,5.9012,5.9012,5.9012,5.9012,5.9012,5.9012,5.9012,5.9012,5.9012,5.9012,5.9012,5.9012,5.9012,5.9012,5.9012,5.9012,5.9012,5.9012,5.9012,5.9012,5.9012,5.9012,5.9047,5.9185,5.9219,5.9426,6.0185,6.0496,6.0599,6.0599,6.1082,6.1737,6.253,6.2668,6.2875,6.3496,6.3082,6.2461,6.1806,6.1703,6.1634,6.153,6.1496,6.1461,6.1323,6.1289,6.1289,6.1289,6.0737,6.0392,6.0392,5.9771,5.9426,5.9426,5.9426,5.9426,5.9426,5.915,5.9012,5.9012,5.9012,5.9012,5.9012,5.9012,5.9012,5.153,5.2229,5.3331,5.5155,5.5588,5.6014,5.7647,5.8363,5.8698,5.8698,5.8319,5.7771,5.7191,5.6563,5.5879,5.5079,5.4873,5.4717,5.456,5.4494,5.4494,5.4494,5.4494,5.4494,5.4494,5.4494,5.4494,5.4494,5.4494,5.4494,5.4494,5.4494,5.4494,5.4494,5.4494,5.5253,5.6771,5.6805,5.7529,5.9012,5.9012,5.9012,5.9012,5.9012,5.9012,5.9012,5.9012,5.9012,5.9012,5.9012,5.9012,5.9012,5.9012,5.9012,5.9012,5.9012,5.9012,5.9012,5.9012,5.9012,5.9012,5.9012,5.9012,5.9012,5.9012,5.9012,5.9012,5.9012,5.9012,5.9185,5.9875,6.0047,6.022,6.0978,6.1668,6.2186,6.2186,6.2255,6.2565,6.3289,6.3427,6.3462,6.3565,6.3531,6.3427,6.3289,6.3289,6.3048,6.2393,6.2324,6.2048,6.1358,6.1289,6.1289,6.1289,6.122,6.1151,6.1151,6.1047,6.0978,6.0978,6.0978,6.0978,6.0978,5.9702,5.9012,5.9012,5.9012,5.9012,5.9012,5.9012,5.9012,5.169,5.2172,5.2845,5.4109,5.4956,5.5713,5.6572,5.7533,5.8238,5.8238,5.7582,5.704,5.7091,5.6599,5.5943,5.5229,5.4992,5.4873,5.4686,5.4592,5.4494,5.4494,5.4494,5.4494,5.4494,5.4494,5.4494,5.4494,5.4494,5.4494,5.4494,5.4494,5.4494,5.4494,5.4908,5.5667,5.6771,5.7219,5.7943,5.9012,5.9012,5.9012,5.9012,5.9012,5.9012,5.9012,5.9012,5.9012,5.9012,5.9012,5.9012,5.9012,5.9012,5.9012,5.9012,5.9012,5.9012,5.9012,5.9012,5.9012,5.9012,5.9012,5.9012,5.9012,5.9012,5.9012,5.9012,5.9012,5.9323,5.9771,6.0116,6.0496,6.1013,6.1772,6.222,6.2599,6.3013,6.3117,6.3186,6.3531,6.36,6.36,6.36,6.36,6.36,6.36,6.36,6.3462,6.3151,6.3117,6.2979,6.2634,6.2599,6.2599,6.2599,6.222,6.1979,6.1979,6.153,6.1289,6.1289,6.1289,6.1289,6.1289,6.022,5.9668,5.9668,5.9219,5.9012,5.9012,5.9012,5.9012,5.1576,5.1824,5.2125,5.3087,5.4181,5.5169,5.5605,5.6722,5.7677,5.7677,5.6964,5.642,5.6835,5.6474,5.5894,5.5319,5.5079,5.493,5.4811,5.4623,5.4494,5.4494,5.4494,5.4494,5.4494,5.4494,5.4494,5.4494,5.4494,5.4494,5.4494,5.4494,5.4494,5.4494,5.5219,5.6012,5.6805,5.7736,5.8461,5.9012,5.9012,5.9012,5.9012,5.9012,5.9012,5.9012,5.9012,5.9012,5.9012,5.9012,5.9012,5.9012,5.9012,5.9012,5.9012,5.9012,5.9012,5.9012,5.9012,5.9012,5.9012,5.9012,5.9012,5.9012,5.9012,5.9012,5.9047,5.9254,5.9737,6.0289,6.0668,6.1185,6.1806,6.2565,6.2772,6.291,6.3462,6.36,6.36,6.36,6.36,6.36,6.36,6.36,6.36,6.36,6.36,6.36,6.36,6.36,6.36,6.36,6.36,6.36,6.36,6.3082,6.2772,6.2772,6.222,6.1875,6.1875,6.1875,6.1875,6.1875,6.1151,6.0668,6.0461,5.9875,5.9599,5.9599,5.9392,5.9323,5.0947,5.0999,5.129,5.2332,5.3219,5.4118,5.4946,5.6181,5.7141,5.7141,5.6678,5.6311,5.6339,5.5901,5.5478,5.5229,5.5079,5.493,5.4811,5.4623,5.4494,5.4494,5.4494,5.4494,5.4494,5.4494,5.4494,5.4494,5.4494,5.4494,5.4494,5.4494,5.4494,5.4494,5.5219,5.6012,5.6805,5.8219,5.8978,5.9012,5.9012,5.9012,5.9012,5.9012,5.9012,5.9012,5.9012,5.9012,5.9012,5.9012,5.9012,5.9012,5.9012,5.9012,5.9012,5.9012,5.9012,5.9012,5.9012,5.9012,5.9012,5.9012,5.9012,5.9012,5.9012,5.9012,5.9185,5.9909,6.0151,6.053,6.1979,6.2393,6.2599,6.3358,6.3531,6.3531,6.36,6.36,6.36,6.36,6.36,6.36,6.36,6.36,6.36,6.36,6.36,6.36,6.36,6.36,6.36,6.36,6.36,6.36,6.36,6.3565,6.3531,6.3531,6.3496,6.3462,6.3462,6.3462,6.3462,6.3462,6.2737,6.1979,6.1254,6.122,6.1185,6.1151,6.0461,6.0151,5.053,5.0714,5.1052,5.1227,5.2546,5.3789,5.3863,5.5275,5.6572,5.6572,5.6146,5.5872,5.6229,5.5844,5.5478,5.5383,5.5174,5.4992,5.493,5.4683,5.4494,5.4494,5.4494,5.4494,5.4494,5.4494,5.4494,5.4494,5.4494,5.4494,5.4494,5.4494,5.4494,5.4494,5.5736,5.6978,5.8219,5.8737,5.9012,5.9012,5.9012,5.9012,5.9012,5.9012,5.9012,5.9012,5.9012,5.9012,5.9012,5.9012,5.9012,5.9012,5.9012,5.9012,5.9012,5.9012,5.9012,5.9012,5.9012,5.9012,5.9012,5.9012,5.9012,5.9012,5.9012,5.9357,5.984,6.0116,6.0909,6.1806,6.2358,6.2841,6.3255,6.3531,6.36,6.36,6.36,6.36,6.36,6.36,6.36,6.36,6.36,6.36,6.36,6.36,6.36,6.36,6.36,6.36,6.36,6.36,6.36,6.36,6.36,6.36,6.36,6.36,6.36,6.36,6.36,6.36,6.36,6.36,6.3324,6.2806,6.2048,6.1565,6.1289,6.1289,6.1013,6.0909,5.0206,5.0397,5.0612,5.0474,5.1906,5.3316,5.307,5.4486,5.5865,5.5865,5.5555,5.5443,5.5837,5.5642,5.5413,5.5478,5.5264,5.5053,5.5022,5.4745,5.4592,5.4529,5.4494,5.4494,5.4494,5.4494,5.4494,5.4494,5.4494,5.4494,5.4494,5.4494,5.4736,5.5253,5.6253,5.7529,5.9012,5.9012,5.9012,5.9012,5.9012,5.9012,5.9012,5.9012,5.9012,5.9012,5.9012,5.9012,5.9012,5.9012,5.9012,5.9012,5.9012,5.9012,5.9012,5.9012,5.9012,5.9012,5.9012,5.9012,5.9012,5.9012,5.9012,5.9047,5.9323,5.9771,6.0323,6.084,6.1703,6.253,6.2806,6.322,6.36,6.36,6.36,6.36,6.36,6.36,6.36,6.36,6.36,6.36,6.36,6.36,6.36,6.36,6.36,6.36,6.36,6.36,6.36,6.36,6.36,6.36,6.36,6.36,6.36,6.36,6.36,6.36,6.36,6.36,6.36,6.36,6.36,6.3358,6.2841,6.2324,6.2082,6.2082,6.1806,6.1565,0.0,0.0,0.0,5.0178,5.1379,5.2552,5.2705,5.3913,5.4992,5.4992,5.4992,5.5053,5.5169,5.5199,5.5259,5.5448,5.5324,5.5139,5.5022,5.4904,5.4717,5.4494,5.4494,5.4494,5.4494,5.4494,5.4494,5.4494,5.4494,5.4494,5.4494,5.4529,5.5219,5.6736,5.6805,5.7529,5.9012,5.9012,5.9012,5.9012,5.9012,5.9012,5.9012,5.9012,5.9012,5.9012,5.9012,5.9012,5.9012,5.9012,5.9012,5.9012,5.9012,5.9012,5.9012,5.9012,5.9012,5.9012,5.9012,5.9012,5.9012,5.9012,5.9047,5.9185,5.9944,6.022,6.0565,6.2082,6.2496,6.2703,6.3393,6.36,6.36,6.36,6.36,6.36,6.36,6.36,6.36,6.36,6.36,6.36,6.36,6.36,6.36,6.36,6.36,6.36,6.36,6.36,6.36,6.36,6.36,6.36,6.36,6.36,6.36,6.36,6.36,6.36,6.36,6.36,6.36,6.36,6.36,6.36,6.36,6.36,6.36,6.3565,6.2841,6.2117,5.0011,0.0,0.0,0.0,0.0,0.0,5.3331,5.4296,5.4992,5.4992,5.4992,5.5022,5.5053,5.5139,5.5169,5.5144,5.5083,5.5053,5.5022,5.4745,5.456,5.4529,5.4494,5.4494,5.4494,5.4494,5.4494,5.4494,5.4494,5.4494,5.4494,5.5012,5.577,5.6771,5.7322,5.8047,5.9012,5.9012,5.9012,5.9012,5.9012,5.9012,5.9012,5.9012,5.9012,5.9012,5.9012,5.9012,5.9012,5.9012,5.9012,5.9012,5.9012,5.9012,5.9012,5.9012,5.9012,5.9012,5.9012,5.9012,5.9012,5.9012,5.9392,5.9909,6.0116,6.0978,6.1944,6.2358,6.2875,6.3324,6.3531,6.36,6.36,6.36,6.36,6.36,6.36,6.36,6.36,6.36,6.36,6.36,6.36,6.36,6.36,6.36,6.36,6.36,6.36,6.36,6.36,6.36,6.36,6.36,6.36,6.36,6.36,6.36,6.36,6.36,6.36,6.36,6.36,6.36,6.36,6.36,6.36,6.36,6.36,6.36,6.3393,6.3186,0.0,0.0,5.1045,5.1578,0.0,0.0,5.3532,5.4221,5.4776,5.4776,5.4776,5.4807,5.49,5.4992,5.5022,5.4992,5.493,5.4934,5.4934,5.4749,5.4592,5.4494,5.4494,5.4494,5.4494,5.4494,5.4494,5.4494,5.4494,5.4494,5.4494,5.5219,5.5977,5.6771,5.7529,5.8254,5.9012,5.9012,5.9012,5.9012,5.9012,5.9012,5.9012,5.9012,5.9012,5.9012,5.9012,5.9012,5.9012,5.9012,5.9012,5.9012,5.9012,5.9012,5.9012,5.9012,5.9012,5.9012,5.9012,5.9012,5.9081,5.9392,5.9806,6.0323,6.0944,6.1772,6.253,6.2841,6.3255,6.36,6.36,6.36,6.36,6.36,6.36,6.36,6.36,6.36,6.36,6.36,6.36,6.36,6.36,6.36,6.36,6.36,6.36,6.36,6.36,6.36,6.36,6.36,6.36,6.36,6.36,6.36,6.36,6.36,6.36,6.36,6.36,6.36,6.36,6.36,6.36,6.36,6.36,6.36,6.36,6.36,6.36,6.36,0.0,0.0,0.0,5.2291,5.2873,0.0,5.3494,5.4046,5.4494,5.4494,5.4557,5.4652,5.4842,5.4904,5.49,5.5022,5.4934,5.478,5.478,5.478,5.4686,5.4494,5.4494,5.4494,5.4494,5.4494,5.4494,5.4494,5.4494,5.4494,5.4494,5.5288,5.6081,5.6771,5.7598,5.8357,5.9012,5.9012,5.9012,5.9012,5.9012,5.9012,5.9012,5.9012,5.9012,5.9012,5.9012,5.9012,5.9012,5.9012,5.9012,5.9012,5.9012,5.9012,5.9012,5.9012,5.9012,5.9012,5.9012,5.9081,5.9254,5.9978,6.0323,6.0703,6.2082,6.253,6.2737,6.3427,6.36,6.36,6.36,6.36,6.36,6.36,6.36,6.36,6.36,6.36,6.36,6.36,6.36,6.36,6.36,6.36,6.36,6.36,6.36,6.36,6.36,6.36,6.36,6.36,6.36,6.36,6.36,6.36,6.36,6.36,6.36,6.36,6.36,6.36,6.36,6.36,6.36,6.36,6.36,6.36,6.36,6.36,6.36,6.36,5.2035,5.2127,5.236,5.3011,5.3287,0.0,5.4149,5.4391,5.4494,5.4494,5.4896,5.5224,5.5254,5.5373,5.5432,5.5343,5.5022,5.478,5.478,5.4655,5.4526,5.4494,5.4494,5.4494,5.4494,5.4494,5.4494,5.4494,5.4494,5.4494,5.4494,5.5805,5.6633,5.6805,5.8081,5.8875,5.9012,5.9012,5.9012,5.9012,5.9012,5.9012,5.9012,5.9012,5.9012,5.9012,5.9012,5.9012,5.9012,5.9012,5.9012,5.9012,5.9012,5.9012,5.9012,5.9012,5.9012,5.9012,5.9012,5.9426,5.9978,6.0151,6.1047,6.2117,6.2393,6.291,6.3427,6.3565,6.36,6.36,6.36,6.36,6.36,6.36,6.36,6.36,6.36,6.36,6.36,6.36,6.36,6.36,6.36,6.36,6.36,6.36,6.36,6.36,6.36,6.36,6.36,6.36,6.36,6.36,6.36,6.36,6.36,6.36,6.36,6.36,6.36,6.36,6.36,6.36,6.36,6.36,6.36,6.36,6.36,6.36,6.36,6.36,5.298,5.3107,5.3269,5.3682,5.388,0.0,0.0,5.4494,5.4494,5.4494,5.4745,5.4957,5.4957,5.5254,5.5367,5.5018,5.5018,5.4992,5.4686,5.4557,5.4494,5.4494,5.4494,5.4494,5.4494,5.4494,5.4494,5.4494,5.4494,5.4494,5.4494,5.5598,5.6391,5.6771,5.7874,5.8633,5.9012,5.9012,5.9012,5.9012,5.9012,5.9012,5.9012,5.9012,5.9012,5.9012,5.9012,5.9012,5.9012,5.9012,5.9012,5.9012,5.9012,5.9012,5.9012,5.9012,5.9012,5.9081,5.9461,5.9875,6.0323,6.1082,6.1875,6.2565,6.2944,6.3289,6.36,6.36,6.36,6.36,6.36,6.36,6.36,6.36,6.36,6.36,6.36,6.36,6.36,6.36,6.36,6.36,6.36,6.36,6.36,6.36,6.36,6.36,6.36,6.36,6.36,6.36,6.36,6.36,6.36,6.36,6.36,6.36,6.36,6.36,6.36,6.36,6.36,6.36,6.36,6.36,6.36,6.36,6.36,6.36,6.36,6.36,5.398,5.411,5.4207,5.4239,5.4367,5.4494,0.0,0.0,0.0,5.4494,5.4589,5.4683,5.4683,5.5164,5.5361,5.4718,5.5064,5.5219,5.4687,5.4548,5.4494,5.4494,5.4494,5.4494,5.4494,5.4494,5.4494,5.4494,5.4494,5.4494,5.4494,5.5219,5.5977,5.6771,5.7529,5.8254,5.9012,5.9012,5.9012,5.9012,5.9012,5.9012,5.9012,5.9012,5.9012,5.9012,5.9012,5.9012,5.9012,5.9012,5.9012,5.9012,5.9012,5.9012,5.9012,5.9012,5.9012,5.9116,5.9909,6.0289,6.0634,6.2013,6.2599,6.2806,6.3427,6.36,6.36,6.36,6.36,6.36,6.36,6.36,6.36,6.36,6.36,6.36,6.36,6.36,6.36,6.36,6.36,6.36,6.36,6.36,6.36,6.36,6.36,6.36,6.36,6.36,6.36,6.36,6.36,6.36,6.36,6.36,6.36,6.36,6.36,6.36,6.36,6.36,6.36,6.36,6.36,6.36,6.36,6.36,6.36,6.36,6.36,6.36,5.3948,5.411,5.4239,5.4399,5.4463,5.4494,5.4494,0.0,5.4494,5.4494,0.0,5.5313,5.5313,0.0,0.0,5.5166,5.5235,5.5331,5.5048,5.4715,5.4494,5.4494,5.4494,5.4494,5.4494,5.4494,5.4494,5.4494,5.4494,5.4494,5.4494,5.5219,5.5977,5.6771,5.7529,5.8254,5.9012,5.9012,5.9012,5.9012,5.9012,5.9012,5.9012,5.9012,5.9012,5.9012,5.9012,5.9012,5.9012,5.9012,5.9012,5.9012,5.9012,5.9012,5.9012,5.9012,5.9012,5.9116,5.9909,6.0634,6.1323,6.2186,6.2944,6.3496,6.3565,6.36,6.36,6.36,6.36,6.36,6.36,6.36,6.36,6.36,6.36,6.36,6.36,6.36,6.36,6.36,6.36,6.36,6.36,6.36,6.36,6.36,6.36,6.36,6.36,6.36,6.36,6.36,6.36,6.36,6.36,6.36,6.36,6.36,6.36,6.36,6.36,6.36,6.36,6.36,6.36,6.36,6.36,6.36,6.36,6.36,6.36,6.36,5.3685,5.3882,5.411,5.4175,5.4335,5.4494,5.4494,5.4494,5.4494,5.4494,0.0,0.0,0.0,0.0,0.0,0.0,5.5925,5.6241,5.5875,5.5646,5.5432,5.5044,5.4714,5.4494,5.4494,5.4494,5.4494,5.4494,5.4494,5.4494,5.4494,5.4805,5.5529,5.6771,5.7116,5.784,5.9012,5.9012,5.9012,5.9012,5.9012,5.9012,5.9012,5.9012,5.9012,5.9012,5.9012,5.9012,5.9012,5.9012,5.9012,5.9012,5.9012,5.9012,5.9012,5.9012,5.9323,5.9806,6.0565,6.1358,6.2117,6.2875,6.3324,6.36,6.36,6.36,6.36,6.36,6.36,6.36,6.36,6.36,6.36,6.36,6.36,6.36,6.36,6.36,6.36,6.36,6.36,6.36,6.36,6.36,6.36,6.36,6.36,6.36,6.36,6.36,6.36,6.36,6.36,6.36,6.36,6.36,6.36,6.36,6.36,6.36,6.36,6.36,6.36,6.36,6.36,6.36,6.36,6.36,6.36,6.36,6.36,6.36,5.3551,5.3751,5.3915,5.398,5.4175,5.4367,5.4399,5.4399,5.4431,5.4463,5.4494,0.0,0.0,0.0,5.59,5.5411,0.0,5.6789,5.6469,5.6349,5.6138,5.5687,5.5104,5.4683,5.4494,5.4494,5.4494,5.4494,5.4494,5.4494,5.4494,5.4494,5.5219,5.6736,5.6805,5.7529,5.9012,5.9012,5.9012,5.9012,5.9012,5.9012,5.9012,5.9012,5.9012,5.9012,5.9012,5.9012,5.9012,5.9012,5.9012,5.9012,5.9012,5.915,5.9323,5.9323,5.9702,6.0323,6.1289,6.2151,6.2875,6.3427,6.36,6.36,6.36,6.36,6.36,6.36,6.36,6.36,6.36,6.36,6.36,6.36,6.36,6.36,6.36,6.36,6.36,6.36,6.36,6.36,6.36,6.36,6.36,6.36,6.36,6.36,6.36,6.36,6.36,6.36,6.36,6.36,6.36,6.36,6.36,6.36,6.36,6.36,6.36,6.36,6.36,6.36,6.36,6.36,6.36,6.36,6.36,6.36,6.36,6.36,5.3651,5.3717,5.375,5.3948,5.4013,5.4045,5.4175,5.4207,5.4271,5.4463,5.4494,5.4494,5.4494,5.5018,0.0,0.0,0.0,0.0,0.0,5.6494,5.6303,5.6276,5.5744,5.5134,5.4557,5.4494,5.4494,5.4494,5.4494,5.4494,5.4494,5.4494,5.5219,5.6736,5.6805,5.7529,5.9012,5.9012,5.9012,5.9012,5.9012,5.9012,5.9012,5.9012,5.9012,5.9012,5.9012,5.9012,5.9012,5.9012,5.9012,5.9012,5.9012,5.9495,6.0151,6.0151,6.0185,6.0427,6.1944,6.2944,6.3565,6.36,6.36,6.36,6.36,6.36,6.36,6.36,6.36,6.36,6.36,6.36,6.36,6.36,6.36,6.36,6.36,6.36,6.36,6.36,6.36,6.36,6.36,6.36,6.36,6.36,6.36,6.36,6.36,6.36,6.36,6.36,6.36,6.36,6.36,6.36,6.36,6.36,6.36,6.36,6.36,6.36,6.36,6.36,6.36,6.36,6.36,6.36,6.36,6.36,6.36,6.36,5.3882,5.398,5.4045,5.4013,5.4078,5.411,5.4078,5.4078,5.411,5.4271,5.4303,5.4335,5.4463,5.5313,0.0,0.0,0.0,0.0,0.0,5.7496,5.7277,5.6887,5.5999,5.5164,5.4557,5.4494,5.4494,5.4494,5.4494,5.4494,5.4494,5.4494,5.5219,5.6736,5.6805,5.7529,5.9012,5.9012,5.9012,5.9012,5.9012,5.9012,5.9012,5.9012,5.9012,5.9012,5.9012,5.9012,5.9012,5.9012,5.9012,5.9047,5.9599,5.9944,6.0185,6.0185,6.084,6.1875,6.2875,6.3393,6.36,6.36,6.36,6.36,6.36,6.36,6.36,6.36,6.36,6.36,6.36,6.36,6.36,6.36,6.36,6.36,6.36,6.36,6.36,6.36,6.36,6.36,6.36,6.36,6.36,6.36,6.36,6.36,6.36,6.36,6.36,6.36,6.36,6.36,6.36,6.36,6.36,6.36,6.36,6.36,6.36,6.36,6.36,6.36,6.36,6.36,6.36,6.36,6.36,6.36,6.36,6.36,5.398,5.4078,5.411,5.4013,5.4078,5.411,5.4013,5.398,5.4045,5.4175,5.4207,5.4271,5.4463,5.5134,0.0,0.0,0.0,0.0,0.0,5.7844,5.7774,5.7166,5.6267,5.549,5.4865,5.462,5.4494,5.4494,5.4494,5.4494,5.4494,5.4494,5.5219,5.6736,5.6805,5.7529,5.9012,5.9012,5.9012,5.9012,5.9012,5.9012,5.9012,5.9012,5.9012,5.9012,5.9012,5.9012,5.9012,5.9012,5.9185,5.9495,6.0013,6.053,6.1013,6.1013,6.1806,6.2944,6.3427,6.36,6.36,6.36,6.36,6.36,6.36,6.36,6.36,6.36,6.36,6.36,6.36,6.36,6.36,6.36,6.36,6.36,6.36,6.36,6.36,6.36,6.36,6.36,6.36,6.36,6.36,6.36,6.36,6.36,6.36,6.36,6.36,6.36,6.36,6.36,6.36,6.36,6.36,6.36,6.36,6.36,6.36,6.36,6.3703,6.3979,6.3738,6.3738,6.3979,6.3738,6.36,6.36,6.36,6.36]}]]